Wetterdaten: Dienstag, 23.01.2018
Datum Zeit Temp. A. Pool Temp. Feuchte A. Luftdruck Regen Wind Richtung Richtung Sonnenschein ET UV Solar Taupunkt Windchill Windben Empfang
23.01.2018 00:00 -0,1 C 3,3 C 98 % 1016,1 hPa 0,0 l/m 0,0 km/h (0 Bft) W-SW 250 0 min 0,000 mm 0,0 UV-I 0 W/m -0,4 C -0,1 C 0,0 km/h (0 Bft) 100,00 %
23.01.2018 00:02 -0,1 C 3,3 C 98 % 1016,1 hPa 0,0 l/m 0,0 km/h (0 Bft) W-SW 238 0 min 0,000 mm 0,0 UV-I 0 W/m -0,4 C -0,1 C 0,0 km/h (0 Bft) 10,53 %
23.01.2018 00:04 -0,1 C 3,3 C 98 % 1016,1 hPa 0,0 l/m 0,0 km/h (0 Bft) W-SW 238 0 min 0,000 mm 0,0 UV-I 0 W/m -0,4 C -0,1 C 0,0 km/h (0 Bft) 66,67 %
23.01.2018 00:06 -0,1 C 3,3 C 98 % 1016,2 hPa 0,0 l/m 0,0 km/h (0 Bft) W-SW 238 0 min 0,000 mm 0,0 UV-I 0 W/m -0,4 C -0,1 C 0,0 km/h (0 Bft) 97,56 %
23.01.2018 00:08 -0,1 C 3,3 C 98 % 1016,2 hPa 0,0 l/m 0,0 km/h (0 Bft) SW 225 0 min 0,000 mm 0,0 UV-I 0 W/m -0,4 C -0,1 C 0,0 km/h (0 Bft) 97,87 %
23.01.2018 00:10 -0,1 C 3,3 C 98 % 1016,3 hPa 0,0 l/m 0,0 km/h (0 Bft) S-SW 212 0 min 0,000 mm 0,0 UV-I 0 W/m -0,4 C -0,1 C 0,0 km/h (0 Bft) 100,00 %
23.01.2018 00:12 0,0 C 3,3 C 98 % 1016,3 hPa 0,0 l/m 0,0 km/h (0 Bft) S-SW 211 0 min 0,000 mm 0,0 UV-I 0 W/m -0,3 C 0,0 C 0,0 km/h (0 Bft) 100,00 %
23.01.2018 00:14 0,0 C 3,3 C 98 % 1016,4 hPa 0,0 l/m 0,0 km/h (0 Bft) SW 215 0 min 0,000 mm 0,0 UV-I 0 W/m -0,3 C 0,0 C 0,0 km/h (0 Bft) 100,00 %
23.01.2018 00:16 0,0 C 3,3 C 98 % 1016,4 hPa 0,0 l/m 0,0 km/h (0 Bft) SW 215 0 min 0,000 mm 0,0 UV-I 0 W/m -0,3 C 0,0 C 0,0 km/h (0 Bft) 100,00 %
23.01.2018 00:18 0,0 C 3,3 C 98 % 1016,5 hPa 0,0 l/m 0,0 km/h (0 Bft) SW 214 0 min 0,000 mm 0,0 UV-I 0 W/m -0,3 C 0,0 C 0,0 km/h (0 Bft) 100,00 %
23.01.2018 00:20 0,0 C 3,3 C 98 % 1016,5 hPa 0,0 l/m 0,0 km/h (0 Bft) SW 218 0 min 0,000 mm 0,0 UV-I 0 W/m -0,3 C 0,0 C 0,0 km/h (0 Bft) 100,00 %
23.01.2018 00:22 0,1 C 3,3 C 98 % 1016,6 hPa 0,0 l/m 0,0 km/h (0 Bft) W-SW 238 0 min 0,000 mm 0,0 UV-I 0 W/m -0,2 C 0,1 C 0,0 km/h (0 Bft) 100,00 %
23.01.2018 00:24 0,1 C 3,3 C 98 % 1016,6 hPa 0,0 l/m 0,0 km/h (0 Bft) SW 233 0 min 0,000 mm 0,0 UV-I 0 W/m -0,2 C 0,1 C 0,0 km/h (0 Bft) 100,00 %
23.01.2018 00:26 0,1 C 3,3 C 98 % 1016,7 hPa 0,0 l/m 0,0 km/h (0 Bft) W-SW 246 0 min 0,000 mm 0,0 UV-I 0 W/m -0,2 C 0,1 C 0,0 km/h (0 Bft) 100,00 %
23.01.2018 00:28 0,1 C 3,3 C 98 % 1016,7 hPa 0,0 l/m 0,0 km/h (0 Bft) W-SW 238 0 min 0,000 mm 0,0 UV-I 0 W/m -0,2 C 0,1 C 0,0 km/h (0 Bft) 100,00 %
23.01.2018 00:30 0,1 C 3,3 C 98 % 1016,8 hPa 0,0 l/m 0,0 km/h (0 Bft) SW 236 0 min 0,000 mm 0,0 UV-I 0 W/m -0,2 C 0,1 C 0,0 km/h (0 Bft) 100,00 %
23.01.2018 00:32 0,2 C 3,3 C 98 % 1016,8 hPa 0,0 l/m 0,0 km/h (0 Bft) W-SW 244 0 min 0,000 mm 0,0 UV-I 0 W/m -0,1 C 0,2 C 0,0 km/h (0 Bft) 100,00 %
23.01.2018 00:34 0,2 C 3,3 C 98 % 1016,9 hPa 0,0 l/m 0,0 km/h (0 Bft) W-SW 250 0 min 0,000 mm 0,0 UV-I 0 W/m -0,1 C 0,2 C 0,0 km/h (0 Bft) 97,62 %
23.01.2018 00:36 0,2 C 3,3 C 98 % 1017,0 hPa 0,0 l/m 0,0 km/h (0 Bft) W-SW 241 0 min 0,000 mm 0,0 UV-I 0 W/m -0,1 C 0,2 C 0,0 km/h (0 Bft) 100,00 %
23.01.2018 00:38 0,2 C 3,3 C 98 % 1017,0 hPa 0,0 l/m 0,0 km/h (0 Bft) W-SW 249 0 min 0,000 mm 0,0 UV-I 0 W/m -0,1 C 0,2 C 0,0 km/h (0 Bft) 100,00 %
23.01.2018 00:40 0,3 C 3,3 C 98 % 1017,1 hPa 0,0 l/m 0,0 km/h (0 Bft) SW 227 0 min 0,000 mm 0,0 UV-I 0 W/m 0,0 C 0,3 C 0,0 km/h (0 Bft) 100,00 %
23.01.2018 00:42 0,3 C 3,3 C 98 % 1017,2 hPa 0,0 l/m 0,0 km/h (0 Bft) W-SW 257 0 min 0,000 mm 0,0 UV-I 0 W/m 0,0 C 0,3 C 0,0 km/h (0 Bft) 100,00 %
23.01.2018 00:44 0,3 C 3,3 C 98 % 1017,3 hPa 0,0 l/m 0,0 km/h (0 Bft) W-SW 238 0 min 0,000 mm 0,0 UV-I 0 W/m 0,0 C 0,3 C 0,0 km/h (0 Bft) 100,00 %
23.01.2018 00:46 0,3 C 3,3 C 98 % 1017,3 hPa 0,0 l/m 0,0 km/h (0 Bft) W-SW 251 0 min 0,000 mm 0,0 UV-I 0 W/m 0,0 C 0,3 C 0,0 km/h (0 Bft) 97,87 %
23.01.2018 00:48 0,4 C 3,3 C 98 % 1017,3 hPa 0,0 l/m 0,0 km/h (0 Bft) W-SW 248 0 min 0,000 mm 0,0 UV-I 0 W/m 0,1 C 0,4 C 0,0 km/h (0 Bft) 97,87 %
23.01.2018 00:50 0,5 C 3,3 C 98 % 1017,3 hPa 0,0 l/m 0,0 km/h (0 Bft) SW 230 0 min 0,000 mm 0,0 UV-I 0 W/m 0,2 C 0,5 C 0,0 km/h (0 Bft) 100,00 %
23.01.2018 00:52 0,6 C 3,3 C 98 % 1017,4 hPa 0,0 l/m 0,0 km/h (0 Bft) W 267 0 min 0,000 mm 0,0 UV-I 0 W/m 0,3 C 0,6 C 0,0 km/h (0 Bft) 100,00 %
23.01.2018 00:54 0,6 C 3,3 C 98 % 1017,3 hPa 0,0 l/m 0,0 km/h (0 Bft) SW 219 0 min 0,000 mm 0,0 UV-I 0 W/m 0,3 C 0,6 C 0,0 km/h (0 Bft) 100,00 %
23.01.2018 00:56 0,7 C 3,3 C 98 % 1017,4 hPa 0,0 l/m 0,0 km/h (0 Bft) W-SW 240 0 min 0,000 mm 0,0 UV-I 0 W/m 0,4 C 0,7 C 0,0 km/h (0 Bft) 98,00 %
23.01.2018 00:58 0,8 C 3,3 C 98 % 1017,5 hPa 0,0 l/m 0,0 km/h (0 Bft) W 280 0 min 0,000 mm 0,0 UV-I 0 W/m 0,5 C 0,8 C 0,0 km/h (0 Bft) 97,87 %
23.01.2018 01:00 0,8 C 3,3 C 98 % 1017,4 hPa 0,0 l/m 0,0 km/h (0 Bft) W-SW 252 0 min 0,000 mm 0,0 UV-I 0 W/m 0,5 C 0,8 C 0,0 km/h (0 Bft) 100,00 %
23.01.2018 01:02 0,9 C 3,3 C 98 % 1017,4 hPa 0,0 l/m 0,0 km/h (0 Bft) SW 234 0 min 0,000 mm 0,0 UV-I 0 W/m 0,6 C 0,9 C 0,0 km/h (0 Bft) 100,00 %
23.01.2018 01:04 1,0 C 3,3 C 98 % 1017,4 hPa 0,0 l/m 0,0 km/h (0 Bft) W-SW 245 0 min 0,000 mm 0,0 UV-I 0 W/m 0,7 C 1,0 C 0,0 km/h (0 Bft) 100,00 %
23.01.2018 01:06 1,0 C 3,3 C 98 % 1017,4 hPa 0,0 l/m 0,0 km/h (0 Bft) W-SW 251 0 min 0,000 mm 0,0 UV-I 0 W/m 0,7 C 1,0 C 0,0 km/h (0 Bft) 100,00 %
23.01.2018 01:08 0,9 C 3,3 C 98 % 1017,5 hPa 0,0 l/m 0,0 km/h (0 Bft) W-SW 254 0 min 0,000 mm 0,0 UV-I 0 W/m 0,6 C 0,9 C 0,0 km/h (0 Bft) 94,29 %
23.01.2018 01:10 1,0 C 3,3 C 98 % 1017,5 hPa 0,0 l/m 0,0 km/h (0 Bft) W-SW 240 0 min 0,000 mm 0,0 UV-I 0 W/m 0,7 C 1,0 C 0,0 km/h (0 Bft) 97,22 %
23.01.2018 01:12 1,1 C 3,3 C 98 % 1017,6 hPa 0,0 l/m 0,0 km/h (0 Bft) W 259 0 min 0,000 mm 0,0 UV-I 0 W/m 0,8 C 1,1 C 0,0 km/h (0 Bft) 98,44 %
23.01.2018 01:14 1,0 C 3,3 C 98 % 1017,7 hPa 0,0 l/m 0,0 km/h (0 Bft) W-SW 254 0 min 0,000 mm 0,0 UV-I 0 W/m 0,7 C 1,0 C 0,0 km/h (0 Bft) 97,87 %
23.01.2018 01:16 0,9 C 3,3 C 98 % 1017,9 hPa 0,0 l/m 0,0 km/h (0 Bft) W-SW 258 0 min 0,000 mm 0,0 UV-I 0 W/m 0,6 C 0,9 C 0,0 km/h (0 Bft) 98,08 %
23.01.2018 01:18 0,9 C 3,3 C 98 % 1017,9 hPa 0,0 l/m 0,0 km/h (0 Bft) W 262 0 min 0,000 mm 0,0 UV-I 0 W/m 0,6 C 0,9 C 0,0 km/h (0 Bft) 97,73 %
23.01.2018 01:20 1,1 C 3,3 C 97 % 1017,9 hPa 0,0 l/m 0,0 km/h (0 Bft) W 261 0 min 0,000 mm 0,0 UV-I 0 W/m 0,7 C 1,1 C 0,0 km/h (0 Bft) 97,37 %
23.01.2018 01:22 1,1 C 3,3 C 97 % 1017,9 hPa 0,0 l/m 0,8 km/h (0 Bft) W 266 0 min 0,000 mm 0,0 UV-I 0 W/m 0,7 C 1,1 C 8,0 km/h (2 Bft) 96,00 %
23.01.2018 01:24 1,2 C 3,3 C 97 % 1018,0 hPa 0,0 l/m 9,0 km/h (2 Bft) W 267 0 min 0,000 mm 0,0 UV-I 0 W/m 0,8 C -1,3 C 16,1 km/h (3 Bft) 97,87 %
23.01.2018 01:26 1,2 C 3,3 C 97 % 1018,0 hPa 0,0 l/m 9,8 km/h (2 Bft) W 262 0 min 0,000 mm 0,0 UV-I 0 W/m 0,8 C -2,0 C 16,1 km/h (3 Bft) 95,74 %
23.01.2018 01:28 1,4 C 3,3 C 98 % 1018,0 hPa 0,0 l/m 7,4 km/h (2 Bft) W-SW 254 0 min 0,000 mm 0,0 UV-I 0 W/m 1,1 C 0,4 C 11,3 km/h (2 Bft) 95,74 %
23.01.2018 01:30 1,3 C 3,3 C 98 % 1018,0 hPa 0,0 l/m 7,1 km/h (2 Bft) W-SW 249 0 min 0,000 mm 0,0 UV-I 0 W/m 1,0 C 0,6 C 11,3 km/h (2 Bft) 98,00 %
23.01.2018 01:32 1,3 C 3,3 C 98 % 1018,0 hPa 0,0 l/m 6,4 km/h (2 Bft) W-SW 247 0 min 0,000 mm 0,0 UV-I 0 W/m 1,0 C 1,3 C 9,7 km/h (2 Bft) 93,18 %
23.01.2018 01:34 1,3 C 3,3 C 98 % 1018,1 hPa 0,0 l/m 6,4 km/h (2 Bft) W 262 0 min 0,000 mm 0,0 UV-I 0 W/m 1,0 C 1,3 C 9,7 km/h (2 Bft) 98,00 %
23.01.2018 01:36 1,3 C 3,3 C 97 % 1018,2 hPa 0,0 l/m 11,6 km/h (2 Bft) W 268 0 min 0,000 mm 0,0 UV-I 0 W/m 0,9 C -3,2 C 17,7 km/h (3 Bft) 97,73 %
23.01.2018 01:38 1,4 C 3,3 C 97 % 1018,2 hPa 0,0 l/m 9,1 km/h (2 Bft) W-SW 240 0 min 0,000 mm 0,0 UV-I 0 W/m 1,0 C -1,2 C 14,5 km/h (3 Bft) 96,23 %
23.01.2018 01:40 1,5 C 3,3 C 97 % 1018,2 hPa 0,0 l/m 10,6 km/h (2 Bft) W-SW 241 0 min 0,000 mm 0,0 UV-I 0 W/m 1,1 C -2,3 C 14,5 km/h (3 Bft) 100,00 %
23.01.2018 01:42 1,6 C 3,3 C 98 % 1018,3 hPa 0,0 l/m 12,7 km/h (3 Bft) W-SW 246 0 min 0,000 mm 0,0 UV-I 0 W/m 1,3 C -3,6 C 16,1 km/h (3 Bft) 96,00 %
23.01.2018 01:44 1,6 C 3,3 C 97 % 1018,4 hPa 0,0 l/m 10,8 km/h (2 Bft) W 268 0 min 0,000 mm 0,0 UV-I 0 W/m 1,2 C -2,3 C 14,5 km/h (3 Bft) 96,00 %
23.01.2018 01:46 1,6 C 3,3 C 97 % 1018,4 hPa 0,0 l/m 10,3 km/h (2 Bft) W 279 0 min 0,000 mm 0,0 UV-I 0 W/m 1,2 C -1,9 C 16,1 km/h (3 Bft) 100,00 %
23.01.2018 01:48 1,6 C 3,3 C 97 % 1018,4 hPa 0,0 l/m 9,0 km/h (2 Bft) W 275 0 min 0,000 mm 0,0 UV-I 0 W/m 1,2 C -0,9 C 14,5 km/h (3 Bft) 100,00 %
23.01.2018 01:50 1,6 C 3,3 C 97 % 1018,4 hPa 0,0 l/m 7,9 km/h (2 Bft) W-SW 253 0 min 0,000 mm 0,0 UV-I 0 W/m 1,2 C 0,1 C 11,3 km/h (2 Bft) 98,00 %
23.01.2018 01:52 1,6 C 3,3 C 97 % 1018,5 hPa 0,0 l/m 6,3 km/h (2 Bft) W 263 0 min 0,000 mm 0,0 UV-I 0 W/m 1,2 C 1,6 C 11,3 km/h (2 Bft) 98,08 %
23.01.2018 01:54 1,6 C 3,3 C 97 % 1018,5 hPa 0,0 l/m 4,6 km/h (1 Bft) W-SW 250 0 min 0,000 mm 0,0 UV-I 0 W/m 1,2 C 1,6 C 6,4 km/h (2 Bft) 97,92 %
23.01.2018 01:56 1,6 C 3,3 C 97 % 1018,4 hPa 0,0 l/m 4,9 km/h (1 Bft) W 271 0 min 0,000 mm 0,0 UV-I 0 W/m 1,2 C 1,6 C 6,4 km/h (2 Bft) 97,87 %
23.01.2018 01:58 1,6 C 3,3 C 97 % 1018,5 hPa 0,0 l/m 5,0 km/h (1 Bft) W-NW 282 0 min 0,000 mm 0,0 UV-I 0 W/m 1,2 C 1,6 C 9,7 km/h (2 Bft) 94,29 %
23.01.2018 02:00 1,7 C 3,3 C 97 % 1018,6 hPa 0,0 l/m 7,4 km/h (2 Bft) W 267 0 min 0,000 mm 0,0 UV-I 0 W/m 1,3 C 0,7 C 11,3 km/h (2 Bft) 98,00 %
23.01.2018 02:02 1,7 C 3,3 C 97 % 1018,7 hPa 0,0 l/m 5,8 km/h (2 Bft) W 260 0 min 0,000 mm 0,0 UV-I 0 W/m 1,3 C 1,7 C 9,7 km/h (2 Bft) 96,43 %
23.01.2018 02:04 1,6 C 3,3 C 97 % 1018,7 hPa 0,0 l/m 5,8 km/h (2 Bft) W 271 0 min 0,000 mm 0,0 UV-I 0 W/m 1,2 C 1,6 C 11,3 km/h (2 Bft) 97,56 %
23.01.2018 02:06 1,5 C 3,3 C 97 % 1018,7 hPa 0,0 l/m 5,5 km/h (1 Bft) W 262 0 min 0,000 mm 0,0 UV-I 0 W/m 1,1 C 1,5 C 9,7 km/h (2 Bft) 96,23 %
23.01.2018 02:08 1,6 C 3,3 C 97 % 1018,8 hPa 0,0 l/m 7,3 km/h (2 Bft) SW 226 0 min 0,000 mm 0,0 UV-I 0 W/m 1,2 C 0,7 C 11,3 km/h (2 Bft) 97,14 %
23.01.2018 02:10 1,6 C 3,3 C 97 % 1018,8 hPa 0,0 l/m 6,8 km/h (2 Bft) W-SW 246 0 min 0,000 mm 0,0 UV-I 0 W/m 1,2 C 1,2 C 11,3 km/h (2 Bft) 96,00 %
23.01.2018 02:12 1,7 C 3,3 C 97 % 1018,9 hPa 0,0 l/m 8,0 km/h (2 Bft) SW 219 0 min 0,000 mm 0,0 UV-I 0 W/m 1,3 C 0,1 C 11,3 km/h (2 Bft) 98,11 %
23.01.2018 02:14 1,8 C 3,3 C 97 % 1018,9 hPa 0,0 l/m 7,7 km/h (2 Bft) S-SW 210 0 min 0,000 mm 0,0 UV-I 0 W/m 1,4 C 0,5 C 11,3 km/h (2 Bft) 97,87 %
23.01.2018 02:16 1,8 C 3,3 C 97 % 1018,9 hPa 0,0 l/m 8,0 km/h (2 Bft) SW 217 0 min 0,000 mm 0,0 UV-I 0 W/m 1,4 C 0,2 C 12,9 km/h (3 Bft) 97,56 %
23.01.2018 02:18 1,8 C 3,3 C 97 % 1019,0 hPa 0,0 l/m 9,4 km/h (2 Bft) SW 220 0 min 0,000 mm 0,0 UV-I 0 W/m 1,4 C -1,0 C 14,5 km/h (3 Bft) 98,04 %
23.01.2018 02:20 1,8 C 3,3 C 97 % 1019,0 hPa 0,0 l/m 8,9 km/h (2 Bft) W-SW 254 0 min 0,000 mm 0,0 UV-I 0 W/m 1,4 C -0,6 C 14,5 km/h (3 Bft) 97,73 %
23.01.2018 02:22 1,9 C 3,3 C 97 % 1019,1 hPa 0,0 l/m 13,2 km/h (3 Bft) W 274 0 min 0,000 mm 0,0 UV-I 0 W/m 1,5 C -3,6 C 19,3 km/h (3 Bft) 96,23 %
23.01.2018 02:24 1,9 C 3,3 C 97 % 1019,1 hPa 0,0 l/m 12,0 km/h (2 Bft) W-SW 253 0 min 0,000 mm 0,0 UV-I 0 W/m 1,5 C -2,8 C 17,7 km/h (3 Bft) 97,37 %
23.01.2018 02:26 1,8 C 3,3 C 97 % 1019,2 hPa 0,0 l/m 10,0 km/h (2 Bft) SW 232 0 min 0,000 mm 0,0 UV-I 0 W/m 1,4 C -1,5 C 14,5 km/h (3 Bft) 96,00 %
23.01.2018 02:28 1,8 C 3,3 C 97 % 1019,3 hPa 0,0 l/m 7,3 km/h (2 Bft) SW 231 0 min 0,000 mm 0,0 UV-I 0 W/m 1,4 C 0,9 C 11,3 km/h (2 Bft) 97,87 %
23.01.2018 02:30 1,8 C 3,3 C 97 % 1019,3 hPa 0,0 l/m 14,8 km/h (3 Bft) W-SW 251 0 min 0,000 mm 0,0 UV-I 0 W/m 1,4 C -4,7 C 22,5 km/h (4 Bft) 97,78 %
23.01.2018 02:32 1,8 C 3,3 C 97 % 1019,4 hPa 0,0 l/m 11,7 km/h (2 Bft) W 259 0 min 0,000 mm 0,0 UV-I 0 W/m 1,4 C -2,7 C 16,1 km/h (3 Bft) 97,56 %
23.01.2018 02:34 1,8 C 3,3 C 97 % 1019,4 hPa 0,0 l/m 11,0 km/h (2 Bft) W 265 0 min 0,000 mm 0,0 UV-I 0 W/m 1,4 C -2,2 C 16,1 km/h (3 Bft) 96,43 %
23.01.2018 02:36 1,8 C 3,3 C 97 % 1019,5 hPa 0,0 l/m 12,3 km/h (3 Bft) W-SW 252 0 min 0,000 mm 0,0 UV-I 0 W/m 1,4 C -3,1 C 16,1 km/h (3 Bft) 97,37 %
23.01.2018 02:38 1,8 C 3,3 C 97 % 1019,5 hPa 0,0 l/m 6,5 km/h (2 Bft) W-SW 240 0 min 0,000 mm 0,0 UV-I 0 W/m 1,4 C 1,7 C 11,3 km/h (2 Bft) 98,21 %
23.01.2018 02:40 1,8 C 3,3 C 97 % 1019,5 hPa 0,0 l/m 7,8 km/h (2 Bft) SW 214 0 min 0,000 mm 0,0 UV-I 0 W/m 1,4 C 0,4 C 12,9 km/h (3 Bft) 97,37 %
23.01.2018 02:42 1,8 C 3,3 C 97 % 1019,6 hPa 0,0 l/m 7,2 km/h (2 Bft) SW 236 0 min 0,000 mm 0,0 UV-I 0 W/m 1,4 C 1,0 C 11,3 km/h (2 Bft) 98,00 %
23.01.2018 02:44 1,8 C 3,3 C 97 % 1019,5 hPa 0,0 l/m 7,9 km/h (2 Bft) SW 219 0 min 0,000 mm 0,0 UV-I 0 W/m 1,4 C 0,3 C 11,3 km/h (2 Bft) 98,11 %
23.01.2018 02:46 1,7 C 3,3 C 97 % 1019,5 hPa 0,0 l/m 8,7 km/h (2 Bft) SW 220 0 min 0,000 mm 0,0 UV-I 0 W/m 1,3 C -0,5 C 12,9 km/h (3 Bft) 97,56 %
23.01.2018 02:48 1,7 C 3,3 C 97 % 1019,6 hPa 0,0 l/m 6,5 km/h (2 Bft) W-SW 241 0 min 0,000 mm 0,0 UV-I 0 W/m 1,3 C 1,6 C 9,7 km/h (2 Bft) 94,64 %
23.01.2018 02:50 1,7 C 3,3 C 97 % 1019,7 hPa 0,0 l/m 8,3 km/h (2 Bft) W-SW 239 0 min 0,000 mm 0,0 UV-I 0 W/m 1,3 C -0,1 C 12,9 km/h (3 Bft) 97,14 %
23.01.2018 02:52 1,7 C 3,3 C 97 % 1019,6 hPa 0,0 l/m 7,5 km/h (2 Bft) W-SW 238 0 min 0,000 mm 0,0 UV-I 0 W/m 1,3 C 0,6 C 11,3 km/h (2 Bft) 96,23 %
23.01.2018 02:54 1,7 C 3,3 C 97 % 1019,7 hPa 0,0 l/m 7,6 km/h (2 Bft) W-SW 253 0 min 0,000 mm 0,0 UV-I 0 W/m 1,3 C 0,5 C 11,3 km/h (2 Bft) 97,87 %
23.01.2018 02:56 1,7 C 3,3 C 97 % 1019,8 hPa 0,0 l/m 9,6 km/h (2 Bft) SW 223 0 min 0,000 mm 0,0 UV-I 0 W/m 1,3 C -1,3 C 11,3 km/h (2 Bft) 97,87 %
23.01.2018 02:58 1,7 C 3,3 C 97 % 1019,8 hPa 0,0 l/m 8,3 km/h (2 Bft) W-SW 258 0 min 0,000 mm 0,0 UV-I 0 W/m 1,3 C -0,1 C 12,9 km/h (3 Bft) 97,56 %
23.01.2018 03:00 1,7 C 3,3 C 97 % 1019,7 hPa 0,0 l/m 8,2 km/h (2 Bft) W-SW 249 0 min 0,000 mm 0,0 UV-I 0 W/m 1,3 C -0,0 C 12,9 km/h (3 Bft) 98,11 %
23.01.2018 03:02 1,8 C 3,3 C 97 % 1019,8 hPa 0,0 l/m 9,0 km/h (2 Bft) SW 225 0 min 0,000 mm 0,0 UV-I 0 W/m 1,4 C -0,6 C 16,1 km/h (3 Bft) 95,45 %
23.01.2018 03:04 1,8 C 3,3 C 97 % 1019,8 hPa 0,0 l/m 8,0 km/h (2 Bft) SW 233 0 min 0,000 mm 0,0 UV-I 0 W/m 1,4 C 0,2 C 9,7 km/h (2 Bft) 96,67 %
23.01.2018 03:06 1,8 C 3,3 C 97 % 1019,8 hPa 0,0 l/m 8,3 km/h (2 Bft) W 271 0 min 0,000 mm 0,0 UV-I 0 W/m 1,4 C -0,0 C 14,5 km/h (3 Bft) 98,57 %
23.01.2018 03:08 1,8 C 3,3 C 97 % 1019,8 hPa 0,0 l/m 8,7 km/h (2 Bft) W-SW 240 0 min 0,000 mm 0,0 UV-I 0 W/m 1,4 C -0,4 C 12,9 km/h (3 Bft) 100,00 %
23.01.2018 03:10 1,8 C 3,3 C 97 % 1019,8 hPa 0,0 l/m 7,6 km/h (2 Bft) W-SW 248 0 min 0,000 mm 0,0 UV-I 0 W/m 1,4 C 0,6 C 11,3 km/h (2 Bft) 100,00 %
23.01.2018 03:12 1,7 C 3,3 C 97 % 1019,9 hPa 0,0 l/m 7,4 km/h (2 Bft) W 262 0 min 0,000 mm 0,0 UV-I 0 W/m 1,3 C 0,7 C 12,9 km/h (3 Bft) 97,87 %
23.01.2018 03:14 1,8 C 3,3 C 97 % 1020,0 hPa 0,0 l/m 10,9 km/h (2 Bft) W-SW 251 0 min 0,000 mm 0,0 UV-I 0 W/m 1,4 C -2,1 C 14,5 km/h (3 Bft) 100,00 %
23.01.2018 03:16 1,8 C 3,3 C 97 % 1020,0 hPa 0,0 l/m 10,4 km/h (2 Bft) W-SW 257 0 min 0,000 mm 0,0 UV-I 0 W/m 1,4 C -1,8 C 14,5 km/h (3 Bft) 100,00 %
23.01.2018 03:18 1,8 C 3,3 C 97 % 1020,0 hPa 0,0 l/m 8,3 km/h (2 Bft) SW 236 0 min 0,000 mm 0,0 UV-I 0 W/m 1,4 C -0,0 C 12,9 km/h (3 Bft) 98,11 %
23.01.2018 03:20 1,8 C 3,3 C 97 % 1019,8 hPa 0,0 l/m 9,7 km/h (2 Bft) SW 229 0 min 0,000 mm 0,0 UV-I 0 W/m 1,4 C -1,2 C 12,9 km/h (3 Bft) 95,12 %
23.01.2018 03:22 1,8 C 3,3 C 97 % 1019,7 hPa 0,0 l/m 12,2 km/h (2 Bft) SW 232 0 min 0,000 mm 0,0 UV-I 0 W/m 1,4 C -3,1 C 17,7 km/h (3 Bft) 97,73 %
23.01.2018 03:24 1,8 C 3,3 C 97 % 1019,7 hPa 0,0 l/m 10,2 km/h (2 Bft) W-SW 243 0 min 0,000 mm 0,0 UV-I 0 W/m 1,4 C -1,6 C 17,7 km/h (3 Bft) 96,00 %
23.01.2018 03:26 1,8 C 3,3 C 97 % 1019,7 hPa 0,0 l/m 9,7 km/h (2 Bft) W-SW 242 0 min 0,000 mm 0,0 UV-I 0 W/m 1,4 C -1,2 C 16,1 km/h (3 Bft) 97,87 %
23.01.2018 03:28 1,8 C 3,3 C 97 % 1019,6 hPa 0,0 l/m 12,5 km/h (3 Bft) SW 223 0 min 0,000 mm 0,0 UV-I 0 W/m 1,4 C -3,3 C 17,7 km/h (3 Bft) 97,87 %
23.01.2018 03:30 1,8 C 3,3 C 97 % 1019,6 hPa 0,0 l/m 9,9 km/h (2 Bft) W-SW 237 0 min 0,000 mm 0,0 UV-I 0 W/m 1,4 C -1,4 C 16,1 km/h (3 Bft) 95,74 %
23.01.2018 03:32 1,8 C 3,3 C 97 % 1019,7 hPa 0,0 l/m 9,9 km/h (2 Bft) SW 232 0 min 0,000 mm 0,0 UV-I 0 W/m 1,4 C -1,4 C 16,1 km/h (3 Bft) 95,74 %
23.01.2018 03:34 1,8 C 3,3 C 96 % 1019,8 hPa 0,0 l/m 8,6 km/h (2 Bft) W-SW 238 0 min 0,000 mm 0,0 UV-I 0 W/m 1,2 C -0,3 C 12,9 km/h (3 Bft) 97,87 %
23.01.2018 03:36 1,8 C 3,3 C 97 % 1019,9 hPa 0,0 l/m 8,1 km/h (2 Bft) W-SW 245 0 min 0,000 mm 0,0 UV-I 0 W/m 1,4 C 0,2 C 12,9 km/h (3 Bft) 97,37 %
23.01.2018 03:38 1,8 C 3,3 C 97 % 1019,9 hPa 0,0 l/m 7,5 km/h (2 Bft) W-SW 251 0 min 0,000 mm 0,0 UV-I 0 W/m 1,4 C 0,7 C 11,3 km/h (2 Bft) 98,21 %
23.01.2018 03:40 1,7 C 3,3 C 97 % 1019,9 hPa 0,0 l/m 7,5 km/h (2 Bft) SW 214 0 min 0,000 mm 0,0 UV-I 0 W/m 1,3 C 0,6 C 11,3 km/h (2 Bft) 95,74 %
23.01.2018 03:42 1,8 C 3,3 C 97 % 1019,9 hPa 0,0 l/m 7,9 km/h (2 Bft) SW 234 0 min 0,000 mm 0,0 UV-I 0 W/m 1,4 C 0,3 C 12,9 km/h (3 Bft) 97,73 %
23.01.2018 03:44 1,8 C 3,3 C 97 % 1019,9 hPa 0,0 l/m 8,7 km/h (2 Bft) W-SW 243 0 min 0,000 mm 0,0 UV-I 0 W/m 1,4 C -0,4 C 16,1 km/h (3 Bft) 97,44 %
23.01.2018 03:46 1,8 C 3,3 C 97 % 1020,0 hPa 0,0 l/m 9,3 km/h (2 Bft) W 267 0 min 0,000 mm 0,0 UV-I 0 W/m 1,4 C -0,9 C 12,9 km/h (3 Bft) 98,28 %
23.01.2018 03:48 1,8 C 3,3 C 97 % 1020,0 hPa 0,0 l/m 9,6 km/h (2 Bft) W-NW 290 0 min 0,000 mm 0,0 UV-I 0 W/m 1,4 C -1,1 C 12,9 km/h (3 Bft) 97,50 %
23.01.2018 03:50 1,9 C 3,3 C 97 % 1020,1 hPa 0,0 l/m 6,1 km/h (2 Bft) W-NW 292 0 min 0,000 mm 0,0 UV-I 0 W/m 1,5 C 1,9 C 11,3 km/h (2 Bft) 96,00 %
23.01.2018 03:52 1,8 C 3,3 C 97 % 1020,1 hPa 0,0 l/m 4,9 km/h (1 Bft) W 259 0 min 0,000 mm 0,0 UV-I 0 W/m 1,4 C 1,8 C 6,4 km/h (2 Bft) 95,74 %
23.01.2018 03:54 1,8 C 3,3 C 97 % 1020,1 hPa 0,0 l/m 5,0 km/h (1 Bft) W-NW 284 0 min 0,000 mm 0,0 UV-I 0 W/m 1,4 C 1,8 C 9,7 km/h (2 Bft) 96,00 %
23.01.2018 03:56 1,8 C 3,3 C 97 % 1020,1 hPa 0,0 l/m 6,4 km/h (2 Bft) W 263 0 min 0,000 mm 0,0 UV-I 0 W/m 1,4 C 1,8 C 11,3 km/h (2 Bft) 98,00 %
23.01.2018 03:58 1,8 C 3,3 C 97 % 1020,1 hPa 0,0 l/m 9,6 km/h (2 Bft) W-SW 252 0 min 0,000 mm 0,0 UV-I 0 W/m 1,4 C -1,1 C 14,5 km/h (3 Bft) 100,00 %
23.01.2018 04:00 1,9 C 3,3 C 97 % 1020,1 hPa 0,0 l/m 8,3 km/h (2 Bft) W 262 0 min 0,000 mm 0,0 UV-I 0 W/m 1,5 C 0,1 C 12,9 km/h (3 Bft) 100,00 %
23.01.2018 04:02 2,0 C 3,3 C 97 % 1020,1 hPa 0,0 l/m 9,7 km/h (2 Bft) W-SW 251 0 min 0,000 mm 0,0 UV-I 0 W/m 1,6 C -1,0 C 14,5 km/h (3 Bft) 100,00 %
23.01.2018 04:04 2,1 C 3,3 C 97 % 1020,1 hPa 0,0 l/m 10,4 km/h (2 Bft) W-SW 251 0 min 0,000 mm 0,0 UV-I 0 W/m 1,7 C -1,4 C 14,5 km/h (3 Bft) 97,56 %
23.01.2018 04:06 2,1 C 3,3 C 97 % 1020,1 hPa 0,0 l/m 8,2 km/h (2 Bft) SW 225 0 min 0,000 mm 0,0 UV-I 0 W/m 1,7 C 0,4 C 12,9 km/h (3 Bft) 100,00 %
23.01.2018 04:08 2,1 C 3,3 C 97 % 1020,1 hPa 0,0 l/m 11,1 km/h (2 Bft) W-SW 254 0 min 0,000 mm 0,0 UV-I 0 W/m 1,7 C -2,0 C 19,3 km/h (3 Bft) 100,00 %
23.01.2018 04:10 2,1 C 3,3 C 97 % 1020,1 hPa 0,0 l/m 7,8 km/h (2 Bft) W-SW 245 0 min 0,000 mm 0,0 UV-I 0 W/m 1,7 C 0,7 C 11,3 km/h (2 Bft) 97,87 %
23.01.2018 04:12 2,2 C 3,3 C 97 % 1020,2 hPa 0,0 l/m 9,1 km/h (2 Bft) W-SW 250 0 min 0,000 mm 0,0 UV-I 0 W/m 1,8 C -0,3 C 16,1 km/h (3 Bft) 97,87 %
23.01.2018 04:14 2,1 C 3,3 C 96 % 1020,2 hPa 0,0 l/m 8,8 km/h (2 Bft) W 265 0 min 0,000 mm 0,0 UV-I 0 W/m 1,5 C -0,2 C 12,9 km/h (3 Bft) 97,87 %
23.01.2018 04:16 2,1 C 3,3 C 96 % 1020,3 hPa 0,0 l/m 9,5 km/h (2 Bft) W-SW 257 0 min 0,000 mm 0,0 UV-I 0 W/m 1,5 C -0,7 C 12,9 km/h (3 Bft) 100,00 %
23.01.2018 04:18 2,1 C 3,3 C 96 % 1020,3 hPa 0,0 l/m 10,0 km/h (2 Bft) W-SW 249 0 min 0,000 mm 0,0 UV-I 0 W/m 1,5 C -1,1 C 14,5 km/h (3 Bft) 100,00 %
23.01.2018 04:20 2,1 C 3,3 C 96 % 1020,3 hPa 0,0 l/m 10,5 km/h (2 Bft) SW 232 0 min 0,000 mm 0,0 UV-I 0 W/m 1,5 C -1,5 C 16,1 km/h (3 Bft) 100,00 %
23.01.2018 04:22 2,3 C 3,3 C 97 % 1020,4 hPa 0,0 l/m 12,2 km/h (2 Bft) W-SW 254 0 min 0,000 mm 0,0 UV-I 0 W/m 1,9 C -2,5 C 17,7 km/h (3 Bft) 100,00 %
23.01.2018 04:24 2,3 C 3,3 C 97 % 1020,3 hPa 0,0 l/m 10,7 km/h (2 Bft) W 259 0 min 0,000 mm 0,0 UV-I 0 W/m 1,9 C -1,4 C 16,1 km/h (3 Bft) 96,00 %
23.01.2018 04:26 2,3 C 3,3 C 97 % 1020,4 hPa 0,0 l/m 11,0 km/h (2 Bft) W-SW 244 0 min 0,000 mm 0,0 UV-I 0 W/m 1,9 C -1,7 C 16,1 km/h (3 Bft) 100,00 %
23.01.2018 04:28 2,3 C 3,3 C 96 % 1020,4 hPa 0,0 l/m 10,4 km/h (2 Bft) SW 235 0 min 0,000 mm 0,0 UV-I 0 W/m 1,7 C -1,2 C 14,5 km/h (3 Bft) 100,00 %
23.01.2018 04:30 2,3 C 3,3 C 96 % 1020,4 hPa 0,0 l/m 10,3 km/h (2 Bft) W 259 0 min 0,000 mm 0,0 UV-I 0 W/m 1,7 C -1,1 C 14,5 km/h (3 Bft) 100,00 %
23.01.2018 04:32 2,3 C 3,3 C 96 % 1020,5 hPa 0,0 l/m 10,4 km/h (2 Bft) W-SW 255 0 min 0,000 mm 0,0 UV-I 0 W/m 1,7 C -1,2 C 16,1 km/h (3 Bft) 100,00 %
23.01.2018 04:34 2,4 C 3,3 C 96 % 1020,5 hPa 0,0 l/m 11,0 km/h (2 Bft) W-SW 238 0 min 0,000 mm 0,0 UV-I 0 W/m 1,8 C -1,5 C 16,1 km/h (3 Bft) 91,49 %
23.01.2018 04:36 2,4 C 3,3 C 96 % 1020,5 hPa 0,0 l/m 12,8 km/h (3 Bft) W-SW 244 0 min 0,000 mm 0,0 UV-I 0 W/m 1,8 C -2,8 C 17,7 km/h (3 Bft) 95,74 %
23.01.2018 04:38 2,5 C 3,3 C 96 % 1020,6 hPa 0,0 l/m 11,0 km/h (2 Bft) W 266 0 min 0,000 mm 0,0 UV-I 0 W/m 1,9 C -1,4 C 14,5 km/h (3 Bft) 100,00 %
23.01.2018 04:40 2,4 C 3,3 C 96 % 1020,6 hPa 0,0 l/m 10,7 km/h (2 Bft) W 271 0 min 0,000 mm 0,0 UV-I 0 W/m 1,8 C -1,3 C 14,5 km/h (3 Bft) 100,00 %
23.01.2018 04:42 2,5 C 3,3 C 96 % 1020,6 hPa 0,0 l/m 9,9 km/h (2 Bft) W-SW 252 0 min 0,000 mm 0,0 UV-I 0 W/m 1,9 C -0,6 C 14,5 km/h (3 Bft) 100,00 %
23.01.2018 04:44 2,4 C 3,3 C 96 % 1020,7 hPa 0,0 l/m 11,9 km/h (2 Bft) W-SW 254 0 min 0,000 mm 0,0 UV-I 0 W/m 1,8 C -2,2 C 14,5 km/h (3 Bft) 100,00 %
23.01.2018 04:46 2,5 C 3,3 C 96 % 1020,7 hPa 0,0 l/m 10,7 km/h (2 Bft) W-SW 258 0 min 0,000 mm 0,0 UV-I 0 W/m 1,9 C -1,2 C 14,5 km/h (3 Bft) 100,00 %
23.01.2018 04:48 2,4 C 3,3 C 96 % 1020,8 hPa 0,0 l/m 7,3 km/h (2 Bft) W 279 0 min 0,000 mm 0,0 UV-I 0 W/m 1,8 C 1,5 C 12,9 km/h (3 Bft) 100,00 %
23.01.2018 04:50 2,4 C 3,3 C 96 % 1020,7 hPa 0,0 l/m 8,0 km/h (2 Bft) W 263 0 min 0,000 mm 0,0 UV-I 0 W/m 1,8 C 0,9 C 12,9 km/h (3 Bft) 95,83 %
23.01.2018 04:52 2,4 C 3,3 C 96 % 1020,9 hPa 0,0 l/m 10,7 km/h (2 Bft) W 261 0 min 0,000 mm 0,0 UV-I 0 W/m 1,8 C -1,3 C 14,5 km/h (3 Bft) 100,00 %
23.01.2018 04:54 2,4 C 3,3 C 96 % 1020,9 hPa 0,0 l/m 6,4 km/h (2 Bft) W-SW 252 0 min 0,000 mm 0,0 UV-I 0 W/m 1,8 C 2,4 C 11,3 km/h (2 Bft) 98,00 %
23.01.2018 04:56 2,4 C 3,3 C 96 % 1020,9 hPa 0,0 l/m 8,5 km/h (2 Bft) W 259 0 min 0,000 mm 0,0 UV-I 0 W/m 1,8 C 0,4 C 12,9 km/h (3 Bft) 100,00 %
23.01.2018 04:58 2,4 C 3,3 C 96 % 1020,9 hPa 0,0 l/m 9,3 km/h (2 Bft) W-SW 250 0 min 0,000 mm 0,0 UV-I 0 W/m 1,8 C -0,2 C 14,5 km/h (3 Bft) 100,00 %
23.01.2018 05:00 2,4 C 3,3 C 96 % 1020,9 hPa 0,0 l/m 11,2 km/h (2 Bft) W-SW 253 0 min 0,000 mm 0,0 UV-I 0 W/m 1,8 C -1,7 C 16,1 km/h (3 Bft) 100,00 %
23.01.2018 05:02 2,4 C 3,3 C 96 % 1020,9 hPa 0,0 l/m 10,3 km/h (2 Bft) W 260 0 min 0,000 mm 0,0 UV-I 0 W/m 1,8 C -1,0 C 14,5 km/h (3 Bft) 97,87 %
23.01.2018 05:04 2,5 C 3,3 C 96 % 1020,9 hPa 0,0 l/m 13,1 km/h (3 Bft) SW 236 0 min 0,000 mm 0,0 UV-I 0 W/m 1,9 C -2,8 C 17,7 km/h (3 Bft) 100,00 %
23.01.2018 05:06 2,5 C 3,3 C 96 % 1021,0 hPa 0,0 l/m 12,1 km/h (2 Bft) SW 214 0 min 0,000 mm 0,0 UV-I 0 W/m 1,9 C -2,2 C 14,5 km/h (3 Bft) 98,00 %
23.01.2018 05:08 2,5 C 3,3 C 96 % 1021,0 hPa 0,2 l/m 9,8 km/h (2 Bft) W-SW 244 0 min 0,000 mm 0,0 UV-I 0 W/m 1,9 C -0,5 C 14,5 km/h (3 Bft) 97,87 %
23.01.2018 05:10 2,5 C 3,3 C 96 % 1020,9 hPa 0,0 l/m 9,0 km/h (2 Bft) SW 225 0 min 0,000 mm 0,0 UV-I 0 W/m 1,9 C 0,1 C 12,9 km/h (3 Bft) 100,00 %
23.01.2018 05:12 2,5 C 3,3 C 96 % 1020,9 hPa 0,0 l/m 7,8 km/h (2 Bft) W-SW 249 0 min 0,000 mm 0,0 UV-I 0 W/m 1,9 C 1,2 C 11,3 km/h (2 Bft) 97,37 %
23.01.2018 05:14 2,6 C 3,3 C 96 % 1021,0 hPa 0,0 l/m 9,7 km/h (2 Bft) W-SW 241 0 min 0,000 mm 0,0 UV-I 0 W/m 2,0 C -0,3 C 14,5 km/h (3 Bft) 100,00 %
23.01.2018 05:16 2,6 C 3,3 C 96 % 1021,0 hPa 0,0 l/m 9,5 km/h (2 Bft) SW 230 0 min 0,000 mm 0,0 UV-I 0 W/m 2,0 C -0,2 C 12,9 km/h (3 Bft) 100,00 %
23.01.2018 05:18 2,6 C 3,3 C 96 % 1021,0 hPa 0,0 l/m 9,2 km/h (2 Bft) W-SW 238 0 min 0,000 mm 0,0 UV-I 0 W/m 2,0 C 0,1 C 16,1 km/h (3 Bft) 100,00 %
23.01.2018 05:20 2,6 C 3,3 C 96 % 1021,1 hPa 0,0 l/m 10,8 km/h (2 Bft) S-SW 200 0 min 0,000 mm 0,0 UV-I 0 W/m 2,0 C -1,2 C 14,5 km/h (3 Bft) 100,00 %
23.01.2018 05:22 2,6 C 3,3 C 96 % 1021,1 hPa 0,0 l/m 9,9 km/h (2 Bft) S-SW 213 0 min 0,000 mm 0,0 UV-I 0 W/m 2,0 C -0,5 C 14,5 km/h (3 Bft) 100,00 %
23.01.2018 05:24 2,5 C 3,3 C 96 % 1021,1 hPa 0,2 l/m 10,3 km/h (2 Bft) SW 226 0 min 0,000 mm 0,0 UV-I 0 W/m 1,9 C -0,9 C 14,5 km/h (3 Bft) 94,00 %
23.01.2018 05:26 2,5 C 3,3 C 96 % 1021,3 hPa 0,0 l/m 11,0 km/h (2 Bft) SW 225 0 min 0,000 mm 0,0 UV-I 0 W/m 1,9 C -1,4 C 16,1 km/h (3 Bft) 95,12 %
23.01.2018 05:28 2,6 C 3,3 C 96 % 1021,2 hPa 0,0 l/m 10,2 km/h (2 Bft) SW 223 0 min 0,000 mm 0,0 UV-I 0 W/m 2,0 C -0,7 C 16,1 km/h (3 Bft) 98,11 %
23.01.2018 05:30 2,7 C 3,3 C 96 % 1021,2 hPa 0,0 l/m 8,9 km/h (2 Bft) SW 229 0 min 0,000 mm 0,0 UV-I 0 W/m 2,1 C 0,4 C 14,5 km/h (3 Bft) 97,56 %
23.01.2018 05:32 2,7 C 3,3 C 96 % 1021,3 hPa 0,2 l/m 8,4 km/h (2 Bft) SW 214 0 min 0,000 mm 0,0 UV-I 0 W/m 2,1 C 0,8 C 16,1 km/h (3 Bft) 98,00 %
23.01.2018 05:34 2,7 C 3,3 C 95 % 1021,3 hPa 0,0 l/m 7,5 km/h (2 Bft) SW 227 0 min 0,000 mm 0,0 UV-I 0 W/m 2,0 C 1,6 C 12,9 km/h (3 Bft) 97,37 %
23.01.2018 05:36 2,6 C 3,3 C 95 % 1021,3 hPa 0,0 l/m 10,6 km/h (2 Bft) W-SW 243 0 min 0,000 mm 0,0 UV-I 0 W/m 1,9 C -1,0 C 16,1 km/h (3 Bft) 98,21 %
23.01.2018 05:38 2,7 C 3,3 C 95 % 1021,4 hPa 0,2 l/m 7,8 km/h (2 Bft) W-SW 240 0 min 0,000 mm 0,0 UV-I 0 W/m 2,0 C 1,4 C 12,9 km/h (3 Bft) 97,22 %
23.01.2018 05:40 2,7 C 3,3 C 95 % 1021,3 hPa 0,0 l/m 8,0 km/h (2 Bft) W-SW 241 0 min 0,000 mm 0,0 UV-I 0 W/m 2,0 C 1,2 C 11,3 km/h (2 Bft) 98,00 %
23.01.2018 05:42 2,7 C 3,3 C 95 % 1021,4 hPa 0,2 l/m 10,1 km/h (2 Bft) SW 225 0 min 0,000 mm 0,0 UV-I 0 W/m 2,0 C -0,5 C 17,7 km/h (3 Bft) 94,23 %
23.01.2018 05:44 2,7 C 3,3 C 95 % 1021,4 hPa 0,0 l/m 10,1 km/h (2 Bft) W-SW 248 0 min 0,000 mm 0,0 UV-I 0 W/m 2,0 C -0,5 C 14,5 km/h (3 Bft) 97,44 %
23.01.2018 05:46 2,8 C 3,3 C 95 % 1021,4 hPa 0,2 l/m 11,0 km/h (2 Bft) W-SW 237 0 min 0,000 mm 0,0 UV-I 0 W/m 2,1 C -1,1 C 17,7 km/h (3 Bft) 98,21 %
23.01.2018 05:48 2,8 C 3,3 C 95 % 1021,5 hPa 0,2 l/m 10,1 km/h (2 Bft) W 275 0 min 0,000 mm 0,0 UV-I 0 W/m 2,1 C -0,4 C 17,7 km/h (3 Bft) 96,15 %
23.01.2018 05:50 2,8 C 3,3 C 95 % 1021,5 hPa 0,0 l/m 11,8 km/h (2 Bft) SW 219 0 min 0,000 mm 0,0 UV-I 0 W/m 2,1 C -1,6 C 17,7 km/h (3 Bft) 96,92 %
23.01.2018 05:52 2,8 C 3,3 C 95 % 1021,5 hPa 0,4 l/m 8,9 km/h (2 Bft) SW 232 0 min 0,000 mm 0,0 UV-I 0 W/m 2,1 C 0,5 C 11,3 km/h (2 Bft) 98,00 %
23.01.2018 05:54 2,8 C 3,3 C 95 % 1021,5 hPa 0,4 l/m 10,2 km/h (2 Bft) W 263 0 min 0,000 mm 0,0 UV-I 0 W/m 2,1 C -0,5 C 12,9 km/h (3 Bft) 97,56 %
23.01.2018 05:56 2,8 C 3,3 C 95 % 1021,5 hPa 0,8 l/m 8,1 km/h (2 Bft) W-SW 250 0 min 0,000 mm 0,0 UV-I 0 W/m 2,1 C 1,2 C 12,9 km/h (3 Bft) 98,00 %
23.01.2018 05:58 2,9 C 3,3 C 95 % 1021,6 hPa 1,0 l/m 11,8 km/h (2 Bft) W-SW 246 0 min 0,000 mm 0,0 UV-I 0 W/m 2,2 C -1,5 C 17,7 km/h (3 Bft) 97,56 %
23.01.2018 06:00 2,9 C 3,3 C 95 % 1021,7 hPa 1,0 l/m 8,8 km/h (2 Bft) SW 215 0 min 0,000 mm 0,0 UV-I 0 W/m 2,2 C 0,7 C 16,1 km/h (3 Bft) 94,00 %
23.01.2018 06:02 2,9 C 3,3 C 95 % 1021,7 hPa 0,2 l/m 10,5 km/h (2 Bft) SW 232 0 min 0,000 mm 0,0 UV-I 0 W/m 2,2 C -0,6 C 16,1 km/h (3 Bft) 100,00 %
23.01.2018 06:04 2,9 C 3,3 C 95 % 1021,7 hPa 0,2 l/m 10,6 km/h (2 Bft) W-SW 238 0 min 0,000 mm 0,0 UV-I 0 W/m 2,2 C -0,7 C 14,5 km/h (3 Bft) 100,00 %
23.01.2018 06:06 2,9 C 3,3 C 94 % 1021,8 hPa 0,0 l/m 10,2 km/h (2 Bft) SW 227 0 min 0,000 mm 0,0 UV-I 0 W/m 2,0 C -0,4 C 16,1 km/h (3 Bft) 100,00 %
23.01.2018 06:08 2,9 C 3,3 C 95 % 1021,8 hPa 0,0 l/m 10,1 km/h (2 Bft) S-SW 205 0 min 0,000 mm 0,0 UV-I 0 W/m 2,2 C -0,3 C 16,1 km/h (3 Bft) 100,00 %
23.01.2018 06:10 2,9 C 3,3 C 95 % 1021,7 hPa 0,2 l/m 9,2 km/h (2 Bft) W-SW 241 0 min 0,000 mm 0,0 UV-I 0 W/m 2,2 C 0,4 C 11,3 km/h (2 Bft) 95,74 %
23.01.2018 06:12 2,9 C 3,3 C 94 % 1021,8 hPa 0,0 l/m 8,8 km/h (2 Bft) W-SW 252 0 min 0,000 mm 0,0 UV-I 0 W/m 2,0 C 0,7 C 12,9 km/h (3 Bft) 100,00 %
23.01.2018 06:14 2,9 C 3,3 C 94 % 1021,8 hPa 0,2 l/m 12,3 km/h (3 Bft) SW 225 0 min 0,000 mm 0,0 UV-I 0 W/m 2,0 C -1,9 C 20,9 km/h (4 Bft) 96,23 %
23.01.2018 06:16 2,9 C 3,3 C 94 % 1021,9 hPa 0,0 l/m 10,8 km/h (2 Bft) SW 235 0 min 0,000 mm 0,0 UV-I 0 W/m 2,0 C -0,8 C 16,1 km/h (3 Bft) 98,11 %
23.01.2018 06:18 2,9 C 3,3 C 94 % 1021,9 hPa 0,0 l/m 11,2 km/h (2 Bft) W-SW 250 0 min 0,000 mm 0,0 UV-I 0 W/m 2,0 C -1,1 C 16,1 km/h (3 Bft) 100,00 %
23.01.2018 06:20 2,9 C 3,3 C 94 % 1021,9 hPa 0,0 l/m 10,8 km/h (2 Bft) W-SW 244 0 min 0,000 mm 0,0 UV-I 0 W/m 2,0 C -0,8 C 16,1 km/h (3 Bft) 100,00 %
23.01.2018 06:22 2,9 C 3,3 C 94 % 1021,9 hPa 0,0 l/m 7,8 km/h (2 Bft) SW 234 0 min 0,000 mm 0,0 UV-I 0 W/m 2,0 C 1,6 C 14,5 km/h (3 Bft) 100,00 %
23.01.2018 06:24 2,9 C 3,3 C 94 % 1021,9 hPa 0,0 l/m 9,1 km/h (2 Bft) W-SW 246 0 min 0,000 mm 0,0 UV-I 0 W/m 2,0 C 0,5 C 12,9 km/h (3 Bft) 100,00 %
23.01.2018 06:26 2,9 C 3,3 C 94 % 1021,9 hPa 0,0 l/m 10,0 km/h (2 Bft) W-SW 240 0 min 0,000 mm 0,0 UV-I 0 W/m 2,0 C -0,2 C 16,1 km/h (3 Bft) 100,00 %
23.01.2018 06:28 2,9 C 3,3 C 94 % 1021,9 hPa 0,0 l/m 8,4 km/h (2 Bft) W-SW 238 0 min 0,000 mm 0,0 UV-I 0 W/m 2,0 C 1,0 C 12,9 km/h (3 Bft) 98,00 %
23.01.2018 06:30 2,9 C 3,3 C 94 % 1022,1 hPa 0,0 l/m 9,1 km/h (2 Bft) W-SW 244 0 min 0,000 mm 0,0 UV-I 0 W/m 2,0 C 0,5 C 16,1 km/h (3 Bft) 100,00 %
23.01.2018 06:32 2,9 C 3,3 C 94 % 1022,1 hPa 0,2 l/m 8,9 km/h (2 Bft) S-SW 213 0 min 0,000 mm 0,0 UV-I 0 W/m 2,0 C 0,6 C 12,9 km/h (3 Bft) 100,00 %
23.01.2018 06:34 2,9 C 3,3 C 94 % 1022,2 hPa 0,0 l/m 9,8 km/h (2 Bft) SW 222 0 min 0,000 mm 0,0 UV-I 0 W/m 2,0 C -0,1 C 12,9 km/h (3 Bft) 100,00 %
23.01.2018 06:36 2,9 C 3,3 C 94 % 1022,2 hPa 0,0 l/m 8,7 km/h (2 Bft) W-SW 247 0 min 0,000 mm 0,0 UV-I 0 W/m 2,0 C 0,8 C 11,3 km/h (2 Bft) 100,00 %
23.01.2018 06:38 2,9 C 3,3 C 94 % 1022,2 hPa 0,0 l/m 6,7 km/h (2 Bft) W-SW 243 0 min 0,000 mm 0,0 UV-I 0 W/m 2,0 C 2,6 C 9,7 km/h (2 Bft) 100,00 %
23.01.2018 06:40 2,8 C 3,3 C 94 % 1022,3 hPa 0,0 l/m 7,8 km/h (2 Bft) SW 234 0 min 0,000 mm 0,0 UV-I 0 W/m 1,9 C 1,5 C 12,9 km/h (3 Bft) 100,00 %
23.01.2018 06:42 2,8 C 3,3 C 94 % 1022,4 hPa 0,2 l/m 8,1 km/h (2 Bft) SW 232 0 min 0,000 mm 0,0 UV-I 0 W/m 1,9 C 1,2 C 12,9 km/h (3 Bft) 97,87 %
23.01.2018 06:44 2,8 C 3,3 C 94 % 1022,4 hPa 0,0 l/m 10,3 km/h (2 Bft) SW 227 0 min 0,000 mm 0,0 UV-I 0 W/m 1,9 C -0,6 C 14,5 km/h (3 Bft) 100,00 %
23.01.2018 06:46 2,8 C 3,3 C 94 % 1022,4 hPa 0,0 l/m 8,1 km/h (2 Bft) W-SW 241 0 min 0,000 mm 0,0 UV-I 0 W/m 1,9 C 1,2 C 12,9 km/h (3 Bft) 97,56 %
23.01.2018 06:48 2,8 C 3,3 C 94 % 1022,5 hPa 0,0 l/m 7,0 km/h (2 Bft) W-SW 248 0 min 0,000 mm 0,0 UV-I 0 W/m 1,9 C 2,2 C 12,9 km/h (3 Bft) 100,00 %
23.01.2018 06:50 2,7 C 3,3 C 94 % 1022,5 hPa 0,0 l/m 10,5 km/h (2 Bft) W-SW 238 0 min 0,000 mm 0,0 UV-I 0 W/m 1,8 C -0,8 C 16,1 km/h (3 Bft) 100,00 %
23.01.2018 06:52 2,7 C 3,3 C 94 % 1022,6 hPa 0,0 l/m 7,3 km/h (2 Bft) W-SW 244 0 min 0,000 mm 0,0 UV-I 0 W/m 1,8 C 1,8 C 12,9 km/h (3 Bft) 100,00 %
23.01.2018 06:54 2,7 C 3,3 C 94 % 1022,6 hPa 0,0 l/m 7,1 km/h (2 Bft) SW 222 0 min 0,000 mm 0,0 UV-I 0 W/m 1,8 C 2,0 C 11,3 km/h (2 Bft) 100,00 %
23.01.2018 06:56 2,7 C 3,3 C 94 % 1022,6 hPa 0,0 l/m 8,6 km/h (2 Bft) W-SW 239 0 min 0,000 mm 0,0 UV-I 0 W/m 1,8 C 0,7 C 12,9 km/h (3 Bft) 100,00 %
23.01.2018 06:58 2,7 C 3,3 C 94 % 1022,7 hPa 0,2 l/m 8,0 km/h (2 Bft) SW 225 0 min 0,000 mm 0,0 UV-I 0 W/m 1,8 C 1,2 C 12,9 km/h (3 Bft) 100,00 %
23.01.2018 07:00 2,7 C 3,3 C 94 % 1022,7 hPa 0,0 l/m 8,9 km/h (2 Bft) W 259 0 min 0,000 mm 0,0 UV-I 0 W/m 1,8 C 0,4 C 11,3 km/h (2 Bft) 100,00 %
23.01.2018 07:02 2,7 C 3,3 C 94 % 1022,8 hPa 0,0 l/m 8,8 km/h (2 Bft) W-SW 255 0 min 0,000 mm 0,0 UV-I 0 W/m 1,8 C 0,5 C 12,9 km/h (3 Bft) 100,00 %
23.01.2018 07:04 2,6 C 3,3 C 94 % 1022,8 hPa 0,0 l/m 7,7 km/h (2 Bft) SW 222 0 min 0,000 mm 0,0 UV-I 0 W/m 1,7 C 1,4 C 11,3 km/h (2 Bft) 100,00 %
23.01.2018 07:06 2,7 C 3,3 C 94 % 1022,8 hPa 0,0 l/m 8,2 km/h (2 Bft) W-SW 239 0 min 0,000 mm 0,0 UV-I 0 W/m 1,8 C 1,0 C 11,3 km/h (2 Bft) 100,00 %
23.01.2018 07:08 2,7 C 3,3 C 94 % 1022,8 hPa 0,0 l/m 11,5 km/h (2 Bft) SW 227 0 min 0,000 mm 0,0 UV-I 0 W/m 1,8 C -1,6 C 19,3 km/h (3 Bft) 100,00 %
23.01.2018 07:10 2,7 C 3,3 C 94 % 1022,8 hPa 0,0 l/m 14,3 km/h (3 Bft) SW 230 0 min 0,000 mm 0,0 UV-I 0 W/m 1,8 C -3,3 C 19,3 km/h (3 Bft) 100,00 %
23.01.2018 07:12 2,7 C 3,3 C 94 % 1022,9 hPa 0,2 l/m 15,4 km/h (3 Bft) SW 232 0 min 0,000 mm 0,0 UV-I 0 W/m 1,8 C -3,9 C 20,9 km/h (4 Bft) 98,21 %
23.01.2018 07:14 2,8 C 3,3 C 94 % 1022,9 hPa 0,0 l/m 14,7 km/h (3 Bft) W-SW 248 0 min 0,000 mm 0,0 UV-I 0 W/m 1,9 C -3,4 C 20,9 km/h (4 Bft) 100,00 %
23.01.2018 07:16 2,8 C 3,3 C 94 % 1022,9 hPa 0,0 l/m 14,6 km/h (3 Bft) S 182 0 min 0,000 mm 0,0 UV-I 0 W/m 1,9 C -3,4 C 25,7 km/h (4 Bft) 100,00 %
23.01.2018 07:18 2,8 C 3,3 C 94 % 1022,9 hPa 0,0 l/m 15,8 km/h (3 Bft) SW 225 0 min 0,000 mm 0,0 UV-I 0 W/m 1,9 C -4,0 C 22,5 km/h (4 Bft) 98,11 %
23.01.2018 07:20 2,7 C 3,3 C 93 % 1023,0 hPa 0,0 l/m 13,9 km/h (3 Bft) SW 215 0 min 0,000 mm 0,0 UV-I 0 W/m 1,7 C -3,1 C 19,3 km/h (3 Bft) 100,00 %
23.01.2018 07:22 2,7 C 3,3 C 93 % 1023,0 hPa 0,0 l/m 12,2 km/h (2 Bft) W-SW 241 0 min 0,000 mm 0,0 UV-I 0 W/m 1,7 C -2,0 C 17,7 km/h (3 Bft) 100,00 %
23.01.2018 07:24 2,7 C 3,3 C 93 % 1023,1 hPa 0,0 l/m 13,8 km/h (3 Bft) SW 221 0 min 0,000 mm 0,0 UV-I 0 W/m 1,7 C -3,0 C 20,9 km/h (4 Bft) 100,00 %
23.01.2018 07:26 2,7 C 3,3 C 94 % 1023,2 hPa 0,2 l/m 15,6 km/h (3 Bft) SW 224 0 min 0,000 mm 0,0 UV-I 0 W/m 1,8 C -4,0 C 22,5 km/h (4 Bft) 100,00 %
23.01.2018 07:28 2,7 C 3,3 C 94 % 1023,2 hPa 0,0 l/m 15,8 km/h (3 Bft) SW 221 0 min 0,000 mm 0,0 UV-I 0 W/m 1,8 C -4,1 C 20,9 km/h (4 Bft) 100,00 %
23.01.2018 07:30 2,7 C 3,3 C 93 % 1023,2 hPa 0,0 l/m 14,3 km/h (3 Bft) W-SW 250 0 min 0,000 mm 0,0 UV-I 0 W/m 1,7 C -3,3 C 20,9 km/h (4 Bft) 96,00 %
23.01.2018 07:32 2,8 C 3,3 C 93 % 1023,3 hPa 0,0 l/m 13,9 km/h (3 Bft) SW 215 0 min 0,000 mm 0,0 UV-I 0 W/m 1,8 C -3,0 C 17,7 km/h (3 Bft) 95,45 %
23.01.2018 07:34 2,7 C 3,3 C 93 % 1023,3 hPa 0,0 l/m 15,3 km/h (3 Bft) SW 233 0 min 0,000 mm 0,0 UV-I 0 W/m 1,7 C -3,9 C 19,3 km/h (3 Bft) 96,00 %
23.01.2018 07:36 2,7 C 3,3 C 93 % 1023,3 hPa 0,2 l/m 13,2 km/h (3 Bft) W-SW 240 0 min 0,000 mm 0,0 UV-I 0 W/m 1,7 C -2,7 C 17,7 km/h (3 Bft) 94,87 %
23.01.2018 07:38 2,7 C 3,3 C 93 % 1023,4 hPa 0,0 l/m 14,8 km/h (3 Bft) SW 234 0 min 0,000 mm 0,0 UV-I 0 W/m 1,7 C -3,6 C 20,9 km/h (4 Bft) 94,00 %
23.01.2018 07:40 2,7 C 3,3 C 93 % 1023,4 hPa 0,0 l/m 16,1 km/h (3 Bft) SW 217 0 min 0,000 mm 0,0 UV-I 0 W/m 1,7 C -4,3 C 22,5 km/h (4 Bft) 92,00 %
23.01.2018 07:42 2,7 C 3,3 C 93 % 1023,5 hPa 0,0 l/m 15,1 km/h (3 Bft) SW 228 0 min 0,000 mm 0,0 UV-I 3 W/m 1,7 C -3,8 C 20,9 km/h (4 Bft) 92,31 %
23.01.2018 07:44 2,7 C 3,3 C 93 % 1023,5 hPa 0,0 l/m 15,8 km/h (3 Bft) SW 233 0 min 0,000 mm 0,0 UV-I 5 W/m 1,7 C -4,1 C 20,9 km/h (4 Bft) 94,87 %
23.01.2018 07:46 2,7 C 3,3 C 93 % 1023,6 hPa 0,0 l/m 11,6 km/h (2 Bft) W-SW 255 0 min 0,000 mm 0,0 UV-I 5 W/m 1,7 C -1,6 C 17,7 km/h (3 Bft) 94,34 %
23.01.2018 07:48 2,7 C 3,3 C 93 % 1023,6 hPa 0,0 l/m 14,9 km/h (3 Bft) W-SW 240 0 min 0,000 mm 0,0 UV-I 5 W/m 1,7 C -3,7 C 24,1 km/h (4 Bft) 95,45 %
23.01.2018 07:50 2,7 C 3,3 C 93 % 1023,7 hPa 0,0 l/m 12,2 km/h (2 Bft) W-SW 249 0 min 0,000 mm 0,0 UV-I 5 W/m 1,7 C -2,0 C 19,3 km/h (3 Bft) 94,74 %
23.01.2018 07:52 2,7 C 3,3 C 93 % 1023,8 hPa 0,2 l/m 14,3 km/h (3 Bft) W-SW 255 0 min 0,000 mm 0,0 UV-I 5 W/m 1,7 C -3,3 C 22,5 km/h (4 Bft) 96,00 %
23.01.2018 07:54 2,7 C 3,3 C 93 % 1023,8 hPa 0,0 l/m 12,7 km/h (3 Bft) W 263 0 min 0,000 mm 0,0 UV-I 7 W/m 1,7 C -2,3 C 19,3 km/h (3 Bft) 94,00 %
23.01.2018 07:56 2,7 C 3,3 C 93 % 1023,8 hPa 0,0 l/m 13,6 km/h (3 Bft) W-SW 243 0 min 0,000 mm 0,0 UV-I 7 W/m 1,7 C -2,9 C 17,7 km/h (3 Bft) 94,00 %
23.01.2018 07:58 2,7 C 3,3 C 94 % 1023,9 hPa 0,0 l/m 13,2 km/h (3 Bft) SW 230 0 min 0,000 mm 0,0 UV-I 7 W/m 1,8 C -2,7 C 17,7 km/h (3 Bft) 94,00 %
23.01.2018 08:00 2,7 C 3,3 C 93 % 1023,8 hPa 0,2 l/m 12,3 km/h (3 Bft) SW 223 0 min 0,000 mm 0,0 UV-I 7 W/m 1,7 C -2,1 C 20,9 km/h (4 Bft) 95,45 %
23.01.2018 08:02 2,7 C 3,3 C 93 % 1024,0 hPa 0,0 l/m 12,3 km/h (3 Bft) W 273 0 min 0,000 mm 0,0 UV-I 7 W/m 1,7 C -2,1 C 16,1 km/h (3 Bft) 95,12 %
23.01.2018 08:04 2,7 C 3,3 C 93 % 1023,9 hPa 0,0 l/m 12,1 km/h (2 Bft) SW 214 0 min 0,000 mm 0,0 UV-I 8 W/m 1,7 C -2,0 C 17,7 km/h (3 Bft) 94,00 %
23.01.2018 08:06 2,7 C 3,3 C 94 % 1024,0 hPa 0,0 l/m 13,3 km/h (3 Bft) SW 222 0 min 0,000 mm 0,0 UV-I 9 W/m 1,8 C -2,7 C 17,7 km/h (3 Bft) 96,00 %
23.01.2018 08:08 2,8 C 3,3 C 93 % 1024,1 hPa 0,0 l/m 11,2 km/h (2 Bft) W-SW 253 0 min 0,000 mm 0,0 UV-I 9 W/m 1,8 C -1,2 C 16,1 km/h (3 Bft) 94,00 %
23.01.2018 08:10 2,8 C 3,3 C 93 % 1024,1 hPa 0,0 l/m 13,0 km/h (3 Bft) W-SW 251 0 min 0,000 mm 0,0 UV-I 10 W/m 1,8 C -2,4 C 17,7 km/h (3 Bft) 95,74 %
23.01.2018 08:12 2,8 C 3,3 C 93 % 1024,2 hPa 0,0 l/m 11,0 km/h (2 Bft) SW 232 0 min 0,000 mm 0,0 UV-I 12 W/m 1,8 C -1,1 C 16,1 km/h (3 Bft) 95,12 %
23.01.2018 08:14 2,7 C 3,3 C 93 % 1024,2 hPa 0,2 l/m 11,9 km/h (2 Bft) W-SW 250 0 min 0,000 mm 0,0 UV-I 12 W/m 1,7 C -1,8 C 16,1 km/h (3 Bft) 94,34 %
23.01.2018 08:16 2,7 C 3,3 C 94 % 1024,2 hPa 0,0 l/m 11,3 km/h (2 Bft) W 273 0 min 0,000 mm 0,0 UV-I 12 W/m 1,8 C -1,4 C 14,5 km/h (3 Bft) 97,44 %
23.01.2018 08:18 2,7 C 3,3 C 94 % 1024,3 hPa 0,0 l/m 12,6 km/h (3 Bft) SW 221 0 min 0,000 mm 0,0 UV-I 12 W/m 1,8 C -2,3 C 16,1 km/h (3 Bft) 97,56 %
23.01.2018 08:20 2,8 C 3,3 C 94 % 1024,3 hPa 0,0 l/m 14,9 km/h (3 Bft) SW 224 0 min 0,000 mm 0,0 UV-I 12 W/m 1,9 C -3,5 C 19,3 km/h (3 Bft) 97,87 %
23.01.2018 08:22 2,8 C 3,3 C 94 % 1024,4 hPa 0,0 l/m 10,5 km/h (2 Bft) SW 234 0 min 0,000 mm 0,0 UV-I 12 W/m 1,9 C -0,7 C 16,1 km/h (3 Bft) 96,43 %
23.01.2018 08:24 2,8 C 3,3 C 94 % 1024,5 hPa 0,2 l/m 11,7 km/h (2 Bft) SW 232 0 min 0,000 mm 0,0 UV-I 12 W/m 1,9 C -1,6 C 17,7 km/h (3 Bft) 93,18 %
23.01.2018 08:26 2,8 C 3,3 C 94 % 1024,6 hPa 0,0 l/m 11,2 km/h (2 Bft) W-SW 246 0 min 0,000 mm 0,0 UV-I 11 W/m 1,9 C -1,2 C 16,1 km/h (3 Bft) 98,00 %
23.01.2018 08:28 2,8 C 3,3 C 94 % 1024,6 hPa 0,0 l/m 7,9 km/h (2 Bft) SW 227 0 min 0,000 mm 0,0 UV-I 11 W/m 1,9 C 1,4 C 12,9 km/h (3 Bft) 97,87 %
23.01.2018 08:30 2,8 C 3,3 C 93 % 1024,6 hPa 0,0 l/m 12,1 km/h (2 Bft) SW 230 0 min 0,000 mm 0,0 UV-I 11 W/m 1,8 C -1,8 C 17,7 km/h (3 Bft) 97,56 %
23.01.2018 08:32 2,7 C 3,3 C 93 % 1024,7 hPa 0,0 l/m 10,1 km/h (2 Bft) SW 232 0 min 0,000 mm 0,0 UV-I 11 W/m 1,7 C -0,5 C 14,5 km/h (3 Bft) 98,25 %
23.01.2018 08:34 2,7 C 3,3 C 94 % 1024,7 hPa 0,0 l/m 11,2 km/h (2 Bft) SW 233 0 min 0,000 mm 0,0 UV-I 11 W/m 1,8 C -1,3 C 16,1 km/h (3 Bft) 97,56 %
23.01.2018 08:36 2,7 C 3,3 C 94 % 1024,7 hPa 0,0 l/m 8,5 km/h (2 Bft) W-SW 243 0 min 0,000 mm 0,0 UV-I 12 W/m 1,8 C 0,7 C 11,3 km/h (2 Bft) 97,73 %
23.01.2018 08:38 2,7 C 3,3 C 94 % 1024,8 hPa 0,2 l/m 9,8 km/h (2 Bft) SW 236 0 min 0,000 mm 0,0 UV-I 13 W/m 1,8 C -0,3 C 12,9 km/h (3 Bft) 96,00 %
23.01.2018 08:40 2,7 C 3,3 C 94 % 1024,8 hPa 0,0 l/m 9,3 km/h (2 Bft) W-SW 238 0 min 0,000 mm 0,0 UV-I 14 W/m 1,8 C 0,1 C 12,9 km/h (3 Bft) 95,74 %
23.01.2018 08:42 2,7 C 3,3 C 94 % 1024,8 hPa 0,0 l/m 7,9 km/h (2 Bft) S-SW 211 0 min 0,000 mm 0,0 UV-I 16 W/m 1,8 C 1,3 C 12,9 km/h (3 Bft) 97,37 %
23.01.2018 08:44 2,6 C 3,3 C 94 % 1024,9 hPa 0,0 l/m 6,1 km/h (2 Bft) SW 228 0 min 0,000 mm 0,0 UV-I 16 W/m 1,7 C 2,6 C 11,3 km/h (2 Bft) 96,23 %
23.01.2018 08:46 2,7 C 3,3 C 94 % 1025,0 hPa 0,0 l/m 7,0 km/h (2 Bft) SW 230 0 min 0,000 mm 0,0 UV-I 17 W/m 1,8 C 2,1 C 9,7 km/h (2 Bft) 97,73 %
23.01.2018 08:48 2,7 C 3,3 C 94 % 1025,0 hPa 0,0 l/m 9,3 km/h (2 Bft) SW 221 0 min 0,000 mm 0,0 UV-I 17 W/m 1,8 C 0,1 C 14,5 km/h (3 Bft) 98,21 %
23.01.2018 08:50 2,7 C 3,3 C 94 % 1025,1 hPa 0,0 l/m 7,8 km/h (2 Bft) W-SW 242 0 min 0,000 mm 0,0 UV-I 18 W/m 1,8 C 1,4 C 12,9 km/h (3 Bft) 94,74 %
23.01.2018 08:52 2,6 C 3,3 C 94 % 1025,1 hPa 0,2 l/m 8,6 km/h (2 Bft) SW 229 0 min 0,000 mm 0,0 UV-I 19 W/m 1,7 C 0,6 C 12,9 km/h (3 Bft) 98,11 %
23.01.2018 08:54 2,6 C 3,3 C 94 % 1025,1 hPa 0,0 l/m 7,9 km/h (2 Bft) S-SW 205 0 min 0,000 mm 0,0 UV-I 21 W/m 1,7 C 1,2 C 14,5 km/h (3 Bft) 95,56 %
23.01.2018 08:56 2,7 C 3,3 C 94 % 1025,1 hPa 0,0 l/m 9,7 km/h (2 Bft) SW 221 0 min 0,000 mm 0,0 UV-I 19 W/m 1,8 C -0,2 C 14,5 km/h (3 Bft) 96,15 %
23.01.2018 08:58 2,7 C 3,3 C 94 % 1025,1 hPa 0,0 l/m 9,5 km/h (2 Bft) SW 231 0 min 0,000 mm 0,0 UV-I 19 W/m 1,8 C -0,1 C 14,5 km/h (3 Bft) 96,67 %
23.01.2018 09:00 2,7 C 3,3 C 94 % 1025,2 hPa 0,0 l/m 9,7 km/h (2 Bft) W-SW 238 0 min 0,000 mm 0,0 UV-I 23 W/m 1,8 C -0,2 C 14,5 km/h (3 Bft) 96,61 %
23.01.2018 09:02 2,7 C 3,3 C 94 % 1025,2 hPa 0,0 l/m 9,1 km/h (2 Bft) SW 231 0 min 0,000 mm 0,0 UV-I 26 W/m 1,8 C 0,2 C 14,5 km/h (3 Bft) 97,56 %
23.01.2018 09:04 2,6 C 3,3 C 94 % 1025,2 hPa 0,0 l/m 8,2 km/h (2 Bft) W-SW 243 0 min 0,000 mm 0,0 UV-I 27 W/m 1,7 C 0,9 C 11,3 km/h (2 Bft) 98,00 %
23.01.2018 09:06 2,6 C 3,3 C 94 % 1025,2 hPa 0,2 l/m 9,3 km/h (2 Bft) W-SW 244 0 min 0,000 mm 0,0 UV-I 25 W/m 1,7 C -0,0 C 12,9 km/h (3 Bft) 100,00 %
23.01.2018 09:08 2,6 C 3,3 C 95 % 1025,3 hPa 0,0 l/m 9,1 km/h (2 Bft) W-SW 247 0 min 0,000 mm 0,0 UV-I 30 W/m 1,9 C 0,1 C 16,1 km/h (3 Bft) 96,23 %
23.01.2018 09:10 2,6 C 3,3 C 95 % 1025,3 hPa 0,0 l/m 8,8 km/h (2 Bft) SW 229 0 min 0,000 mm 0,0 UV-I 33 W/m 1,9 C 0,4 C 12,9 km/h (3 Bft) 100,00 %
23.01.2018 09:12 2,6 C 3,3 C 95 % 1025,4 hPa 0,0 l/m 9,3 km/h (2 Bft) S-SW 211 0 min 0,000 mm 0,0 UV-I 33 W/m 1,9 C -0,0 C 14,5 km/h (3 Bft) 100,00 %
23.01.2018 09:14 2,6 C 3,3 C 95 % 1025,4 hPa 0,2 l/m 9,9 km/h (2 Bft) SW 223 0 min 0,000 mm 0,0 UV-I 32 W/m 1,9 C -0,5 C 12,9 km/h (3 Bft) 100,00 %
23.01.2018 09:16 2,6 C 3,3 C 95 % 1025,4 hPa 0,0 l/m 10,6 km/h (2 Bft) SW 234 0 min 0,000 mm 0,0 UV-I 34 W/m 1,9 C -1,0 C 16,1 km/h (3 Bft) 98,00 %
23.01.2018 09:18 2,6 C 3,3 C 95 % 1025,4 hPa 0,0 l/m 10,8 km/h (2 Bft) SW 214 0 min 0,000 mm 0,0 UV-I 38 W/m 1,9 C -1,2 C 19,3 km/h (3 Bft) 100,00 %
23.01.2018 09:20 2,6 C 3,3 C 95 % 1025,4 hPa 0,0 l/m 9,5 km/h (2 Bft) S 191 0 min 0,000 mm 0,0 UV-I 43 W/m 1,9 C -0,2 C 14,5 km/h (3 Bft) 100,00 %
23.01.2018 09:22 2,6 C 3,3 C 95 % 1025,4 hPa 0,0 l/m 8,8 km/h (2 Bft) SW 223 0 min 0,000 mm 0,0 UV-I 47 W/m 1,9 C 0,4 C 16,1 km/h (3 Bft) 100,00 %
23.01.2018 09:24 2,6 C 3,3 C 95 % 1025,4 hPa 0,2 l/m 8,8 km/h (2 Bft) SW 232 0 min 0,000 mm 0,0 UV-I 49 W/m 1,9 C 0,4 C 16,1 km/h (3 Bft) 94,34 %
23.01.2018 09:26 2,6 C 3,3 C 95 % 1025,5 hPa 0,0 l/m 9,4 km/h (2 Bft) SW 227 0 min 0,000 mm 0,0 UV-I 52 W/m 1,9 C -0,1 C 14,5 km/h (3 Bft) 100,00 %
23.01.2018 09:28 2,6 C 3,3 C 95 % 1025,5 hPa 0,0 l/m 7,6 km/h (2 Bft) SW 216 0 min 0,000 mm 0,0 UV-I 55 W/m 1,9 C 1,5 C 12,9 km/h (3 Bft) 100,00 %
23.01.2018 09:30 2,6 C 3,3 C 95 % 1025,5 hPa 0,0 l/m 8,9 km/h (2 Bft) SW 230 0 min 0,000 mm 0,0 UV-I 52 W/m 1,9 C 0,3 C 14,5 km/h (3 Bft) 100,00 %
23.01.2018 09:32 2,6 C 3,3 C 95 % 1025,5 hPa 0,0 l/m 9,7 km/h (2 Bft) SW 226 0 min 0,000 mm 0,0 UV-I 49 W/m 1,9 C -0,3 C 14,5 km/h (3 Bft) 100,00 %
23.01.2018 09:34 2,5 C 3,3 C 95 % 1025,6 hPa 0,0 l/m 9,9 km/h (2 Bft) SW 215 0 min 0,000 mm 0,0 UV-I 44 W/m 1,8 C -0,6 C 14,5 km/h (3 Bft) 100,00 %
23.01.2018 09:36 2,5 C 3,3 C 95 % 1025,6 hPa 0,2 l/m 8,6 km/h (2 Bft) SW 229 0 min 0,000 mm 0,0 UV-I 44 W/m 1,8 C 0,4 C 11,3 km/h (2 Bft) 98,11 %
23.01.2018 09:38 2,6 C 3,3 C 95 % 1025,6 hPa 0,0 l/m 11,0 km/h (2 Bft) W 260 0 min 0,000 mm 0,0 UV-I 46 W/m 1,9 C -1,3 C 14,5 km/h (3 Bft) 97,73 %
23.01.2018 09:40 2,6 C 3,3 C 95 % 1025,7 hPa 0,0 l/m 9,4 km/h (2 Bft) SW 236 0 min 0,000 mm 0,0 UV-I 42 W/m 1,9 C -0,1 C 16,1 km/h (3 Bft) 100,00 %
23.01.2018 09:42 2,6 C 3,3 C 95 % 1025,7 hPa 0,0 l/m 10,8 km/h (2 Bft) S-SW 213 0 min 0,000 mm 0,0 UV-I 36 W/m 1,9 C -1,2 C 17,7 km/h (3 Bft) 95,65 %
23.01.2018 09:44 2,5 C 3,3 C 95 % 1025,7 hPa 0,0 l/m 11,1 km/h (2 Bft) W-SW 239 0 min 0,000 mm 0,0 UV-I 36 W/m 1,8 C -1,5 C 17,7 km/h (3 Bft) 94,12 %
23.01.2018 09:46 2,5 C 3,3 C 95 % 1025,7 hPa 0,0 l/m 11,5 km/h (2 Bft) SW 220 0 min 0,000 mm 0,0 UV-I 40 W/m 1,8 C -1,8 C 19,3 km/h (3 Bft) 95,74 %
23.01.2018 09:48 2,5 C 3,3 C 95 % 1025,7 hPa 0,2 l/m 13,5 km/h (3 Bft) S-SW 204 0 min 0,000 mm 0,0 UV-I 48 W/m 1,8 C -3,1 C 17,7 km/h (3 Bft) 95,12 %
23.01.2018 09:50 2,5 C 3,3 C 95 % 1025,8 hPa 0,0 l/m 13,5 km/h (3 Bft) SW 232 0 min 0,000 mm 0,0 UV-I 48 W/m 1,8 C -3,1 C 19,3 km/h (3 Bft) 97,73 %
23.01.2018 09:52 2,6 C 3,3 C 95 % 1025,8 hPa 0,0 l/m 13,4 km/h (3 Bft) SW 235 0 min 0,000 mm 0,0 UV-I 49 W/m 1,9 C -2,9 C 20,9 km/h (4 Bft) 94,00 %
23.01.2018 09:54 2,5 C 3,3 C 95 % 1025,8 hPa 0,0 l/m 14,6 km/h (3 Bft) S-SW 212 0 min 0,000 mm 0,0 UV-I 38 W/m 1,8 C -3,7 C 20,9 km/h (4 Bft) 97,87 %
23.01.2018 09:56 2,5 C 3,3 C 95 % 1025,9 hPa 0,0 l/m 13,1 km/h (3 Bft) S-SW 198 0 min 0,000 mm 0,0 UV-I 33 W/m 1,8 C -2,8 C 17,7 km/h (3 Bft) 96,00 %
23.01.2018 09:58 2,5 C 3,3 C 95 % 1026,0 hPa 0,2 l/m 14,0 km/h (3 Bft) SW 227 0 min 0,000 mm 0,0 UV-I 35 W/m 1,8 C -3,4 C 20,9 km/h (4 Bft) 95,74 %
23.01.2018 10:00 2,5 C 3,3 C 95 % 1025,9 hPa 0,0 l/m 11,3 km/h (2 Bft) SW 226 0 min 0,025 mm 0,0 UV-I 36 W/m 1,8 C -1,6 C 16,1 km/h (3 Bft) 96,23 %
23.01.2018 10:02 2,5 C 3,3 C 95 % 1026,0 hPa 0,0 l/m 13,5 km/h (3 Bft) SW 232 0 min 0,000 mm 0,0 UV-I 35 W/m 1,8 C -3,1 C 16,1 km/h (3 Bft) 97,56 %
23.01.2018 10:04 2,5 C 3,3 C 95 % 1026,0 hPa 0,0 l/m 12,0 km/h (2 Bft) SW 232 0 min 0,000 mm 0,0 UV-I 39 W/m 1,8 C -2,1 C 17,7 km/h (3 Bft) 98,00 %
23.01.2018 10:06 2,5 C 3,3 C 95 % 1026,0 hPa 0,2 l/m 12,0 km/h (2 Bft) SW 236 0 min 0,000 mm 0,0 UV-I 40 W/m 1,8 C -2,1 C 16,1 km/h (3 Bft) 95,12 %
23.01.2018 10:08 2,5 C 3,3 C 96 % 1025,9 hPa 0,0 l/m 13,1 km/h (3 Bft) SW 226 0 min 0,000 mm 0,0 UV-I 43 W/m 1,9 C -2,8 C 17,7 km/h (3 Bft) 98,00 %
23.01.2018 10:10 2,5 C 3,3 C 96 % 1026,0 hPa 0,0 l/m 13,2 km/h (3 Bft) SW 220 0 min 0,000 mm 0,0 UV-I 47 W/m 1,9 C -2,9 C 17,7 km/h (3 Bft) 98,00 %
23.01.2018 10:12 2,5 C 3,3 C 96 % 1026,0 hPa 0,2 l/m 11,2 km/h (2 Bft) SW 222 0 min 0,000 mm 0,0 UV-I 56 W/m 1,9 C -1,6 C 16,1 km/h (3 Bft) 95,74 %
23.01.2018 10:14 2,5 C 3,3 C 96 % 1026,1 hPa 0,0 l/m 12,0 km/h (2 Bft) SW 232 0 min 0,000 mm 0,0 UV-I 66 W/m 1,9 C -2,1 C 17,7 km/h (3 Bft) 97,62 %
23.01.2018 10:16 2,5 C 3,3 C 96 % 1026,1 hPa 0,0 l/m 13,3 km/h (3 Bft) SW 229 0 min 0,000 mm 0,0 UV-I 71 W/m 1,9 C -3,0 C 17,7 km/h (3 Bft) 98,00 %
23.01.2018 10:18 2,5 C 3,3 C 96 % 1026,0 hPa 0,0 l/m 13,0 km/h (3 Bft) W-SW 244 0 min 0,000 mm 0,0 UV-I 76 W/m 1,9 C -2,8 C 19,3 km/h (3 Bft) 97,73 %
23.01.2018 10:20 2,5 C 3,3 C 96 % 1026,0 hPa 0,0 l/m 12,2 km/h (2 Bft) W-SW 243 0 min 0,000 mm 0,0 UV-I 76 W/m 1,9 C -2,3 C 17,7 km/h (3 Bft) 98,00 %
23.01.2018 10:22 2,6 C 3,3 C 96 % 1026,0 hPa 0,2 l/m 10,1 km/h (2 Bft) SW 221 0 min 0,000 mm 0,0 UV-I 71 W/m 2,0 C -0,7 C 16,1 km/h (3 Bft) 100,00 %
23.01.2018 10:24 2,6 C 3,3 C 96 % 1026,1 hPa 0,0 l/m 12,1 km/h (2 Bft) SW 236 0 min 0,000 mm 0,0 UV-I 77 W/m 2,0 C -2,1 C 17,7 km/h (3 Bft) 97,56 %
23.01.2018 10:26 2,6 C 3,3 C 96 % 1026,1 hPa 0,0 l/m 9,9 km/h (2 Bft) W-SW 244 0 min 0,000 mm 0,0 UV-I 77 W/m 2,0 C -0,5 C 14,5 km/h (3 Bft) 100,00 %
23.01.2018 10:28 2,6 C 3,3 C 96 % 1026,2 hPa 0,0 l/m 12,8 km/h (3 Bft) W-SW 241 0 min 0,000 mm 0,0 UV-I 72 W/m 2,0 C -2,5 C 19,3 km/h (3 Bft) 100,00 %
23.01.2018 10:30 2,6 C 3,3 C 95 % 1026,2 hPa 0,2 l/m 13,8 km/h (3 Bft) W-SW 254 0 min 0,000 mm 0,0 UV-I 64 W/m 1,9 C -3,1 C 17,7 km/h (3 Bft) 97,56 %
23.01.2018 10:32 2,7 C 3,3 C 95 % 1026,2 hPa 0,0 l/m 11,4 km/h (2 Bft) W-SW 239 0 min 0,000 mm 0,0 UV-I 68 W/m 2,0 C -1,5 C 14,5 km/h (3 Bft) 100,00 %
23.01.2018 10:34 2,7 C 3,3 C 95 % 1026,3 hPa 0,0 l/m 11,1 km/h (2 Bft) W-SW 246 0 min 0,000 mm 0,0 UV-I 75 W/m 2,0 C -1,3 C 19,3 km/h (3 Bft) 100,00 %
23.01.2018 10:36 2,8 C 3,3 C 95 % 1026,3 hPa 0,0 l/m 10,0 km/h (2 Bft) W-SW 252 0 min 0,000 mm 0,0 UV-I 84 W/m 2,1 C -0,4 C 16,1 km/h (3 Bft) 100,00 %
23.01.2018 10:38 2,8 C 3,3 C 95 % 1026,3 hPa 0,0 l/m 12,0 km/h (2 Bft) W-SW 245 0 min 0,000 mm 0,0 UV-I 96 W/m 2,1 C -1,8 C 14,5 km/h (3 Bft) 100,00 %
23.01.2018 10:40 2,8 C 3,3 C 95 % 1026,4 hPa 0,2 l/m 12,3 km/h (3 Bft) SW 218 0 min 0,000 mm 0,0 UV-I 112 W/m 2,1 C -2,0 C 17,7 km/h (3 Bft) 98,00 %
23.01.2018 10:42 2,8 C 3,3 C 95 % 1026,4 hPa 0,0 l/m 12,4 km/h (3 Bft) SW 219 0 min 0,000 mm 0,0 UV-I 124 W/m 2,1 C -2,0 C 16,1 km/h (3 Bft) 100,00 %
23.01.2018 10:44 2,8 C 3,3 C 95 % 1026,4 hPa 0,0 l/m 10,5 km/h (2 Bft) SW 230 0 min 0,000 mm 0,0 UV-I 124 W/m 2,1 C -0,7 C 16,1 km/h (3 Bft) 100,00 %
23.01.2018 10:46 2,9 C 3,3 C 95 % 1026,4 hPa 0,2 l/m 13,0 km/h (3 Bft) SW 225 0 min 0,000 mm 0,0 UV-I 126 W/m 2,2 C -2,3 C 17,7 km/h (3 Bft) 100,00 %
23.01.2018 10:48 2,9 C 3,3 C 95 % 1026,4 hPa 0,0 l/m 11,8 km/h (2 Bft) W-SW 237 0 min 0,000 mm 0,0 UV-I 119 W/m 2,2 C -1,5 C 17,7 km/h (3 Bft) 100,00 %
23.01.2018 10:50 2,9 C 3,3 C 95 % 1026,4 hPa 0,0 l/m 13,4 km/h (3 Bft) SW 225 0 min 0,000 mm 0,3 UV-I 125 W/m 2,2 C -2,5 C 24,1 km/h (4 Bft) 98,11 %
23.01.2018 10:52 3,0 C 3,3 C 95 % 1026,4 hPa 0,0 l/m 10,5 km/h (2 Bft) W-SW 241 0 min 0,000 mm 0,5 UV-I 132 W/m 2,3 C -0,5 C 16,1 km/h (3 Bft) 100,00 %
23.01.2018 10:54 2,9 C 3,3 C 95 % 1026,4 hPa 0,0 l/m 11,2 km/h (2 Bft) SW 219 0 min 0,000 mm 0,5 UV-I 132 W/m 2,2 C -1,1 C 19,3 km/h (3 Bft) 96,00 %
23.01.2018 10:56 3,0 C 3,3 C 94 % 1026,4 hPa 0,2 l/m 14,1 km/h (3 Bft) SW 236 0 min 0,000 mm 0,5 UV-I 140 W/m 2,1 C -2,8 C 19,3 km/h (3 Bft) 100,00 %
23.01.2018 10:58 3,0 C 3,3 C 94 % 1026,4 hPa 0,0 l/m 14,1 km/h (3 Bft) SW 233 0 min 0,000 mm 0,5 UV-I 153 W/m 2,1 C -2,8 C 19,3 km/h (3 Bft) 100,00 %
23.01.2018 11:00 3,1 C 3,3 C 94 % 1026,4 hPa 0,0 l/m 11,8 km/h (2 Bft) SW 228 0 min 0,026 mm 0,5 UV-I 159 W/m 2,2 C -1,3 C 16,1 km/h (3 Bft) 98,21 %
23.01.2018 11:02 3,1 C 3,3 C 94 % 1026,4 hPa 0,0 l/m 13,2 km/h (3 Bft) W-SW 237 0 min 0,000 mm 0,5 UV-I 167 W/m 2,2 C -2,2 C 19,3 km/h (3 Bft) 100,00 %
23.01.2018 11:04 3,1 C 3,3 C 94 % 1026,5 hPa 0,2 l/m 13,4 km/h (3 Bft) W-SW 240 0 min 0,000 mm 0,5 UV-I 160 W/m 2,2 C -2,3 C 19,3 km/h (3 Bft) 100,00 %
23.01.2018 11:06 3,2 C 3,3 C 95 % 1026,4 hPa 0,0 l/m 15,1 km/h (3 Bft) SW 230 0 min 0,000 mm 0,5 UV-I 171 W/m 2,5 C -3,2 C 20,9 km/h (4 Bft) 100,00 %
23.01.2018 11:08 3,2 C 3,3 C 94 % 1026,4 hPa 0,0 l/m 15,6 km/h (3 Bft) S-SW 212 0 min 0,000 mm 0,5 UV-I 168 W/m 2,3 C -3,4 C 22,5 km/h (4 Bft) 100,00 %
23.01.2018 11:10 3,2 C 3,3 C 94 % 1026,4 hPa 0,2 l/m 14,3 km/h (3 Bft) SW 230 0 min 0,000 mm 0,3 UV-I 151 W/m 2,3 C -2,7 C 20,9 km/h (4 Bft) 100,00 %
23.01.2018 11:12 3,2 C 3,3 C 94 % 1026,5 hPa 0,0 l/m 12,8 km/h (3 Bft) SW 229 0 min 0,000 mm 0,0 UV-I 126 W/m 2,3 C -1,8 C 16,1 km/h (3 Bft) 100,00 %
23.01.2018 11:14 3,2 C 3,3 C 94 % 1026,5 hPa 0,0 l/m 13,5 km/h (3 Bft) W 270 0 min 0,000 mm 0,0 UV-I 112 W/m 2,3 C -2,3 C 17,7 km/h (3 Bft) 98,11 %
23.01.2018 11:16 3,2 C 3,3 C 94 % 1026,5 hPa 0,2 l/m 14,0 km/h (3 Bft) SW 220 0 min 0,000 mm 0,0 UV-I 93 W/m 2,3 C -2,5 C 20,9 km/h (4 Bft) 100,00 %
23.01.2018 11:18 3,2 C 3,3 C 94 % 1026,6 hPa 0,0 l/m 12,9 km/h (3 Bft) SW 231 0 min 0,000 mm 0,0 UV-I 73 W/m 2,3 C -1,9 C 19,3 km/h (3 Bft) 100,00 %
23.01.2018 11:20 3,2 C 3,3 C 94 % 1026,6 hPa 0,0 l/m 15,9 km/h (3 Bft) SW 230 0 min 0,000 mm 0,0 UV-I 66 W/m 2,3 C -3,6 C 22,5 km/h (4 Bft) 100,00 %
23.01.2018 11:22 3,2 C 3,3 C 94 % 1026,5 hPa 0,0 l/m 12,1 km/h (2 Bft) W-SW 242 0 min 0,000 mm 0,0 UV-I 60 W/m 2,3 C -1,4 C 19,3 km/h (3 Bft) 100,00 %
23.01.2018 11:24 3,2 C 3,3 C 94 % 1026,6 hPa 0,2 l/m 10,8 km/h (2 Bft) SW 232 0 min 0,000 mm 0,0 UV-I 67 W/m 2,3 C -0,5 C 16,1 km/h (3 Bft) 100,00 %
23.01.2018 11:26 3,3 C 3,3 C 94 % 1026,7 hPa 0,0 l/m 10,9 km/h (2 Bft) W-SW 246 0 min 0,000 mm 0,0 UV-I 63 W/m 2,4 C -0,5 C 14,5 km/h (3 Bft) 100,00 %
23.01.2018 11:28 3,3 C 3,3 C 94 % 1026,7 hPa 0,0 l/m 11,6 km/h (2 Bft) SW 220 0 min 0,000 mm 0,0 UV-I 61 W/m 2,4 C -0,9 C 16,1 km/h (3 Bft) 100,00 %
23.01.2018 11:30 3,3 C 3,3 C 94 % 1026,7 hPa 0,0 l/m 10,6 km/h (2 Bft) SW 236 0 min 0,000 mm 0,0 UV-I 57 W/m 2,4 C -0,2 C 16,1 km/h (3 Bft) 97,22 %
23.01.2018 11:32 3,3 C 3,3 C 94 % 1026,7 hPa 0,2 l/m 9,3 km/h (2 Bft) SW 230 0 min 0,000 mm 0,0 UV-I 66 W/m 2,4 C 0,7 C 12,9 km/h (3 Bft) 100,00 %
23.01.2018 11:34 3,2 C 3,3 C 94 % 1026,6 hPa 0,0 l/m 8,9 km/h (2 Bft) SW 230 0 min 0,000 mm 0,0 UV-I 72 W/m 2,3 C 0,9 C 14,5 km/h (3 Bft) 100,00 %
23.01.2018 11:36 3,2 C 3,3 C 94 % 1026,6 hPa 0,0 l/m 12,5 km/h (3 Bft) SW 225 0 min 0,000 mm 0,0 UV-I 77 W/m 2,3 C -1,6 C 17,7 km/h (3 Bft) 98,00 %
23.01.2018 11:38 3,3 C 3,3 C 94 % 1026,7 hPa 0,0 l/m 9,8 km/h (2 Bft) SW 222 0 min 0,000 mm 0,0 UV-I 71 W/m 2,4 C 0,3 C 14,5 km/h (3 Bft) 97,14 %
23.01.2018 11:40 3,3 C 3,3 C 93 % 1026,7 hPa 0,0 l/m 9,5 km/h (2 Bft) SW 236 0 min 0,000 mm 0,0 UV-I 65 W/m 2,3 C 0,6 C 14,5 km/h (3 Bft) 100,00 %
23.01.2018 11:42 3,3 C 3,3 C 93 % 1026,7 hPa 0,2 l/m 7,4 km/h (2 Bft) W-SW 251 0 min 0,000 mm 0,0 UV-I 63 W/m 2,3 C 2,4 C 14,5 km/h (3 Bft) 100,00 %
23.01.2018 11:44 3,2 C 3,3 C 93 % 1026,7 hPa 0,0 l/m 8,5 km/h (2 Bft) W-SW 258 0 min 0,000 mm 0,0 UV-I 65 W/m 2,2 C 1,3 C 12,9 km/h (3 Bft) 100,00 %
23.01.2018 11:46 3,2 C 3,3 C 93 % 1026,7 hPa 0,0 l/m 8,4 km/h (2 Bft) S-SW 213 0 min 0,000 mm 0,0 UV-I 62 W/m 2,2 C 1,4 C 11,3 km/h (2 Bft) 100,00 %
23.01.2018 11:48 3,2 C 3,3 C 93 % 1026,7 hPa 0,0 l/m 8,5 km/h (2 Bft) W-SW 242 0 min 0,000 mm 0,0 UV-I 59 W/m 2,2 C 1,3 C 12,9 km/h (3 Bft) 93,62 %
23.01.2018 11:50 3,2 C 3,3 C 94 % 1026,7 hPa 0,0 l/m 7,7 km/h (2 Bft) W-SW 245 0 min 0,000 mm 0,0 UV-I 70 W/m 2,3 C 2,0 C 11,3 km/h (2 Bft) 97,87 %
23.01.2018 11:52 3,2 C 3,3 C 94 % 1026,8 hPa 0,2 l/m 9,2 km/h (2 Bft) W-SW 244 0 min 0,000 mm 0,0 UV-I 79 W/m 2,3 C 0,7 C 12,9 km/h (3 Bft) 97,56 %
23.01.2018 11:54 3,3 C 3,3 C 94 % 1026,8 hPa 0,0 l/m 14,7 km/h (3 Bft) SW 219 0 min 0,000 mm 0,0 UV-I 82 W/m 2,4 C -2,8 C 20,9 km/h (4 Bft) 97,56 %
23.01.2018 11:56 3,3 C 3,3 C 94 % 1026,9 hPa 0,0 l/m 11,1 km/h (2 Bft) W-SW 244 0 min 0,000 mm 0,0 UV-I 73 W/m 2,4 C -0,6 C 16,1 km/h (3 Bft) 98,11 %
23.01.2018 11:58 3,3 C 3,3 C 94 % 1026,9 hPa 0,0 l/m 12,2 km/h (2 Bft) W-SW 238 0 min 0,000 mm 0,0 UV-I 81 W/m 2,4 C -1,3 C 22,5 km/h (4 Bft) 97,44 %
23.01.2018 12:00 3,3 C 3,3 C 94 % 1026,8 hPa 0,0 l/m 13,3 km/h (3 Bft) SW 234 0 min 0,051 mm 0,0 UV-I 95 W/m 2,4 C -2,0 C 19,3 km/h (3 Bft) 98,00 %
23.01.2018 12:02 3,4 C 3,3 C 94 % 1026,8 hPa 0,0 l/m 13,4 km/h (3 Bft) W-SW 240 0 min 0,000 mm 0,0 UV-I 104 W/m 2,5 C -2,0 C 17,7 km/h (3 Bft) 97,87 %
23.01.2018 12:04 3,4 C 3,3 C 94 % 1026,9 hPa 0,2 l/m 12,3 km/h (3 Bft) W-SW 246 0 min 0,000 mm 0,0 UV-I 94 W/m 2,5 C -1,3 C 17,7 km/h (3 Bft) 96,00 %
23.01.2018 12:06 3,4 C 3,3 C 94 % 1026,9 hPa 0,0 l/m 12,0 km/h (2 Bft) SW 219 0 min 0,000 mm 0,0 UV-I 84 W/m 2,5 C -1,1 C 17,7 km/h (3 Bft) 95,12 %
23.01.2018 12:08 3,4 C 3,3 C 94 % 1026,9 hPa 0,0 l/m 11,9 km/h (2 Bft) W-SW 254 0 min 0,000 mm 0,0 UV-I 76 W/m 2,5 C -1,0 C 17,7 km/h (3 Bft) 98,21 %
23.01.2018 12:10 3,3 C 3,3 C 94 % 1027,0 hPa 0,2 l/m 10,2 km/h (2 Bft) SW 234 0 min 0,000 mm 0,0 UV-I 77 W/m 2,4 C 0,0 C 16,1 km/h (3 Bft) 95,12 %
23.01.2018 12:12 3,3 C 3,3 C 94 % 1027,0 hPa 0,0 l/m 12,7 km/h (3 Bft) W-SW 238 0 min 0,000 mm 0,0 UV-I 80 W/m 2,4 C -1,6 C 19,3 km/h (3 Bft) 96,00 %
23.01.2018 12:14 3,3 C 3,3 C 94 % 1027,0 hPa 0,0 l/m 11,7 km/h (2 Bft) W 273 0 min 0,000 mm 0,0 UV-I 77 W/m 2,4 C -1,0 C 16,1 km/h (3 Bft) 97,87 %
23.01.2018 12:16 3,3 C 3,3 C 94 % 1026,9 hPa 0,0 l/m 10,8 km/h (2 Bft) W-SW 237 0 min 0,000 mm 0,0 UV-I 82 W/m 2,4 C -0,4 C 19,3 km/h (3 Bft) 97,87 %
23.01.2018 12:18 3,3 C 3,3 C 94 % 1027,0 hPa 0,0 l/m 11,3 km/h (2 Bft) W-SW 239 0 min 0,000 mm 0,0 UV-I 84 W/m 2,4 C -0,7 C 16,1 km/h (3 Bft) 97,56 %
23.01.2018 12:20 3,3 C 3,3 C 94 % 1027,0 hPa 0,2 l/m 10,7 km/h (2 Bft) SW 218 0 min 0,000 mm 0,0 UV-I 70 W/m 2,4 C -0,3 C 16,1 km/h (3 Bft) 96,23 %
23.01.2018 12:22 3,3 C 3,3 C 94 % 1027,0 hPa 0,0 l/m 11,5 km/h (2 Bft) W-SW 242 0 min 0,000 mm 0,0 UV-I 59 W/m 2,4 C -0,9 C 17,7 km/h (3 Bft) 97,37 %
23.01.2018 12:24 3,3 C 3,3 C 94 % 1027,0 hPa 0,0 l/m 12,5 km/h (3 Bft) W-SW 244 0 min 0,000 mm 0,0 UV-I 52 W/m 2,4 C -1,5 C 19,3 km/h (3 Bft) 98,15 %
23.01.2018 12:26 3,3 C 3,3 C 94 % 1027,0 hPa 0,2 l/m 11,7 km/h (2 Bft) SW 232 0 min 0,000 mm 0,0 UV-I 52 W/m 2,4 C -1,0 C 17,7 km/h (3 Bft) 97,87 %
23.01.2018 12:28 3,4 C 3,3 C 94 % 1027,0 hPa 0,0 l/m 13,3 km/h (3 Bft) SW 214 0 min 0,000 mm 0,0 UV-I 54 W/m 2,5 C -1,9 C 17,7 km/h (3 Bft) 100,00 %
23.01.2018 12:30 3,4 C 3,3 C 94 % 1027,1 hPa 0,0 l/m 11,1 km/h (2 Bft) SW 233 0 min 0,000 mm 0,0 UV-I 55 W/m 2,5 C -0,5 C 17,7 km/h (3 Bft) 100,00 %
23.01.2018 12:32 3,3 C 3,3 C 94 % 1027,1 hPa 0,0 l/m 12,4 km/h (3 Bft) W-SW 254 0 min 0,000 mm 0,0 UV-I 59 W/m 2,4 C -1,5 C 16,1 km/h (3 Bft) 100,00 %
23.01.2018 12:34 3,3 C 3,3 C 94 % 1027,1 hPa 0,0 l/m 10,8 km/h (2 Bft) SW 236 0 min 0,000 mm 0,0 UV-I 62 W/m 2,4 C -0,4 C 16,1 km/h (3 Bft) 100,00 %
23.01.2018 12:36 3,3 C 3,3 C 94 % 1027,1 hPa 0,0 l/m 11,0 km/h (2 Bft) S-SW 212 0 min 0,000 mm 0,0 UV-I 58 W/m 2,4 C -0,5 C 17,7 km/h (3 Bft) 94,74 %
23.01.2018 12:38 3,3 C 3,3 C 94 % 1027,1 hPa 0,2 l/m 11,4 km/h (2 Bft) SW 216 0 min 0,000 mm 0,0 UV-I 55 W/m 2,4 C -0,8 C 16,1 km/h (3 Bft) 100,00 %
23.01.2018 12:40 3,3 C 3,3 C 94 % 1027,1 hPa 0,0 l/m 10,0 km/h (2 Bft) SW 231 0 min 0,000 mm 0,0 UV-I 61 W/m 2,4 C 0,2 C 14,5 km/h (3 Bft) 98,39 %
23.01.2018 12:42 3,3 C 3,3 C 94 % 1027,1 hPa 0,0 l/m 12,0 km/h (2 Bft) SW 229 0 min 0,000 mm 0,0 UV-I 70 W/m 2,4 C -1,2 C 17,7 km/h (3 Bft) 100,00 %
23.01.2018 12:44 3,3 C 3,3 C 94 % 1027,1 hPa 0,0 l/m 11,1 km/h (2 Bft) W-SW 244 0 min 0,000 mm 0,0 UV-I 79 W/m 2,4 C -0,6 C 17,7 km/h (3 Bft) 100,00 %
23.01.2018 12:46 3,4 C 3,3 C 94 % 1027,0 hPa 0,2 l/m 9,3 km/h (2 Bft) W-SW 256 0 min 0,000 mm 0,0 UV-I 92 W/m 2,5 C 0,8 C 14,5 km/h (3 Bft) 100,00 %
23.01.2018 12:48 3,4 C 3,3 C 94 % 1027,0 hPa 0,0 l/m 8,0 km/h (2 Bft) SW 226 0 min 0,000 mm 0,0 UV-I 100 W/m 2,5 C 1,9 C 14,5 km/h (3 Bft) 96,23 %
23.01.2018 12:50 3,4 C 3,3 C 94 % 1027,0 hPa 0,0 l/m 9,4 km/h (2 Bft) W-SW 244 0 min 0,000 mm 0,0 UV-I 105 W/m 2,5 C 0,8 C 12,9 km/h (3 Bft) 97,56 %
23.01.2018 12:52 3,4 C 3,3 C 94 % 1027,0 hPa 0,0 l/m 7,4 km/h (2 Bft) SW 227 0 min 0,000 mm 0,0 UV-I 120 W/m 2,5 C 2,5 C 12,9 km/h (3 Bft) 96,23 %
23.01.2018 12:54 3,5 C 3,3 C 93 % 1027,0 hPa 0,0 l/m 11,1 km/h (2 Bft) W-SW 242 0 min 0,000 mm 0,1 UV-I 134 W/m 2,5 C -0,4 C 16,1 km/h (3 Bft) 95,45 %
23.01.2018 12:56 3,5 C 3,3 C 93 % 1027,0 hPa 0,0 l/m 9,7 km/h (2 Bft) W-SW 240 0 min 0,000 mm 0,5 UV-I 140 W/m 2,5 C 0,6 C 16,1 km/h (3 Bft) 98,00 %
23.01.2018 12:58 3,6 C 3,3 C 93 % 1027,0 hPa 0,0 l/m 12,4 km/h (3 Bft) W-SW 240 0 min 0,000 mm 0,5 UV-I 140 W/m 2,6 C -1,1 C 17,7 km/h (3 Bft) 97,37 %
23.01.2018 13:00 3,6 C 3,3 C 93 % 1027,0 hPa 0,2 l/m 10,9 km/h (2 Bft) W-SW 242 0 min 0,000 mm 0,0 UV-I 137 W/m 2,6 C -0,1 C 16,1 km/h (3 Bft) 94,00 %
23.01.2018 13:02 3,7 C 3,3 C 93 % 1027,0 hPa 0,0 l/m 9,1 km/h (2 Bft) SW 236 0 min 0,025 mm 0,0 UV-I 132 W/m 2,7 C 1,3 C 12,9 km/h (3 Bft) 96,23 %
23.01.2018 13:04 3,7 C 3,3 C 93 % 1027,0 hPa 0,0 l/m 11,7 km/h (2 Bft) SW 223 0 min 0,000 mm 0,0 UV-I 135 W/m 2,7 C -0,5 C 16,1 km/h (3 Bft) 96,55 %
23.01.2018 13:06 3,7 C 3,3 C 93 % 1027,0 hPa 0,0 l/m 10,8 km/h (2 Bft) W-SW 250 0 min 0,000 mm 0,0 UV-I 126 W/m 2,7 C 0,1 C 16,1 km/h (3 Bft) 96,00 %
23.01.2018 13:08 3,7 C 3,3 C 93 % 1027,1 hPa 0,0 l/m 8,4 km/h (2 Bft) SW 223 0 min 0,000 mm 0,0 UV-I 107 W/m 2,7 C 1,9 C 14,5 km/h (3 Bft) 97,62 %
23.01.2018 13:10 3,7 C 3,3 C 93 % 1027,1 hPa 0,2 l/m 9,7 km/h (2 Bft) SW 232 0 min 0,000 mm 0,0 UV-I 91 W/m 2,7 C 0,9 C 14,5 km/h (3 Bft) 96,88 %
23.01.2018 13:12 3,7 C 3,3 C 93 % 1027,1 hPa 0,0 l/m 8,4 km/h (2 Bft) W-SW 258 0 min 0,000 mm 0,0 UV-I 89 W/m 2,7 C 1,9 C 14,5 km/h (3 Bft) 95,74 %
23.01.2018 13:14 3,7 C 3,3 C 93 % 1027,1 hPa 0,0 l/m 10,1 km/h (2 Bft) SW 224 0 min 0,000 mm 0,0 UV-I 87 W/m 2,7 C 0,6 C 14,5 km/h (3 Bft) 95,24 %
23.01.2018 13:16 3,7 C 3,3 C 93 % 1027,0 hPa 0,0 l/m 10,3 km/h (2 Bft) W-SW 237 0 min 0,000 mm 0,0 UV-I 93 W/m 2,7 C 0,4 C 16,1 km/h (3 Bft) 97,37 %
23.01.2018 13:18 3,7 C 3,3 C 93 % 1027,0 hPa 0,0 l/m 9,5 km/h (2 Bft) SW 225 0 min 0,000 mm 0,0 UV-I 106 W/m 2,7 C 1,0 C 14,5 km/h (3 Bft) 96,55 %
23.01.2018 13:20 3,7 C 3,3 C 93 % 1027,0 hPa 0,0 l/m 10,1 km/h (2 Bft) W-SW 245 0 min 0,000 mm 0,0 UV-I 115 W/m 2,7 C 0,6 C 14,5 km/h (3 Bft) 96,00 %
23.01.2018 13:22 3,8 C 3,3 C 92 % 1027,0 hPa 0,0 l/m 8,9 km/h (2 Bft) W-SW 237 0 min 0,000 mm 0,0 UV-I 131 W/m 2,6 C 1,6 C 14,5 km/h (3 Bft) 97,78 %
23.01.2018 13:24 3,8 C 3,3 C 92 % 1027,0 hPa 0,2 l/m 9,3 km/h (2 Bft) W-SW 244 0 min 0,000 mm 0,0 UV-I 137 W/m 2,6 C 1,3 C 14,5 km/h (3 Bft) 98,00 %
23.01.2018 13:26 3,8 C 3,3 C 92 % 1027,0 hPa 0,0 l/m 8,4 km/h (2 Bft) SW 234 0 min 0,000 mm 0,0 UV-I 139 W/m 2,6 C 2,0 C 12,9 km/h (3 Bft) 97,37 %
23.01.2018 13:28 3,8 C 3,3 C 92 % 1027,0 hPa 0,0 l/m 8,1 km/h (2 Bft) SW 220 0 min 0,000 mm 0,0 UV-I 139 W/m 2,6 C 2,3 C 14,5 km/h (3 Bft) 98,11 %
23.01.2018 13:30 3,9 C 3,3 C 92 % 1027,0 hPa 0,0 l/m 8,0 km/h (2 Bft) W-SW 243 0 min 0,000 mm 0,0 UV-I 136 W/m 2,7 C 2,4 C 14,5 km/h (3 Bft) 97,56 %
23.01.2018 13:32 3,9 C 3,3 C 92 % 1027,0 hPa 0,0 l/m 10,8 km/h (2 Bft) S-SW 196 0 min 0,000 mm 0,0 UV-I 135 W/m 2,7 C 0,3 C 16,1 km/h (3 Bft) 97,73 %
23.01.2018 13:34 3,9 C 3,3 C 92 % 1027,0 hPa 0,2 l/m 9,6 km/h (2 Bft) SW 217 0 min 0,000 mm 0,0 UV-I 134 W/m 2,7 C 1,2 C 16,1 km/h (3 Bft) 96,23 %
23.01.2018 13:36 3,9 C 3,3 C 92 % 1027,0 hPa 0,0 l/m 7,2 km/h (2 Bft) S-SW 209 0 min 0,000 mm 0,0 UV-I 131 W/m 2,7 C 3,2 C 11,3 km/h (2 Bft) 96,00 %
23.01.2018 13:38 3,9 C 3,3 C 92 % 1027,0 hPa 0,0 l/m 9,6 km/h (2 Bft) W-SW 255 0 min 0,000 mm 0,0 UV-I 124 W/m 2,7 C 1,2 C 14,5 km/h (3 Bft) 95,74 %
23.01.2018 13:40 4,0 C 3,3 C 92 % 1027,0 hPa 0,0 l/m 8,5 km/h (2 Bft) SW 222 0 min 0,000 mm 0,0 UV-I 119 W/m 2,8 C 2,1 C 12,9 km/h (3 Bft) 92,11 %
23.01.2018 13:42 4,1 C 3,3 C 92 % 1027,0 hPa 0,0 l/m 8,4 km/h (2 Bft) SW 225 0 min 0,000 mm 0,0 UV-I 118 W/m 2,9 C 2,3 C 12,9 km/h (3 Bft) 97,14 %
23.01.2018 13:44 4,1 C 3,3 C 92 % 1027,0 hPa 0,0 l/m 9,4 km/h (2 Bft) SW 227 0 min 0,000 mm 0,0 UV-I 117 W/m 2,9 C 1,5 C 14,5 km/h (3 Bft) 96,61 %
23.01.2018 13:46 4,1 C 3,3 C 91 % 1026,9 hPa 0,2 l/m 10,0 km/h (2 Bft) W-SW 237 0 min 0,000 mm 0,0 UV-I 114 W/m 2,8 C 1,1 C 16,1 km/h (3 Bft) 98,00 %
23.01.2018 13:48 4,1 C 3,3 C 91 % 1026,9 hPa 0,0 l/m 11,0 km/h (2 Bft) S-SW 194 0 min 0,000 mm 0,0 UV-I 108 W/m 2,8 C 0,4 C 17,7 km/h (3 Bft) 98,11 %
23.01.2018 13:50 4,0 C 3,3 C 91 % 1026,9 hPa 0,0 l/m 8,5 km/h (2 Bft) W-SW 245 0 min 0,000 mm 0,0 UV-I 106 W/m 2,7 C 2,1 C 12,9 km/h (3 Bft) 97,73 %
23.01.2018 13:52 4,0 C 3,3 C 91 % 1026,9 hPa 0,0 l/m 9,6 km/h (2 Bft) S-SW 210 0 min 0,000 mm 0,0 UV-I 110 W/m 2,7 C 1,3 C 16,1 km/h (3 Bft) 97,56 %
23.01.2018 13:54 4,0 C 3,3 C 91 % 1027,0 hPa 0,0 l/m 9,5 km/h (2 Bft) SW 230 0 min 0,000 mm 0,0 UV-I 112 W/m 2,7 C 1,3 C 14,5 km/h (3 Bft) 96,00 %
23.01.2018 13:56 3,9 C 3,3 C 91 % 1027,0 hPa 0,0 l/m 11,5 km/h (2 Bft) W 260 0 min 0,000 mm 0,0 UV-I 112 W/m 2,6 C -0,2 C 17,7 km/h (3 Bft) 94,00 %
23.01.2018 13:58 3,9 C 3,3 C 91 % 1027,0 hPa 0,2 l/m 8,7 km/h (2 Bft) SW 227 0 min 0,000 mm 0,0 UV-I 110 W/m 2,6 C 1,9 C 16,1 km/h (3 Bft) 93,62 %
23.01.2018 14:00 3,9 C 3,3 C 91 % 1027,0 hPa 0,0 l/m 12,2 km/h (2 Bft) W-SW 242 0 min 0,000 mm 0,0 UV-I 110 W/m 2,6 C -0,6 C 19,3 km/h (3 Bft) 93,62 %
23.01.2018 14:02 3,9 C 3,3 C 91 % 1027,0 hPa 0,0 l/m 13,2 km/h (3 Bft) W-SW 245 0 min 0,051 mm 0,0 UV-I 110 W/m 2,6 C -1,2 C 19,3 km/h (3 Bft) 95,24 %
23.01.2018 14:04 3,9 C 3,3 C 91 % 1027,0 hPa 0,0 l/m 11,2 km/h (2 Bft) W-SW 238 0 min 0,000 mm 0,0 UV-I 104 W/m 2,6 C 0,0 C 17,7 km/h (3 Bft) 95,12 %
23.01.2018 14:06 3,9 C 3,3 C 91 % 1027,1 hPa 0,0 l/m 11,4 km/h (2 Bft) SW 233 0 min 0,000 mm 0,0 UV-I 99 W/m 2,6 C -0,1 C 16,1 km/h (3 Bft) 95,12 %
23.01.2018 14:08 3,9 C 3,3 C 91 % 1027,0 hPa 0,0 l/m 12,1 km/h (2 Bft) SW 216 0 min 0,000 mm 0,0 UV-I 94 W/m 2,6 C -0,6 C 17,7 km/h (3 Bft) 93,85 %
23.01.2018 14:10 3,9 C 3,3 C 91 % 1027,1 hPa 0,0 l/m 11,3 km/h (2 Bft) SW 236 0 min 0,000 mm 0,0 UV-I 95 W/m 2,6 C -0,1 C 17,7 km/h (3 Bft) 94,74 %
23.01.2018 14:12 3,9 C 3,3 C 91 % 1027,0 hPa 0,0 l/m 12,4 km/h (3 Bft) SW 219 0 min 0,000 mm 0,0 UV-I 94 W/m 2,6 C -0,8 C 19,3 km/h (3 Bft) 95,74 %
23.01.2018 14:14 3,9 C 3,3 C 91 % 1027,1 hPa 0,2 l/m 11,1 km/h (2 Bft) W-SW 248 0 min 0,000 mm 0,0 UV-I 96 W/m 2,6 C 0,1 C 16,1 km/h (3 Bft) 92,00 %
23.01.2018 14:16 3,9 C 3,3 C 91 % 1027,0 hPa 0,0 l/m 15,4 km/h (3 Bft) SW 228 0 min 0,000 mm 0,0 UV-I 97 W/m 2,6 C -2,5 C 19,3 km/h (3 Bft) 96,23 %
23.01.2018 14:18 3,9 C 3,3 C 91 % 1026,9 hPa 0,0 l/m 13,7 km/h (3 Bft) W-SW 245 0 min 0,000 mm 0,0 UV-I 102 W/m 2,6 C -1,5 C 19,3 km/h (3 Bft) 97,56 %
23.01.2018 14:20 3,9 C 3,3 C 91 % 1026,9 hPa 0,0 l/m 10,5 km/h (2 Bft) W-SW 248 0 min 0,000 mm 0,0 UV-I 110 W/m 2,6 C 0,5 C 14,5 km/h (3 Bft) 95,45 %
23.01.2018 14:22 4,0 C 3,3 C 91 % 1026,9 hPa 0,0 l/m 9,6 km/h (2 Bft) SW 232 0 min 0,000 mm 0,0 UV-I 116 W/m 2,7 C 1,3 C 17,7 km/h (3 Bft) 96,23 %
23.01.2018 14:24 4,0 C 3,3 C 91 % 1026,9 hPa 0,0 l/m 10,9 km/h (2 Bft) SW 221 0 min 0,000 mm 0,0 UV-I 115 W/m 2,7 C 0,3 C 16,1 km/h (3 Bft) 97,87 %
23.01.2018 14:26 4,1 C 3,3 C 91 % 1026,9 hPa 0,0 l/m 8,4 km/h (2 Bft) SW 235 0 min 0,000 mm 0,0 UV-I 115 W/m 2,8 C 2,3 C 14,5 km/h (3 Bft) 97,87 %
23.01.2018 14:28 4,1 C 3,3 C 91 % 1026,9 hPa 0,0 l/m 11,4 km/h (2 Bft) W-SW 247 0 min 0,000 mm 0,0 UV-I 111 W/m 2,8 C 0,1 C 17,7 km/h (3 Bft) 94,74 %
23.01.2018 14:30 4,1 C 3,3 C 91 % 1026,9 hPa 0,2 l/m 9,7 km/h (2 Bft) W-SW 238 0 min 0,000 mm 0,0 UV-I 104 W/m 2,8 C 1,3 C 14,5 km/h (3 Bft) 100,00 %
23.01.2018 14:32 4,1 C 3,3 C 90 % 1027,0 hPa 0,0 l/m 9,3 km/h (2 Bft) SW 229 0 min 0,000 mm 0,0 UV-I 98 W/m 2,6 C 1,6 C 16,1 km/h (3 Bft) 98,00 %
23.01.2018 14:34 4,1 C 3,3 C 91 % 1027,0 hPa 0,0 l/m 9,6 km/h (2 Bft) W-SW 244 0 min 0,000 mm 0,0 UV-I 102 W/m 2,8 C 1,4 C 12,9 km/h (3 Bft) 100,00 %
23.01.2018 14:36 4,1 C 3,3 C 91 % 1027,0 hPa 0,0 l/m 8,4 km/h (2 Bft) W-SW 242 0 min 0,000 mm 0,0 UV-I 107 W/m 2,8 C 2,3 C 14,5 km/h (3 Bft) 100,00 %
23.01.2018 14:38 4,1 C 3,3 C 91 % 1027,1 hPa 0,0 l/m 9,1 km/h (2 Bft) W-SW 243 0 min 0,000 mm 0,0 UV-I 107 W/m 2,8 C 1,8 C 14,5 km/h (3 Bft) 100,00 %
23.01.2018 14:40 4,1 C 3,3 C 91 % 1027,0 hPa 0,0 l/m 9,7 km/h (2 Bft) W 272 0 min 0,000 mm 0,0 UV-I 110 W/m 2,8 C 1,3 C 14,5 km/h (3 Bft) 97,92 %
23.01.2018 14:42 4,1 C 3,3 C 91 % 1027,0 hPa 0,0 l/m 9,3 km/h (2 Bft) SW 232 0 min 0,000 mm 0,0 UV-I 112 W/m 2,8 C 1,6 C 14,5 km/h (3 Bft) 100,00 %
23.01.2018 14:44 4,1 C 3,3 C 91 % 1027,0 hPa 0,0 l/m 8,0 km/h (2 Bft) SW 218 0 min 0,000 mm 0,0 UV-I 116 W/m 2,8 C 2,7 C 12,9 km/h (3 Bft) 100,00 %
23.01.2018 14:46 4,1 C 3,3 C 91 % 1027,0 hPa 0,0 l/m 7,3 km/h (2 Bft) SW 217 0 min 0,000 mm 0,0 UV-I 117 W/m 2,8 C 3,3 C 14,5 km/h (3 Bft) 96,43 %
23.01.2018 14:48 4,1 C 3,3 C 91 % 1027,0 hPa 0,0 l/m 8,1 km/h (2 Bft) SW 214 0 min 0,000 mm 0,0 UV-I 111 W/m 2,8 C 2,6 C 12,9 km/h (3 Bft) 100,00 %
23.01.2018 14:50 4,2 C 3,3 C 91 % 1027,1 hPa 0,0 l/m 7,8 km/h (2 Bft) SW 234 0 min 0,000 mm 0,0 UV-I 103 W/m 2,9 C 2,9 C 12,9 km/h (3 Bft) 100,00 %
23.01.2018 14:52 4,2 C 3,3 C 91 % 1027,1 hPa 0,0 l/m 6,0 km/h (2 Bft) SW 232 0 min 0,000 mm 0,0 UV-I 96 W/m 2,9 C 4,2 C 8,0 km/h (2 Bft) 95,65 %
23.01.2018 14:54 4,1 C 3,3 C 91 % 1027,1 hPa 0,0 l/m 8,0 km/h (2 Bft) SW 234 0 min 0,000 mm 0,0 UV-I 84 W/m 2,8 C 2,7 C 11,3 km/h (2 Bft) 98,59 %
23.01.2018 14:56 4,2 C 3,3 C 91 % 1027,2 hPa 0,0 l/m 6,3 km/h (2 Bft) S-SW 204 0 min 0,000 mm 0,0 UV-I 75 W/m 2,9 C 4,2 C 11,3 km/h (2 Bft) 100,00 %
23.01.2018 14:58 4,1 C 3,3 C 91 % 1027,2 hPa 0,0 l/m 6,0 km/h (2 Bft) W-SW 239 0 min 0,000 mm 0,0 UV-I 72 W/m 2,8 C 4,1 C 8,0 km/h (2 Bft) 100,00 %
23.01.2018 15:00 4,1 C 3,3 C 91 % 1027,2 hPa 0,0 l/m 6,5 km/h (2 Bft) SW 217 0 min 0,051 mm 0,0 UV-I 66 W/m 2,8 C 4,0 C 11,3 km/h (2 Bft) 100,00 %
23.01.2018 15:02 4,1 C 3,3 C 91 % 1027,2 hPa 0,2 l/m 6,7 km/h (2 Bft) S-SW 213 0 min 0,000 mm 0,0 UV-I 55 W/m 2,8 C 3,8 C 11,3 km/h (2 Bft) 100,00 %
23.01.2018 15:04 4,1 C 3,3 C 91 % 1027,2 hPa 0,0 l/m 6,6 km/h (2 Bft) W-SW 244 0 min 0,000 mm 0,0 UV-I 49 W/m 2,8 C 3,9 C 12,9 km/h (3 Bft) 98,00 %
23.01.2018 15:06 4,1 C 3,3 C 91 % 1027,3 hPa 0,0 l/m 9,2 km/h (2 Bft) S-SW 205 0 min 0,000 mm 0,0 UV-I 51 W/m 2,8 C 1,7 C 12,9 km/h (3 Bft) 100,00 %
23.01.2018 15:08 4,1 C 3,3 C 91 % 1027,3 hPa 0,0 l/m 8,3 km/h (2 Bft) S-SW 209 0 min 0,000 mm 0,0 UV-I 52 W/m 2,8 C 2,4 C 12,9 km/h (3 Bft) 100,00 %
23.01.2018 15:10 4,1 C 3,3 C 91 % 1027,3 hPa 0,0 l/m 7,8 km/h (2 Bft) SW 219 0 min 0,000 mm 0,0 UV-I 54 W/m 2,8 C 2,8 C 11,3 km/h (2 Bft) 100,00 %
23.01.2018 15:12 4,1 C 3,3 C 91 % 1027,3 hPa 0,0 l/m 8,8 km/h (2 Bft) S-SW 192 0 min 0,000 mm 0,0 UV-I 55 W/m 2,8 C 2,0 C 12,9 km/h (3 Bft) 97,92 %
23.01.2018 15:14 4,2 C 3,3 C 91 % 1027,3 hPa 0,0 l/m 9,7 km/h (2 Bft) S-SW 212 0 min 0,000 mm 0,0 UV-I 52 W/m 2,9 C 1,4 C 16,1 km/h (3 Bft) 97,56 %
23.01.2018 15:16 4,2 C 3,3 C 90 % 1027,4 hPa 0,0 l/m 11,5 km/h (2 Bft) S-SW 198 0 min 0,000 mm 0,0 UV-I 45 W/m 2,7 C 0,2 C 17,7 km/h (3 Bft) 100,00 %
23.01.2018 15:18 4,2 C 3,3 C 90 % 1027,4 hPa 0,0 l/m 10,7 km/h (2 Bft) S-SW 213 0 min 0,000 mm 0,0 UV-I 42 W/m 2,7 C 0,7 C 16,1 km/h (3 Bft) 100,00 %
23.01.2018 15:20 4,2 C 3,3 C 90 % 1027,4 hPa 0,0 l/m 9,9 km/h (2 Bft) SW 225 0 min 0,000 mm 0,0 UV-I 41 W/m 2,7 C 1,3 C 14,5 km/h (3 Bft) 98,53 %
23.01.2018 15:22 4,2 C 3,3 C 90 % 1027,4 hPa 0,0 l/m 11,1 km/h (2 Bft) S-SW 193 0 min 0,000 mm 0,0 UV-I 40 W/m 2,7 C 0,4 C 19,3 km/h (3 Bft) 100,00 %
23.01.2018 15:24 4,3 C 3,3 C 90 % 1027,4 hPa 0,0 l/m 11,0 km/h (2 Bft) SW 227 0 min 0,000 mm 0,0 UV-I 40 W/m 2,8 C 0,6 C 19,3 km/h (3 Bft) 100,00 %
23.01.2018 15:26 4,3 C 3,3 C 90 % 1027,4 hPa 0,0 l/m 7,3 km/h (2 Bft) SW 229 0 min 0,000 mm 0,0 UV-I 40 W/m 2,8 C 3,5 C 12,9 km/h (3 Bft) 100,00 %
23.01.2018 15:28 4,3 C 3,3 C 90 % 1027,4 hPa 0,0 l/m 7,3 km/h (2 Bft) SW 232 0 min 0,000 mm 0,0 UV-I 46 W/m 2,8 C 3,5 C 16,1 km/h (3 Bft) 98,59 %
23.01.2018 15:30 4,3 C 3,3 C 90 % 1027,4 hPa 0,0 l/m 9,8 km/h (2 Bft) S-SW 205 0 min 0,000 mm 0,0 UV-I 46 W/m 2,8 C 1,4 C 16,1 km/h (3 Bft) 100,00 %
23.01.2018 15:32 4,3 C 3,3 C 90 % 1027,4 hPa 0,0 l/m 9,7 km/h (2 Bft) SW 225 0 min 0,000 mm 0,0 UV-I 39 W/m 2,8 C 1,5 C 14,5 km/h (3 Bft) 100,00 %
23.01.2018 15:34 4,3 C 3,3 C 90 % 1027,4 hPa 0,0 l/m 8,3 km/h (2 Bft) S-SW 203 0 min 0,000 mm 0,0 UV-I 36 W/m 2,8 C 2,6 C 14,5 km/h (3 Bft) 100,00 %
23.01.2018 15:36 4,2 C 3,3 C 90 % 1027,3 hPa 0,0 l/m 8,7 km/h (2 Bft) SW 227 0 min 0,000 mm 0,0 UV-I 35 W/m 2,7 C 2,2 C 14,5 km/h (3 Bft) 100,00 %
23.01.2018 15:38 4,2 C 3,3 C 90 % 1027,3 hPa 0,0 l/m 8,9 km/h (2 Bft) SW 218 0 min 0,000 mm 0,0 UV-I 36 W/m 2,7 C 2,0 C 14,5 km/h (3 Bft) 100,00 %
23.01.2018 15:40 4,2 C 3,3 C 90 % 1027,3 hPa 0,0 l/m 10,1 km/h (2 Bft) SW 227 0 min 0,000 mm 0,0 UV-I 39 W/m 2,7 C 1,1 C 14,5 km/h (3 Bft) 100,00 %
23.01.2018 15:42 4,3 C 3,3 C 90 % 1027,3 hPa 0,0 l/m 7,5 km/h (2 Bft) S-SW 207 0 min 0,000 mm 0,0 UV-I 40 W/m 2,8 C 3,3 C 12,9 km/h (3 Bft) 100,00 %
23.01.2018 15:44 4,2 C 3,3 C 90 % 1027,3 hPa 0,0 l/m 8,5 km/h (2 Bft) S-SW 208 0 min 0,000 mm 0,0 UV-I 41 W/m 2,7 C 2,3 C 12,9 km/h (3 Bft) 98,21 %
23.01.2018 15:46 4,2 C 3,3 C 90 % 1027,3 hPa 0,0 l/m 8,1 km/h (2 Bft) W 265 0 min 0,000 mm 0,0 UV-I 46 W/m 2,7 C 2,7 C 14,5 km/h (3 Bft) 100,00 %
23.01.2018 15:48 4,2 C 3,3 C 90 % 1027,3 hPa 0,0 l/m 8,8 km/h (2 Bft) SW 234 0 min 0,000 mm 0,0 UV-I 44 W/m 2,7 C 2,1 C 17,7 km/h (3 Bft) 100,00 %
23.01.2018 15:50 4,2 C 3,3 C 90 % 1027,3 hPa 0,0 l/m 8,9 km/h (2 Bft) W-SW 238 0 min 0,000 mm 0,0 UV-I 43 W/m 2,7 C 2,0 C 17,7 km/h (3 Bft) 100,00 %
23.01.2018 15:52 4,2 C 3,3 C 90 % 1027,4 hPa 0,0 l/m 7,7 km/h (2 Bft) SW 221 0 min 0,000 mm 0,0 UV-I 41 W/m 2,7 C 3,0 C 11,3 km/h (2 Bft) 100,00 %
23.01.2018 15:54 4,2 C 3,3 C 90 % 1027,4 hPa 0,0 l/m 9,1 km/h (2 Bft) SW 219 0 min 0,000 mm 0,0 UV-I 37 W/m 2,7 C 1,9 C 14,5 km/h (3 Bft) 100,00 %
23.01.2018 15:56 4,2 C 3,3 C 90 % 1027,4 hPa 0,0 l/m 9,2 km/h (2 Bft) W-SW 238 0 min 0,000 mm 0,0 UV-I 34 W/m 2,7 C 1,8 C 16,1 km/h (3 Bft) 97,87 %
23.01.2018 15:58 4,2 C 3,3 C 90 % 1027,4 hPa 0,0 l/m 9,0 km/h (2 Bft) W-SW 238 0 min 0,000 mm 0,0 UV-I 33 W/m 2,7 C 1,9 C 14,5 km/h (3 Bft) 97,87 %
23.01.2018 16:00 4,2 C 3,3 C 90 % 1027,4 hPa 0,0 l/m 9,0 km/h (2 Bft) SW 234 0 min 0,025 mm 0,0 UV-I 32 W/m 2,7 C 1,9 C 14,5 km/h (3 Bft) 97,87 %
23.01.2018 16:02 4,1 C 3,3 C 90 % 1027,4 hPa 0,0 l/m 10,6 km/h (2 Bft) W-SW 243 0 min 0,000 mm 0,0 UV-I 32 W/m 2,6 C 0,7 C 14,5 km/h (3 Bft) 96,00 %
23.01.2018 16:04 4,1 C 3,3 C 90 % 1027,4 hPa 0,0 l/m 9,6 km/h (2 Bft) W-SW 256 0 min 0,000 mm 0,0 UV-I 33 W/m 2,6 C 1,4 C 16,1 km/h (3 Bft) 95,74 %
23.01.2018 16:06 4,1 C 3,3 C 90 % 1027,5 hPa 0,0 l/m 10,2 km/h (2 Bft) W-SW 252 0 min 0,000 mm 0,0 UV-I 32 W/m 2,6 C 0,9 C 14,5 km/h (3 Bft) 97,56 %
23.01.2018 16:08 4,1 C 3,3 C 90 % 1027,5 hPa 0,0 l/m 9,8 km/h (2 Bft) W-SW 252 0 min 0,000 mm 0,0 UV-I 30 W/m 2,6 C 1,2 C 14,5 km/h (3 Bft) 98,00 %
23.01.2018 16:10 4,1 C 3,3 C 90 % 1027,5 hPa 0,0 l/m 9,3 km/h (2 Bft) W-SW 238 0 min 0,000 mm 0,0 UV-I 28 W/m 2,6 C 1,6 C 12,9 km/h (3 Bft) 97,56 %
23.01.2018 16:12 4,1 C 3,3 C 90 % 1027,5 hPa 0,0 l/m 7,9 km/h (2 Bft) SW 221 0 min 0,000 mm 0,0 UV-I 25 W/m 2,6 C 2,7 C 14,5 km/h (3 Bft) 98,21 %
23.01.2018 16:14 4,1 C 3,3 C 90 % 1027,5 hPa 0,0 l/m 8,6 km/h (2 Bft) W-SW 238 0 min 0,000 mm 0,0 UV-I 23 W/m 2,6 C 2,2 C 12,9 km/h (3 Bft) 98,00 %
23.01.2018 16:16 4,1 C 3,3 C 90 % 1027,5 hPa 0,0 l/m 7,7 km/h (2 Bft) SW 228 0 min 0,000 mm 0,0 UV-I 19 W/m 2,6 C 2,9 C 12,9 km/h (3 Bft) 97,37 %
23.01.2018 16:18 4,0 C 3,3 C 90 % 1027,5 hPa 0,0 l/m 7,2 km/h (2 Bft) SW 227 0 min 0,000 mm 0,0 UV-I 18 W/m 2,5 C 3,3 C 11,3 km/h (2 Bft) 97,56 %
23.01.2018 16:20 4,0 C 3,3 C 90 % 1027,5 hPa 0,0 l/m 9,0 km/h (2 Bft) W-SW 244 0 min 0,000 mm 0,0 UV-I 15 W/m 2,5 C 1,7 C 14,5 km/h (3 Bft) 98,21 %
23.01.2018 16:22 3,9 C 3,3 C 90 % 1027,5 hPa 0,0 l/m 9,3 km/h (2 Bft) SW 216 0 min 0,000 mm 0,0 UV-I 14 W/m 2,4 C 1,4 C 12,9 km/h (3 Bft) 97,73 %
23.01.2018 16:24 3,9 C 3,3 C 90 % 1027,6 hPa 0,0 l/m 7,2 km/h (2 Bft) W-SW 254 0 min 0,000 mm 0,0 UV-I 13 W/m 2,4 C 3,2 C 11,3 km/h (2 Bft) 96,00 %
23.01.2018 16:26 3,9 C 3,3 C 90 % 1027,6 hPa 0,0 l/m 8,7 km/h (2 Bft) SW 228 0 min 0,000 mm 0,0 UV-I 13 W/m 2,4 C 1,9 C 14,5 km/h (3 Bft) 97,22 %
23.01.2018 16:28 3,9 C 3,3 C 90 % 1027,6 hPa 0,0 l/m 8,3 km/h (2 Bft) W-SW 240 0 min 0,000 mm 0,0 UV-I 12 W/m 2,4 C 2,2 C 12,9 km/h (3 Bft) 98,00 %
23.01.2018 16:30 3,9 C 3,3 C 90 % 1027,6 hPa 0,0 l/m 7,3 km/h (2 Bft) SW 230 0 min 0,000 mm 0,0 UV-I 11 W/m 2,4 C 3,1 C 11,3 km/h (2 Bft) 98,00 %
23.01.2018 16:32 3,9 C 3,3 C 90 % 1027,6 hPa 0,0 l/m 8,1 km/h (2 Bft) S-SW 212 0 min 0,000 mm 0,0 UV-I 10 W/m 2,4 C 2,4 C 11,3 km/h (2 Bft) 98,08 %
23.01.2018 16:34 3,9 C 3,3 C 90 % 1027,6 hPa 0,2 l/m 7,4 km/h (2 Bft) W-SW 254 0 min 0,000 mm 0,0 UV-I 9 W/m 2,4 C 3,0 C 11,3 km/h (2 Bft) 95,24 %
23.01.2018 16:36 3,9 C 3,3 C 90 % 1027,6 hPa 0,0 l/m 8,7 km/h (2 Bft) SW 217 0 min 0,000 mm 0,0 UV-I 9 W/m 2,4 C 1,9 C 12,9 km/h (3 Bft) 100,00 %
23.01.2018 16:38 3,9 C 3,3 C 90 % 1027,6 hPa 0,0 l/m 8,2 km/h (2 Bft) SW 233 0 min 0,000 mm 0,0 UV-I 8 W/m 2,4 C 2,3 C 12,9 km/h (3 Bft) 94,29 %
23.01.2018 16:40 3,9 C 3,3 C 90 % 1027,6 hPa 0,0 l/m 6,9 km/h (2 Bft) SW 217 0 min 0,000 mm 0,0 UV-I 7 W/m 2,4 C 3,4 C 9,7 km/h (2 Bft) 98,00 %
23.01.2018 16:42 3,9 C 3,3 C 90 % 1027,6 hPa 0,0 l/m 6,9 km/h (2 Bft) S-SW 202 0 min 0,000 mm 0,0 UV-I 7 W/m 2,4 C 3,4 C 9,7 km/h (2 Bft) 100,00 %
23.01.2018 16:44 3,9 C 3,3 C 90 % 1027,6 hPa 0,0 l/m 6,7 km/h (2 Bft) SW 215 0 min 0,000 mm 0,0 UV-I 7 W/m 2,4 C 3,6 C 9,7 km/h (2 Bft) 100,00 %
23.01.2018 16:46 3,9 C 3,3 C 90 % 1027,6 hPa 0,0 l/m 8,2 km/h (2 Bft) SW 216 0 min 0,000 mm 0,0 UV-I 5 W/m 2,4 C 2,3 C 11,3 km/h (2 Bft) 97,37 %
23.01.2018 16:48 3,9 C 3,3 C 90 % 1027,7 hPa 0,0 l/m 8,7 km/h (2 Bft) SW 219 0 min 0,000 mm 0,0 UV-I 5 W/m 2,4 C 1,9 C 12,9 km/h (3 Bft) 100,00 %
23.01.2018 16:50 3,9 C 3,3 C 90 % 1027,7 hPa 0,0 l/m 7,7 km/h (2 Bft) W-SW 240 0 min 0,000 mm 0,0 UV-I 5 W/m 2,4 C 2,7 C 11,3 km/h (2 Bft) 100,00 %
23.01.2018 16:52 3,9 C 3,3 C 90 % 1027,7 hPa 0,0 l/m 6,8 km/h (2 Bft) W-SW 252 0 min 0,000 mm 0,0 UV-I 5 W/m 2,4 C 3,5 C 8,0 km/h (2 Bft) 100,00 %
23.01.2018 16:54 3,9 C 3,3 C 90 % 1027,7 hPa 0,0 l/m 6,5 km/h (2 Bft) W-SW 242 0 min 0,000 mm 0,0 UV-I 3 W/m 2,4 C 3,8 C 9,7 km/h (2 Bft) 98,00 %
23.01.2018 16:56 3,9 C 3,3 C 90 % 1027,7 hPa 0,0 l/m 6,3 km/h (2 Bft) SW 230 0 min 0,000 mm 0,0 UV-I 0 W/m 2,4 C 3,9 C 8,0 km/h (2 Bft) 100,00 %
23.01.2018 16:58 3,9 C 3,3 C 90 % 1027,7 hPa 0,0 l/m 5,9 km/h (2 Bft) S-SW 211 0 min 0,000 mm 0,0 UV-I 0 W/m 2,4 C 3,9 C 8,0 km/h (2 Bft) 100,00 %
23.01.2018 17:00 3,9 C 3,3 C 90 % 1027,8 hPa 0,0 l/m 6,3 km/h (2 Bft) S-SW 210 0 min 0,000 mm 0,0 UV-I 0 W/m 2,4 C 3,9 C 8,0 km/h (2 Bft) 100,00 %
23.01.2018 17:02 3,8 C 3,3 C 90 % 1027,8 hPa 0,0 l/m 5,7 km/h (1 Bft) SW 225 0 min 0,000 mm 0,0 UV-I 0 W/m 2,3 C 3,8 C 8,0 km/h (2 Bft) 97,56 %
23.01.2018 17:04 3,8 C 3,3 C 90 % 1027,7 hPa 0,0 l/m 5,6 km/h (1 Bft) SW 223 0 min 0,000 mm 0,0 UV-I 0 W/m 2,3 C 3,8 C 8,0 km/h (2 Bft) 100,00 %
23.01.2018 17:06 3,8 C 3,3 C 91 % 1027,8 hPa 0,0 l/m 5,9 km/h (2 Bft) SW 232 0 min 0,000 mm 0,0 UV-I 0 W/m 2,5 C 3,8 C 11,3 km/h (2 Bft) 97,56 %
23.01.2018 17:08 3,8 C 3,3 C 91 % 1027,8 hPa 0,0 l/m 6,0 km/h (2 Bft) SW 215 0 min 0,000 mm 0,0 UV-I 0 W/m 2,5 C 3,8 C 8,0 km/h (2 Bft) 100,00 %
23.01.2018 17:10 3,8 C 3,3 C 91 % 1027,8 hPa 0,0 l/m 5,3 km/h (1 Bft) SW 222 0 min 0,000 mm 0,0 UV-I 0 W/m 2,5 C 3,8 C 8,0 km/h (2 Bft) 97,44 %
23.01.2018 17:12 3,8 C 3,3 C 90 % 1027,8 hPa 0,0 l/m 6,2 km/h (2 Bft) W-SW 238 0 min 0,000 mm 0,0 UV-I 0 W/m 2,3 C 3,8 C 8,0 km/h (2 Bft) 100,00 %
23.01.2018 17:14 3,8 C 3,3 C 90 % 1027,8 hPa 0,0 l/m 6,3 km/h (2 Bft) SW 230 0 min 0,000 mm 0,0 UV-I 0 W/m 2,3 C 3,8 C 8,0 km/h (2 Bft) 100,00 %
23.01.2018 17:16 3,8 C 3,3 C 91 % 1027,8 hPa 0,0 l/m 5,9 km/h (2 Bft) SW 234 0 min 0,000 mm 0,0 UV-I 0 W/m 2,5 C 3,8 C 8,0 km/h (2 Bft) 97,37 %
23.01.2018 17:18 3,8 C 3,3 C 91 % 1027,8 hPa 0,0 l/m 6,6 km/h (2 Bft) W-SW 246 0 min 0,000 mm 0,0 UV-I 0 W/m 2,5 C 3,6 C 8,0 km/h (2 Bft) 100,00 %
23.01.2018 17:20 3,8 C 3,3 C 91 % 1027,8 hPa 0,0 l/m 6,0 km/h (2 Bft) SW 221 0 min 0,000 mm 0,0 UV-I 0 W/m 2,5 C 3,8 C 8,0 km/h (2 Bft) 97,37 %
23.01.2018 17:22 3,8 C 3,3 C 91 % 1027,8 hPa 0,0 l/m 6,8 km/h (2 Bft) SW 232 0 min 0,000 mm 0,0 UV-I 0 W/m 2,5 C 3,4 C 9,7 km/h (2 Bft) 100,00 %
23.01.2018 17:24 3,8 C 3,3 C 91 % 1027,8 hPa 0,0 l/m 6,6 km/h (2 Bft) SW 229 0 min 0,000 mm 0,0 UV-I 0 W/m 2,5 C 3,6 C 9,7 km/h (2 Bft) 100,00 %
23.01.2018 17:26 3,8 C 3,3 C 90 % 1027,8 hPa 0,0 l/m 6,3 km/h (2 Bft) S-SW 208 0 min 0,000 mm 0,0 UV-I 0 W/m 2,3 C 3,8 C 9,7 km/h (2 Bft) 100,00 %
23.01.2018 17:28 3,8 C 3,3 C 90 % 1027,8 hPa 0,0 l/m 6,7 km/h (2 Bft) W-SW 239 0 min 0,000 mm 0,0 UV-I 0 W/m 2,3 C 3,5 C 9,7 km/h (2 Bft) 97,56 %
23.01.2018 17:30 3,8 C 3,3 C 90 % 1027,7 hPa 0,0 l/m 5,4 km/h (1 Bft) SW 219 0 min 0,000 mm 0,0 UV-I 0 W/m 2,3 C 3,8 C 9,7 km/h (2 Bft) 100,00 %
23.01.2018 17:32 3,8 C 3,3 C 90 % 1027,8 hPa 0,0 l/m 6,3 km/h (2 Bft) W-SW 238 0 min 0,000 mm 0,0 UV-I 0 W/m 2,3 C 3,8 C 9,7 km/h (2 Bft) 98,11 %
23.01.2018 17:34 3,8 C 3,3 C 90 % 1027,8 hPa 0,0 l/m 5,7 km/h (1 Bft) SW 223 0 min 0,000 mm 0,0 UV-I 0 W/m 2,3 C 3,8 C 6,4 km/h (2 Bft) 100,00 %
23.01.2018 17:36 3,8 C 3,3 C 91 % 1027,8 hPa 0,0 l/m 6,0 km/h (2 Bft) SW 227 0 min 0,000 mm 0,0 UV-I 0 W/m 2,5 C 3,8 C 8,0 km/h (2 Bft) 100,00 %
23.01.2018 17:38 3,8 C 3,3 C 91 % 1027,8 hPa 0,0 l/m 5,8 km/h (2 Bft) SW 225 0 min 0,000 mm 0,0 UV-I 0 W/m 2,5 C 3,8 C 8,0 km/h (2 Bft) 97,56 %
23.01.2018 17:40 3,7 C 3,3 C 91 % 1027,8 hPa 0,0 l/m 6,0 km/h (2 Bft) SW 215 0 min 0,000 mm 0,0 UV-I 0 W/m 2,4 C 3,7 C 8,0 km/h (2 Bft) 96,00 %
23.01.2018 17:42 3,7 C 3,3 C 90 % 1027,8 hPa 0,0 l/m 6,1 km/h (2 Bft) W-SW 240 0 min 0,000 mm 0,0 UV-I 0 W/m 2,2 C 3,7 C 8,0 km/h (2 Bft) 97,87 %
23.01.2018 17:44 3,7 C 3,3 C 91 % 1027,8 hPa 0,0 l/m 4,3 km/h (1 Bft) SW 235 0 min 0,000 mm 0,0 UV-I 0 W/m 2,4 C 3,7 C 8,0 km/h (2 Bft) 96,00 %
23.01.2018 17:46 3,7 C 3,3 C 91 % 1027,8 hPa 0,0 l/m 5,0 km/h (1 Bft) SW 227 0 min 0,000 mm 0,0 UV-I 0 W/m 2,4 C 3,7 C 6,4 km/h (2 Bft) 98,00 %
23.01.2018 17:48 3,7 C 3,3 C 91 % 1027,8 hPa 0,0 l/m 5,1 km/h (1 Bft) SW 215 0 min 0,000 mm 0,0 UV-I 0 W/m 2,4 C 3,7 C 8,0 km/h (2 Bft) 97,44 %
23.01.2018 17:50 3,7 C 3,3 C 91 % 1027,8 hPa 0,0 l/m 5,4 km/h (1 Bft) SW 225 0 min 0,000 mm 0,0 UV-I 0 W/m 2,4 C 3,7 C 6,4 km/h (2 Bft) 98,00 %
23.01.2018 17:52 3,7 C 3,3 C 91 % 1027,8 hPa 0,0 l/m 5,0 km/h (1 Bft) SW 215 0 min 0,000 mm 0,0 UV-I 0 W/m 2,4 C 3,7 C 8,0 km/h (2 Bft) 97,56 %
23.01.2018 17:54 3,7 C 3,3 C 90 % 1027,8 hPa 0,0 l/m 5,6 km/h (1 Bft) SW 234 0 min 0,000 mm 0,0 UV-I 0 W/m 2,2 C 3,7 C 6,4 km/h (2 Bft) 96,36 %
23.01.2018 17:56 3,7 C 3,3 C 91 % 1027,8 hPa 0,0 l/m 6,3 km/h (2 Bft) SW 221 0 min 0,000 mm 0,0 UV-I 0 W/m 2,4 C 3,7 C 8,0 km/h (2 Bft) 97,87 %
23.01.2018 17:58 3,8 C 3,3 C 90 % 1027,8 hPa 0,0 l/m 6,2 km/h (2 Bft) SW 236 0 min 0,000 mm 0,0 UV-I 0 W/m 2,3 C 3,8 C 8,0 km/h (2 Bft) 97,37 %
23.01.2018 18:00 3,7 C 3,3 C 90 % 1027,8 hPa 0,0 l/m 4,9 km/h (1 Bft) S-SW 213 0 min 0,000 mm 0,0 UV-I 0 W/m 2,2 C 3,7 C 8,0 km/h (2 Bft) 96,23 %
23.01.2018 18:02 3,7 C 3,3 C 90 % 1027,9 hPa 0,0 l/m 6,0 km/h (2 Bft) SW 233 0 min 0,000 mm 0,0 UV-I 0 W/m 2,2 C 3,7 C 8,0 km/h (2 Bft) 96,00 %
23.01.2018 18:04 3,7 C 3,3 C 91 % 1027,9 hPa 0,0 l/m 6,6 km/h (2 Bft) SW 229 0 min 0,000 mm 0,0 UV-I 0 W/m 2,4 C 3,5 C 9,7 km/h (2 Bft) 95,12 %
23.01.2018 18:06 3,7 C 3,3 C 90 % 1027,8 hPa 0,0 l/m 5,7 km/h (1 Bft) W-SW 238 0 min 0,000 mm 0,0 UV-I 0 W/m 2,2 C 3,7 C 9,7 km/h (2 Bft) 94,00 %
23.01.2018 18:08 3,6 C 3,3 C 91 % 1027,9 hPa 0,0 l/m 6,7 km/h (2 Bft) SW 225 0 min 0,000 mm 0,0 UV-I 0 W/m 2,3 C 3,3 C 11,3 km/h (2 Bft) 96,23 %
23.01.2018 18:10 3,6 C 3,3 C 91 % 1027,9 hPa 0,0 l/m 6,9 km/h (2 Bft) SW 236 0 min 0,000 mm 0,0 UV-I 0 W/m 2,3 C 3,1 C 9,7 km/h (2 Bft) 94,29 %
23.01.2018 18:12 3,6 C 3,3 C 91 % 1027,9 hPa 0,0 l/m 7,1 km/h (2 Bft) SW 234 0 min 0,000 mm 0,0 UV-I 0 W/m 2,3 C 3,0 C 9,7 km/h (2 Bft) 93,62 %
23.01.2018 18:14 3,6 C 3,3 C 91 % 1027,9 hPa 0,0 l/m 7,1 km/h (2 Bft) SW 230 0 min 0,000 mm 0,0 UV-I 0 W/m 2,3 C 3,0 C 8,0 km/h (2 Bft) 95,74 %
23.01.2018 18:16 3,6 C 3,3 C 91 % 1028,0 hPa 0,0 l/m 5,6 km/h (1 Bft) SW 234 0 min 0,000 mm 0,0 UV-I 0 W/m 2,3 C 3,6 C 8,0 km/h (2 Bft) 95,74 %
23.01.2018 18:18 3,6 C 3,3 C 91 % 1027,9 hPa 0,0 l/m 5,2 km/h (1 Bft) SW 234 0 min 0,000 mm 0,0 UV-I 0 W/m 2,3 C 3,6 C 6,4 km/h (2 Bft) 94,00 %
23.01.2018 18:20 3,6 C 3,3 C 91 % 1027,9 hPa 0,0 l/m 6,3 km/h (2 Bft) SW 232 0 min 0,000 mm 0,0 UV-I 0 W/m 2,3 C 3,6 C 9,7 km/h (2 Bft) 95,24 %
23.01.2018 18:22 3,5 C 3,3 C 91 % 1028,0 hPa 0,0 l/m 6,5 km/h (2 Bft) SW 229 0 min 0,000 mm 0,0 UV-I 0 W/m 2,2 C 3,4 C 8,0 km/h (2 Bft) 95,92 %
23.01.2018 18:24 3,5 C 3,3 C 91 % 1028,0 hPa 0,0 l/m 7,3 km/h (2 Bft) SW 223 0 min 0,000 mm 0,0 UV-I 0 W/m 2,2 C 2,7 C 11,3 km/h (2 Bft) 92,00 %
23.01.2018 18:26 3,5 C 3,3 C 91 % 1027,9 hPa 0,0 l/m 8,1 km/h (2 Bft) W-SW 240 0 min 0,000 mm 0,0 UV-I 0 W/m 2,2 C 1,9 C 11,3 km/h (2 Bft) 93,75 %
23.01.2018 18:28 3,5 C 3,3 C 91 % 1028,0 hPa 0,0 l/m 7,4 km/h (2 Bft) W-SW 237 0 min 0,000 mm 0,0 UV-I 0 W/m 2,2 C 2,6 C 11,3 km/h (2 Bft) 96,00 %
23.01.2018 18:30 3,5 C 3,3 C 91 % 1028,0 hPa 0,0 l/m 4,9 km/h (1 Bft) SW 234 0 min 0,000 mm 0,0 UV-I 0 W/m 2,2 C 3,5 C 6,4 km/h (2 Bft) 94,00 %
23.01.2018 18:32 3,5 C 3,3 C 91 % 1028,0 hPa 0,0 l/m 5,0 km/h (1 Bft) SW 217 0 min 0,000 mm 0,0 UV-I 0 W/m 2,2 C 3,5 C 6,4 km/h (2 Bft) 95,65 %
23.01.2018 18:34 3,5 C 3,3 C 91 % 1028,0 hPa 0,0 l/m 5,6 km/h (1 Bft) S-SW 211 0 min 0,000 mm 0,0 UV-I 0 W/m 2,2 C 3,5 C 8,0 km/h (2 Bft) 97,06 %
23.01.2018 18:36 3,5 C 3,3 C 91 % 1028,0 hPa 0,0 l/m 6,0 km/h (2 Bft) SW 231 0 min 0,000 mm 0,0 UV-I 0 W/m 2,2 C 3,5 C 8,0 km/h (2 Bft) 94,74 %
23.01.2018 18:38 3,5 C 3,3 C 91 % 1028,1 hPa 0,0 l/m 5,6 km/h (1 Bft) SW 230 0 min 0,000 mm 0,0 UV-I 0 W/m 2,2 C 3,5 C 9,7 km/h (2 Bft) 96,00 %
23.01.2018 18:40 3,6 C 3,3 C 91 % 1028,1 hPa 0,0 l/m 4,8 km/h (1 Bft) SW 216 0 min 0,000 mm 0,0 UV-I 0 W/m 2,3 C 3,6 C 6,4 km/h (2 Bft) 96,00 %
23.01.2018 18:42 3,6 C 3,3 C 91 % 1028,1 hPa 0,0 l/m 5,2 km/h (1 Bft) SW 230 0 min 0,000 mm 0,0 UV-I 0 W/m 2,3 C 3,6 C 8,0 km/h (2 Bft) 91,49 %
23.01.2018 18:44 3,6 C 3,3 C 90 % 1028,0 hPa 0,0 l/m 5,0 km/h (1 Bft) W-SW 239 0 min 0,000 mm 0,0 UV-I 0 W/m 2,1 C 3,6 C 8,0 km/h (2 Bft) 90,00 %
23.01.2018 18:46 3,6 C 3,3 C 90 % 1028,1 hPa 0,0 l/m 5,0 km/h (1 Bft) SW 227 0 min 0,000 mm 0,0 UV-I 0 W/m 2,1 C 3,6 C 8,0 km/h (2 Bft) 94,74 %
23.01.2018 18:48 3,6 C 3,3 C 90 % 1028,1 hPa 0,0 l/m 5,4 km/h (1 Bft) SW 221 0 min 0,000 mm 0,0 UV-I 0 W/m 2,1 C 3,6 C 6,4 km/h (2 Bft) 97,87 %
23.01.2018 18:50 3,6 C 3,3 C 90 % 1028,1 hPa 0,0 l/m 4,4 km/h (1 Bft) SW 236 0 min 0,000 mm 0,0 UV-I 0 W/m 2,1 C 3,6 C 6,4 km/h (2 Bft) 96,23 %
23.01.2018 18:52 3,6 C 3,3 C 91 % 1028,1 hPa 0,0 l/m 3,9 km/h (1 Bft) SW 231 0 min 0,000 mm 0,0 UV-I 0 W/m 2,3 C 3,6 C 6,4 km/h (2 Bft) 95,74 %
23.01.2018 18:54 3,5 C 3,3 C 91 % 1028,1 hPa 0,0 l/m 4,1 km/h (1 Bft) SW 231 0 min 0,000 mm 0,0 UV-I 0 W/m 2,2 C 3,5 C 6,4 km/h (2 Bft) 95,74 %
23.01.2018 18:56 3,5 C 3,3 C 91 % 1028,1 hPa 0,0 l/m 5,0 km/h (1 Bft) SW 236 0 min 0,000 mm 0,0 UV-I 0 W/m 2,2 C 3,5 C 6,4 km/h (2 Bft) 95,12 %
23.01.2018 18:58 3,6 C 3,9 C 91 % 1028,1 hPa 0,0 l/m 5,4 km/h (1 Bft) SW 227 0 min 0,000 mm 0,0 UV-I 0 W/m 2,3 C 3,6 C 6,4 km/h (2 Bft) 100,00 %
23.01.2018 19:00 3,6 C 3,3 C 91 % 1028,1 hPa 0,0 l/m 4,7 km/h (1 Bft) SW 230 0 min 0,000 mm 0,0 UV-I 0 W/m 2,3 C 3,6 C 6,4 km/h (2 Bft) 98,15 %
23.01.2018 19:02 3,6 C 3,3 C 90 % 1028,1 hPa 0,0 l/m 6,3 km/h (2 Bft) SW 236 0 min 0,000 mm 0,0 UV-I 0 W/m 2,1 C 3,6 C 9,7 km/h (2 Bft) 100,00 %
23.01.2018 19:04 3,6 C 3,3 C 90 % 1028,1 hPa 0,0 l/m 5,7 km/h (1 Bft) SW 232 0 min 0,000 mm 0,0 UV-I 0 W/m 2,1 C 3,6 C 8,0 km/h (2 Bft) 100,00 %
23.01.2018 19:06 3,6 C 3,3 C 90 % 1028,2 hPa 0,0 l/m 5,9 km/h (2 Bft) SW 231 0 min 0,000 mm 0,0 UV-I 0 W/m 2,1 C 3,6 C 8,0 km/h (2 Bft) 98,00 %
23.01.2018 19:08 3,5 C 3,3 C 91 % 1028,2 hPa 0,0 l/m 5,6 km/h (1 Bft) SW 226 0 min 0,000 mm 0,0 UV-I 0 W/m 2,2 C 3,5 C 8,0 km/h (2 Bft) 98,00 %
23.01.2018 19:10 3,5 C 3,3 C 91 % 1028,1 hPa 0,0 l/m 4,8 km/h (1 Bft) SW 232 0 min 0,000 mm 0,0 UV-I 0 W/m 2,2 C 3,5 C 6,4 km/h (2 Bft) 97,87 %
23.01.2018 19:12 3,5 C 3,3 C 91 % 1028,2 hPa 0,0 l/m 5,3 km/h (1 Bft) SW 224 0 min 0,000 mm 0,0 UV-I 0 W/m 2,2 C 3,5 C 8,0 km/h (2 Bft) 100,00 %
23.01.2018 19:14 3,5 C 3,3 C 91 % 1028,2 hPa 0,0 l/m 4,6 km/h (1 Bft) W-SW 240 0 min 0,000 mm 0,0 UV-I 0 W/m 2,2 C 3,5 C 6,4 km/h (2 Bft) 100,00 %
23.01.2018 19:16 3,5 C 3,9 C 91 % 1028,2 hPa 0,0 l/m 4,3 km/h (1 Bft) W-SW 239 0 min 0,000 mm 0,0 UV-I 0 W/m 2,2 C 3,5 C 6,4 km/h (2 Bft) 100,00 %
23.01.2018 19:18 3,4 C 3,3 C 91 % 1028,1 hPa 0,0 l/m 4,4 km/h (1 Bft) SW 223 0 min 0,000 mm 0,0 UV-I 0 W/m 2,1 C 3,4 C 6,4 km/h (2 Bft) 100,00 %
23.01.2018 19:20 3,5 C 3,3 C 91 % 1028,2 hPa 0,0 l/m 4,2 km/h (1 Bft) SW 226 0 min 0,000 mm 0,0 UV-I 0 W/m 2,2 C 3,5 C 6,4 km/h (2 Bft) 100,00 %
23.01.2018 19:22 3,6 C 3,3 C 91 % 1028,1 hPa 0,0 l/m 4,3 km/h (1 Bft) SW 225 0 min 0,000 mm 0,0 UV-I 0 W/m 2,3 C 3,6 C 6,4 km/h (2 Bft) 98,11 %
23.01.2018 19:24 3,4 C 3,3 C 90 % 1028,1 hPa 0,0 l/m 3,8 km/h (1 Bft) SW 225 0 min 0,000 mm 0,0 UV-I 0 W/m 1,9 C 3,4 C 4,8 km/h (1 Bft) 100,00 %
23.01.2018 19:26 3,4 C 3,3 C 91 % 1028,1 hPa 0,0 l/m 3,9 km/h (1 Bft) SW 225 0 min 0,000 mm 0,0 UV-I 0 W/m 2,1 C 3,4 C 6,4 km/h (2 Bft) 97,87 %
23.01.2018 19:28 3,3 C 3,3 C 91 % 1028,2 hPa 0,0 l/m 2,9 km/h (1 Bft) SW 225 0 min 0,000 mm 0,0 UV-I 0 W/m 2,0 C 3,3 C 4,8 km/h (1 Bft) 100,00 %
23.01.2018 19:30 3,2 C 3,3 C 91 % 1028,1 hPa 0,0 l/m 3,1 km/h (1 Bft) SW 224 0 min 0,000 mm 0,0 UV-I 0 W/m 1,9 C 3,2 C 4,8 km/h (1 Bft) 98,00 %
23.01.2018 19:32 3,2 C 3,9 C 91 % 1028,1 hPa 0,0 l/m 4,0 km/h (1 Bft) SW 224 0 min 0,000 mm 0,0 UV-I 0 W/m 1,9 C 3,2 C 4,8 km/h (1 Bft) 100,00 %
23.01.2018 19:34 3,1 C 3,3 C 92 % 1028,1 hPa 0,0 l/m 2,1 km/h (1 Bft) SW 224 0 min 0,000 mm 0,0 UV-I 0 W/m 1,9 C 3,1 C 4,8 km/h (1 Bft) 100,00 %
23.01.2018 19:36 3,1 C 3,3 C 92 % 1028,1 hPa 0,0 l/m 2,5 km/h (1 Bft) SW 224 0 min 0,000 mm 0,0 UV-I 0 W/m 1,9 C 3,1 C 4,8 km/h (1 Bft) 100,00 %
23.01.2018 19:38 3,1 C 3,3 C 92 % 1028,1 hPa 0,0 l/m 3,1 km/h (1 Bft) SW 224 0 min 0,000 mm 0,0 UV-I 0 W/m 1,9 C 3,1 C 4,8 km/h (1 Bft) 100,00 %
23.01.2018 19:40 2,9 C 3,3 C 92 % 1028,1 hPa 0,0 l/m 1,7 km/h (1 Bft) SW 224 0 min 0,000 mm 0,0 UV-I 0 W/m 1,7 C 2,9 C 3,2 km/h (1 Bft) 100,00 %
23.01.2018 19:42 2,7 C 3,3 C 92 % 1028,1 hPa 0,0 l/m 2,5 km/h (1 Bft) SW 224 0 min 0,000 mm 0,0 UV-I 0 W/m 1,5 C 2,7 C 4,8 km/h (1 Bft) 100,00 %
23.01.2018 19:44 2,6 C 3,3 C 93 % 1028,1 hPa 0,0 l/m 2,8 km/h (1 Bft) SW 224 0 min 0,000 mm 0,0 UV-I 0 W/m 1,6 C 2,6 C 4,8 km/h (1 Bft) 100,00 %
23.01.2018 19:46 2,6 C 3,3 C 94 % 1028,1 hPa 0,0 l/m 3,3 km/h (1 Bft) SW 224 0 min 0,000 mm 0,0 UV-I 0 W/m 1,7 C 2,6 C 4,8 km/h (1 Bft) 100,00 %
23.01.2018 19:48 2,6 C 3,3 C 93 % 1028,1 hPa 0,0 l/m 2,6 km/h (1 Bft) SW 224 0 min 0,000 mm 0,0 UV-I 0 W/m 1,6 C 2,6 C 4,8 km/h (1 Bft) 100,00 %
23.01.2018 19:50 2,6 C 3,3 C 94 % 1028,2 hPa 0,0 l/m 2,2 km/h (1 Bft) SW 224 0 min 0,000 mm 0,0 UV-I 0 W/m 1,7 C 2,6 C 4,8 km/h (1 Bft) 100,00 %
23.01.2018 19:52 2,4 C 3,3 C 94 % 1028,1 hPa 0,0 l/m 2,7 km/h (1 Bft) SW 224 0 min 0,000 mm 0,0 UV-I 0 W/m 1,5 C 2,4 C 4,8 km/h (1 Bft) 100,00 %
23.01.2018 19:54 2,3 C 3,3 C 94 % 1028,1 hPa 0,0 l/m 1,7 km/h (1 Bft) SW 224 0 min 0,000 mm 0,0 UV-I 0 W/m 1,4 C 2,3 C 3,2 km/h (1 Bft) 100,00 %
23.01.2018 19:56 2,3 C 3,3 C 94 % 1028,1 hPa 0,0 l/m 0,7 km/h (0 Bft) SW 224 0 min 0,000 mm 0,0 UV-I 0 W/m 1,4 C 2,3 C 3,2 km/h (1 Bft) 100,00 %
23.01.2018 19:58 2,3 C 3,3 C 94 % 1028,1 hPa 0,0 l/m 1,4 km/h (1 Bft) SW 224 0 min 0,000 mm 0,0 UV-I 0 W/m 1,4 C 2,3 C 3,2 km/h (1 Bft) 100,00 %
23.01.2018 20:00 2,3 C 3,3 C 95 % 1028,1 hPa 0,0 l/m 1,5 km/h (1 Bft) SW 223 0 min 0,000 mm 0,0 UV-I 0 W/m 1,6 C 2,3 C 3,2 km/h (1 Bft) 100,00 %
23.01.2018 20:02 2,4 C 3,3 C 95 % 1028,1 hPa 0,0 l/m 1,7 km/h (1 Bft) SW 223 0 min 0,000 mm 0,0 UV-I 0 W/m 1,7 C 2,4 C 3,2 km/h (1 Bft) 100,00 %
23.01.2018 20:04 2,4 C 3,3 C 95 % 1028,2 hPa 0,0 l/m 2,5 km/h (1 Bft) SW 222 0 min 0,000 mm 0,0 UV-I 0 W/m 1,7 C 2,4 C 4,8 km/h (1 Bft) 100,00 %
23.01.2018 20:06 2,6 C 3,3 C 95 % 1028,1 hPa 0,0 l/m 2,5 km/h (1 Bft) SW 222 0 min 0,000 mm 0,0 UV-I 0 W/m 1,9 C 2,6 C 3,2 km/h (1 Bft) 100,00 %
23.01.2018 20:08 2,7 C 3,3 C 94 % 1028,1 hPa 0,0 l/m 1,7 km/h (1 Bft) S-SW 195 0 min 0,000 mm 0,0 UV-I 0 W/m 1,8 C 2,7 C 3,2 km/h (1 Bft) 97,87 %
23.01.2018 20:10 2,7 C 3,3 C 94 % 1028,1 hPa 0,0 l/m 3,7 km/h (1 Bft) S-SW 195 0 min 0,000 mm 0,0 UV-I 0 W/m 1,8 C 2,7 C 6,4 km/h (2 Bft) 100,00 %
23.01.2018 20:12 2,8 C 3,3 C 94 % 1028,2 hPa 0,0 l/m 4,5 km/h (1 Bft) S-SW 196 0 min 0,000 mm 0,0 UV-I 0 W/m 1,9 C 2,8 C 6,4 km/h (2 Bft) 100,00 %
23.01.2018 20:14 2,9 C 3,3 C 94 % 1028,1 hPa 0,0 l/m 1,4 km/h (1 Bft) S-SW 194 0 min 0,000 mm 0,0 UV-I 0 W/m 2,0 C 2,9 C 4,8 km/h (1 Bft) 100,00 %
23.01.2018 20:16 3,0 C 3,3 C 93 % 1028,2 hPa 0,0 l/m 3,0 km/h (1 Bft) S-SW 194 0 min 0,000 mm 0,0 UV-I 0 W/m 2,0 C 3,0 C 4,8 km/h (1 Bft) 100,00 %
23.01.2018 20:18 3,1 C 3,3 C 93 % 1028,2 hPa 0,0 l/m 4,7 km/h (1 Bft) S-SW 194 0 min 0,000 mm 0,0 UV-I 0 W/m 2,1 C 3,1 C 6,4 km/h (2 Bft) 100,00 %
23.01.2018 20:20 3,1 C 3,3 C 93 % 1028,1 hPa 0,0 l/m 4,7 km/h (1 Bft) S-SW 194 0 min 0,000 mm 0,0 UV-I 0 W/m 2,1 C 3,1 C 6,4 km/h (2 Bft) 97,92 %
23.01.2018 20:22 3,1 C 3,3 C 93 % 1028,1 hPa 0,0 l/m 4,0 km/h (1 Bft) S-SW 194 0 min 0,000 mm 0,0 UV-I 0 W/m 2,1 C 3,1 C 6,4 km/h (2 Bft) 100,00 %
23.01.2018 20:24 3,0 C 3,3 C 93 % 1028,1 hPa 0,0 l/m 2,8 km/h (1 Bft) S-SW 194 0 min 0,000 mm 0,0 UV-I 0 W/m 2,0 C 3,0 C 4,8 km/h (1 Bft) 100,00 %
23.01.2018 20:26 3,0 C 3,3 C 93 % 1028,1 hPa 0,0 l/m 3,3 km/h (1 Bft) S-SW 197 0 min 0,000 mm 0,0 UV-I 0 W/m 2,0 C 3,0 C 6,4 km/h (2 Bft) 100,00 %
23.01.2018 20:28 3,0 C 3,3 C 93 % 1028,1 hPa 0,0 l/m 2,5 km/h (1 Bft) S-SW 197 0 min 0,000 mm 0,0 UV-I 0 W/m 2,0 C 3,0 C 6,4 km/h (2 Bft) 98,00 %
23.01.2018 20:30 3,1 C 3,3 C 93 % 1028,0 hPa 0,0 l/m 2,1 km/h (1 Bft) S-SW 197 0 min 0,000 mm 0,0 UV-I 0 W/m 2,1 C 3,1 C 4,8 km/h (1 Bft) 95,74 %
23.01.2018 20:32 3,1 C 3,3 C 93 % 1028,0 hPa 0,0 l/m 4,9 km/h (1 Bft) S-SW 194 0 min 0,000 mm 0,0 UV-I 0 W/m 2,1 C 3,1 C 6,4 km/h (2 Bft) 97,73 %
23.01.2018 20:34 3,1 C 3,3 C 92 % 1028,1 hPa 0,0 l/m 6,0 km/h (2 Bft) S-SW 210 0 min 0,000 mm 0,0 UV-I 0 W/m 1,9 C 3,1 C 8,0 km/h (2 Bft) 93,62 %
23.01.2018 20:36 3,0 C 3,3 C 92 % 1028,1 hPa 0,0 l/m 5,7 km/h (1 Bft) S-SW 213 0 min 0,000 mm 0,0 UV-I 0 W/m 1,8 C 3,0 C 8,0 km/h (2 Bft) 97,37 %
23.01.2018 20:38 2,9 C 3,3 C 92 % 1028,0 hPa 0,0 l/m 4,5 km/h (1 Bft) S-SW 211 0 min 0,000 mm 0,0 UV-I 0 W/m 1,7 C 2,9 C 6,4 km/h (2 Bft) 98,11 %
23.01.2018 20:40 2,9 C 3,3 C 93 % 1028,0 hPa 0,0 l/m 2,9 km/h (1 Bft) S-SW 211 0 min 0,000 mm 0,0 UV-I 0 W/m 1,9 C 2,9 C 4,8 km/h (1 Bft) 95,74 %
23.01.2018 20:42 2,8 C 3,3 C 92 % 1028,0 hPa 0,0 l/m 2,0 km/h (1 Bft) S-SW 211 0 min 0,000 mm 0,0 UV-I 0 W/m 1,6 C 2,8 C 6,4 km/h (2 Bft) 94,23 %
23.01.2018 20:44 2,8 C 3,3 C 93 % 1028,0 hPa 0,0 l/m 1,5 km/h (1 Bft) S-SW 209 0 min 0,000 mm 0,0 UV-I 0 W/m 1,8 C 2,8 C 3,2 km/h (1 Bft) 100,00 %
23.01.2018 20:46 2,8 C 3,9 C 93 % 1028,0 hPa 0,0 l/m 0,9 km/h (0 Bft) S-SW 209 0 min 0,000 mm 0,0 UV-I 0 W/m 1,8 C 2,8 C 1,6 km/h (1 Bft) 94,00 %
23.01.2018 20:48 2,8 C 3,3 C 93 % 1028,0 hPa 0,0 l/m 0,7 km/h (0 Bft) S-SW 209 0 min 0,000 mm 0,0 UV-I 0 W/m 1,8 C 2,8 C 1,6 km/h (1 Bft) 98,11 %
23.01.2018 20:50 2,7 C 3,3 C 93 % 1028,0 hPa 0,0 l/m 1,0 km/h (0 Bft) S-SW 205 0 min 0,000 mm 0,0 UV-I 0 W/m 1,7 C 2,7 C 3,2 km/h (1 Bft) 97,87 %
23.01.2018 20:52 2,6 C 3,3 C 93 % 1027,9 hPa 0,0 l/m 0,4 km/h (0 Bft) S-SW 205 0 min 0,000 mm 0,0 UV-I 0 W/m 1,6 C 2,6 C 1,6 km/h (1 Bft) 97,37 %
23.01.2018 20:54 2,7 C 3,3 C 94 % 1027,9 hPa 0,0 l/m 0,2 km/h (0 Bft) S-SW 205 0 min 0,000 mm 0,0 UV-I 0 W/m 1,8 C 2,7 C 1,6 km/h (1 Bft) 95,74 %
23.01.2018 20:56 2,7 C 3,3 C 93 % 1027,9 hPa 0,0 l/m 0,2 km/h (0 Bft) S-SW 205 0 min 0,000 mm 0,0 UV-I 0 W/m 1,7 C 2,7 C 1,6 km/h (1 Bft) 96,23 %
23.01.2018 20:58 2,8 C 3,3 C 93 % 1028,0 hPa 0,0 l/m 1,4 km/h (1 Bft) S-SW 205 0 min 0,000 mm 0,0 UV-I 0 W/m 1,8 C 2,8 C 3,2 km/h (1 Bft) 96,08 %
23.01.2018 21:00 2,8 C 3,3 C 93 % 1028,1 hPa 0,0 l/m 4,3 km/h (1 Bft) S-SW 207 0 min 0,000 mm 0,0 UV-I 0 W/m 1,8 C 2,8 C 4,8 km/h (1 Bft) 100,00 %
23.01.2018 21:02 2,8 C 3,3 C 93 % 1028,2 hPa 0,0 l/m 3,0 km/h (1 Bft) S-SW 208 0 min 0,000 mm 0,0 UV-I 0 W/m 1,8 C 2,8 C 4,8 km/h (1 Bft) 95,74 %
23.01.2018 21:04 2,8 C 3,3 C 93 % 1028,2 hPa 0,0 l/m 4,5 km/h (1 Bft) S-SW 208 0 min 0,000 mm 0,0 UV-I 0 W/m 1,8 C 2,8 C 6,4 km/h (2 Bft) 94,34 %
23.01.2018 21:06 2,7 C 3,3 C 93 % 1028,2 hPa 0,0 l/m 1,7 km/h (1 Bft) S-SW 208 0 min 0,000 mm 0,0 UV-I 0 W/m 1,7 C 2,7 C 4,8 km/h (1 Bft) 97,87 %
23.01.2018 21:08 2,6 C 3,3 C 93 % 1028,2 hPa 0,0 l/m 1,2 km/h (1 Bft) S-SW 208 0 min 0,000 mm 0,0 UV-I 0 W/m 1,6 C 2,6 C 3,2 km/h (1 Bft) 97,37 %
23.01.2018 21:10 2,5 C 3,9 C 94 % 1028,1 hPa 0,0 l/m 1,8 km/h (1 Bft) S-SW 208 0 min 0,000 mm 0,0 UV-I 0 W/m 1,6 C 2,5 C 3,2 km/h (1 Bft) 100,00 %
23.01.2018 21:12 2,6 C 3,3 C 94 % 1028,0 hPa 0,0 l/m 2,7 km/h (1 Bft) S-SW 196 0 min 0,000 mm 0,0 UV-I 0 W/m 1,7 C 2,6 C 4,8 km/h (1 Bft) 100,00 %
23.01.2018 21:14 2,6 C 3,3 C 94 % 1028,0 hPa 0,0 l/m 2,2 km/h (1 Bft) S 191 0 min 0,000 mm 0,0 UV-I 0 W/m 1,7 C 2,6 C 4,8 km/h (1 Bft) 100,00 %
23.01.2018 21:16 2,6 C 3,3 C 94 % 1028,0 hPa 0,0 l/m 0,7 km/h (0 Bft) S 191 0 min 0,000 mm 0,0 UV-I 0 W/m 1,7 C 2,6 C 3,2 km/h (1 Bft) 98,00 %
23.01.2018 21:18 2,6 C 3,3 C 94 % 1028,0 hPa 0,0 l/m 0,1 km/h (0 Bft) S 191 0 min 0,000 mm 0,0 UV-I 0 W/m 1,7 C 2,6 C 1,6 km/h (1 Bft) 100,00 %
23.01.2018 21:20 2,6 C 3,3 C 94 % 1028,0 hPa 0,0 l/m 1,0 km/h (0 Bft) S 191 0 min 0,000 mm 0,0 UV-I 0 W/m 1,7 C 2,6 C 3,2 km/h (1 Bft) 100,00 %
23.01.2018 21:22 2,7 C 3,3 C 94 % 1028,0 hPa 0,0 l/m 0,3 km/h (0 Bft) S 191 0 min 0,000 mm 0,0 UV-I 0 W/m 1,8 C 2,7 C 1,6 km/h (1 Bft) 100,00 %
23.01.2018 21:24 2,6 C 3,3 C 94 % 1028,0 hPa 0,0 l/m 1,4 km/h (1 Bft) S 191 0 min 0,000 mm 0,0 UV-I 0 W/m 1,7 C 2,6 C 3,2 km/h (1 Bft) 100,00 %
23.01.2018 21:26 2,6 C 3,9 C 94 % 1028,0 hPa 0,0 l/m 1,3 km/h (1 Bft) S 191 0 min 0,000 mm 0,0 UV-I 0 W/m 1,7 C 2,6 C 3,2 km/h (1 Bft) 97,87 %
23.01.2018 21:28 2,5 C 3,3 C 94 % 1028,0 hPa 0,0 l/m 0,0 km/h (0 Bft) S 191 0 min 0,000 mm 0,0 UV-I 0 W/m 1,6 C 2,5 C 0,0 km/h (0 Bft) 100,00 %
23.01.2018 21:30 2,5 C 3,3 C 94 % 1028,0 hPa 0,0 l/m 0,0 km/h (0 Bft) S 191 0 min 0,000 mm 0,0 UV-I 0 W/m 1,6 C 2,5 C 0,0 km/h (0 Bft) 100,00 %
23.01.2018 21:32 2,4 C 3,3 C 94 % 1028,1 hPa 0,0 l/m 0,0 km/h (0 Bft) S 191 0 min 0,000 mm 0,0 UV-I 0 W/m 1,5 C 2,4 C 0,0 km/h (0 Bft) 98,08 %
23.01.2018 21:34 2,4 C 3,3 C 94 % 1028,1 hPa 0,0 l/m 1,0 km/h (0 Bft) S 191 0 min 0,000 mm 0,0 UV-I 0 W/m 1,5 C 2,4 C 3,2 km/h (1 Bft) 100,00 %
23.01.2018 21:36 2,5 C 3,3 C 94 % 1028,1 hPa 0,0 l/m 0,0 km/h (0 Bft) S 191 0 min 0,000 mm 0,0 UV-I 0 W/m 1,6 C 2,5 C 1,6 km/h (1 Bft) 100,00 %
23.01.2018 21:38 2,4 C 3,9 C 94 % 1028,1 hPa 0,0 l/m 0,4 km/h (0 Bft) S 191 0 min 0,000 mm 0,0 UV-I 0 W/m 1,5 C 2,4 C 1,6 km/h (1 Bft) 100,00 %
23.01.2018 21:40 2,4 C 3,9 C 94 % 1028,0 hPa 0,0 l/m 0,2 km/h (0 Bft) S 191 0 min 0,000 mm 0,0 UV-I 0 W/m 1,5 C 2,4 C 3,2 km/h (1 Bft) 100,00 %
23.01.2018 21:42 2,3 C 3,3 C 94 % 1028,0 hPa 0,0 l/m 0,0 km/h (0 Bft) S 191 0 min 0,000 mm 0,0 UV-I 0 W/m 1,4 C 2,3 C 0,0 km/h (0 Bft) 100,00 %
23.01.2018 21:44 2,3 C 3,3 C 94 % 1028,0 hPa 0,0 l/m 0,0 km/h (0 Bft) S 191 0 min 0,000 mm 0,0 UV-I 0 W/m 1,4 C 2,3 C 0,0 km/h (0 Bft) 100,00 %
23.01.2018 21:46 2,2 C 3,3 C 94 % 1028,0 hPa 0,0 l/m 0,0 km/h (0 Bft) S 191 0 min 0,000 mm 0,0 UV-I 0 W/m 1,3 C 2,2 C 1,6 km/h (1 Bft) 97,87 %
23.01.2018 21:48 2,2 C 3,3 C 95 % 1027,9 hPa 0,0 l/m 0,4 km/h (0 Bft) S 191 0 min 0,000 mm 0,0 UV-I 0 W/m 1,5 C 2,2 C 1,6 km/h (1 Bft) 100,00 %
23.01.2018 21:50 2,2 C 3,3 C 95 % 1027,9 hPa 0,0 l/m 0,4 km/h (0 Bft) S 191 0 min 0,000 mm 0,0 UV-I 0 W/m 1,5 C 2,2 C 1,6 km/h (1 Bft) 100,00 %
23.01.2018 21:52 2,3 C 3,3 C 95 % 1028,0 hPa 0,0 l/m 0,7 km/h (0 Bft) S 191 0 min 0,000 mm 0,0 UV-I 0 W/m 1,6 C 2,3 C 1,6 km/h (1 Bft) 100,00 %
23.01.2018 21:54 2,3 C 3,9 C 95 % 1028,0 hPa 0,0 l/m 0,5 km/h (0 Bft) S 191 0 min 0,000 mm 0,0 UV-I 0 W/m 1,6 C 2,3 C 1,6 km/h (1 Bft) 100,00 %
23.01.2018 21:56 2,3 C 3,3 C 95 % 1027,9 hPa 0,0 l/m 0,4 km/h (0 Bft) S 191 0 min 0,000 mm 0,0 UV-I 0 W/m 1,6 C 2,3 C 1,6 km/h (1 Bft) 97,73 %
23.01.2018 21:58 2,4 C 3,9 C 95 % 1027,9 hPa 0,0 l/m 1,8 km/h (1 Bft) S 190 0 min 0,000 mm 0,0 UV-I 0 W/m 1,7 C 2,4 C 3,2 km/h (1 Bft) 100,00 %
23.01.2018 22:00 2,6 C 3,3 C 95 % 1027,8 hPa 0,0 l/m 1,0 km/h (0 Bft) S 190 0 min 0,000 mm 0,0 UV-I 0 W/m 1,9 C 2,6 C 3,2 km/h (1 Bft) 97,87 %
23.01.2018 22:02 2,6 C 3,3 C 94 % 1027,8 hPa 0,0 l/m 1,3 km/h (1 Bft) S 190 0 min 0,000 mm 0,0 UV-I 0 W/m 1,7 C 2,6 C 4,8 km/h (1 Bft) 100,00 %
23.01.2018 22:04 2,6 C 3,3 C 94 % 1027,8 hPa 0,0 l/m 2,0 km/h (1 Bft) S 190 0 min 0,000 mm 0,0 UV-I 0 W/m 1,7 C 2,6 C 4,8 km/h (1 Bft) 100,00 %
23.01.2018 22:06 2,6 C 3,3 C 94 % 1027,8 hPa 0,0 l/m 0,7 km/h (0 Bft) S 191 0 min 0,000 mm 0,0 UV-I 0 W/m 1,7 C 2,6 C 3,2 km/h (1 Bft) 100,00 %
23.01.2018 22:08 2,6 C 3,3 C 94 % 1027,8 hPa 0,0 l/m 1,4 km/h (1 Bft) S 191 0 min 0,000 mm 0,0 UV-I 0 W/m 1,7 C 2,6 C 3,2 km/h (1 Bft) 100,00 %
23.01.2018 22:10 2,6 C 3,3 C 94 % 1027,8 hPa 0,0 l/m 0,4 km/h (0 Bft) S 191 0 min 0,000 mm 0,0 UV-I 0 W/m 1,7 C 2,6 C 1,6 km/h (1 Bft) 100,00 %
23.01.2018 22:12 2,5 C 3,3 C 94 % 1027,8 hPa 0,0 l/m 0,6 km/h (0 Bft) S 191 0 min 0,000 mm 0,0 UV-I 0 W/m 1,6 C 2,5 C 1,6 km/h (1 Bft) 100,00 %
23.01.2018 22:14 2,5 C 3,3 C 94 % 1027,8 hPa 0,0 l/m 0,1 km/h (0 Bft) S 191 0 min 0,000 mm 0,0 UV-I 0 W/m 1,6 C 2,5 C 1,6 km/h (1 Bft) 96,08 %
23.01.2018 22:16 2,4 C 3,3 C 94 % 1027,8 hPa 0,0 l/m 0,0 km/h (0 Bft) S 191 0 min 0,000 mm 0,0 UV-I 0 W/m 1,5 C 2,4 C 0,0 km/h (0 Bft) 97,44 %
23.01.2018 22:18 2,3 C 3,3 C 94 % 1027,8 hPa 0,0 l/m 0,0 km/h (0 Bft) S 191 0 min 0,000 mm 0,0 UV-I 0 W/m 1,4 C 2,3 C 0,0 km/h (0 Bft) 96,00 %
23.01.2018 22:20 2,2 C 3,3 C 95 % 1027,9 hPa 0,0 l/m 0,0 km/h (0 Bft) S 191 0 min 0,000 mm 0,0 UV-I 0 W/m 1,5 C 2,2 C 0,0 km/h (0 Bft) 98,00 %
23.01.2018 22:22 2,2 C 3,3 C 95 % 1027,9 hPa 0,0 l/m 0,0 km/h (0 Bft) S 191 0 min 0,000 mm 0,0 UV-I 0 W/m 1,5 C 2,2 C 0,0 km/h (0 Bft) 97,87 %
23.01.2018 22:24 2,2 C 3,3 C 95 % 1027,9 hPa 0,0 l/m 0,0 km/h (0 Bft) S 191 0 min 0,000 mm 0,0 UV-I 0 W/m 1,5 C 2,2 C 0,0 km/h (0 Bft) 97,87 %
23.01.2018 22:26 2,2 C 3,3 C 95 % 1027,8 hPa 0,0 l/m 0,1 km/h (0 Bft) S 191 0 min 0,000 mm 0,0 UV-I 0 W/m 1,5 C 2,2 C 1,6 km/h (1 Bft) 94,74 %
23.01.2018 22:28 2,1 C 3,3 C 95 % 1027,8 hPa 0,0 l/m 1,0 km/h (0 Bft) S 191 0 min 0,000 mm 0,0 UV-I 0 W/m 1,4 C 2,1 C 1,6 km/h (1 Bft) 98,00 %
23.01.2018 22:30 2,1 C 3,9 C 95 % 1027,8 hPa 0,0 l/m 0,0 km/h (0 Bft) S 191 0 min 0,000 mm 0,0 UV-I 0 W/m 1,4 C 2,1 C 0,0 km/h (0 Bft) 98,00 %
23.01.2018 22:32 2,2 C 3,3 C 95 % 1027,9 hPa 0,0 l/m 0,0 km/h (0 Bft) S 191 0 min 0,000 mm 0,0 UV-I 0 W/m 1,5 C 2,2 C 0,0 km/h (0 Bft) 98,00 %
23.01.2018 22:34 2,2 C 3,3 C 95 % 1027,9 hPa 0,0 l/m 1,6 km/h (1 Bft) S 191 0 min 0,000 mm 0,0 UV-I 0 W/m 1,5 C 2,2 C 3,2 km/h (1 Bft) 97,87 %
23.01.2018 22:36 2,2 C 3,3 C 95 % 1027,9 hPa 0,0 l/m 2,0 km/h (1 Bft) S 190 0 min 0,000 mm 0,0 UV-I 0 W/m 1,5 C 2,2 C 3,2 km/h (1 Bft) 97,37 %
23.01.2018 22:38 2,2 C 3,3 C 95 % 1027,8 hPa 0,0 l/m 2,2 km/h (1 Bft) S 190 0 min 0,000 mm 0,0 UV-I 0 W/m 1,5 C 2,2 C 3,2 km/h (1 Bft) 97,87 %
23.01.2018 22:40 2,3 C 3,3 C 95 % 1027,8 hPa 0,0 l/m 0,2 km/h (0 Bft) S 190 0 min 0,000 mm 0,0 UV-I 0 W/m 1,6 C 2,3 C 1,6 km/h (1 Bft) 96,43 %
23.01.2018 22:42 2,2 C 3,3 C 95 % 1027,8 hPa 0,0 l/m 0,0 km/h (0 Bft) S 190 0 min 0,000 mm 0,0 UV-I 0 W/m 1,5 C 2,2 C 1,6 km/h (1 Bft) 97,56 %
23.01.2018 22:44 2,1 C 3,3 C 95 % 1027,8 hPa 0,0 l/m 0,0 km/h (0 Bft) S 190 0 min 0,000 mm 0,0 UV-I 0 W/m 1,4 C 2,1 C 0,0 km/h (0 Bft) 93,62 %
23.01.2018 22:46 2,1 C 3,3 C 95 % 1027,8 hPa 0,0 l/m 0,0 km/h (0 Bft) S 190 0 min 0,000 mm 0,0 UV-I 0 W/m 1,4 C 2,1 C 0,0 km/h (0 Bft) 95,74 %
23.01.2018 22:48 2,1 C 3,3 C 95 % 1027,7 hPa 0,0 l/m 0,5 km/h (0 Bft) S 190 0 min 0,000 mm 0,0 UV-I 0 W/m 1,4 C 2,1 C 3,2 km/h (1 Bft) 96,00 %
23.01.2018 22:50 2,1 C 3,3 C 96 % 1027,7 hPa 0,0 l/m 2,1 km/h (1 Bft) S 190 0 min 0,000 mm 0,0 UV-I 0 W/m 1,5 C 2,1 C 3,2 km/h (1 Bft) 91,67 %
23.01.2018 22:52 2,1 C 3,3 C 96 % 1027,6 hPa 0,0 l/m 2,7 km/h (1 Bft) S 190 0 min 0,000 mm 0,0 UV-I 0 W/m 1,5 C 2,1 C 4,8 km/h (1 Bft) 96,00 %
23.01.2018 22:54 2,2 C 3,3 C 96 % 1027,7 hPa 0,0 l/m 3,4 km/h (1 Bft) S 190 0 min 0,000 mm 0,0 UV-I 0 W/m 1,6 C 2,2 C 4,8 km/h (1 Bft) 94,34 %
23.01.2018 22:56 2,2 C 3,3 C 96 % 1027,6 hPa 0,0 l/m 3,8 km/h (1 Bft) S 190 0 min 0,000 mm 0,0 UV-I 0 W/m 1,6 C 2,2 C 4,8 km/h (1 Bft) 94,00 %
23.01.2018 22:58 2,2 C 3,3 C 96 % 1027,7 hPa 0,0 l/m 3,1 km/h (1 Bft) S 190 0 min 0,000 mm 0,0 UV-I 0 W/m 1,6 C 2,2 C 4,8 km/h (1 Bft) 97,56 %
23.01.2018 23:00 2,2 C 3,3 C 96 % 1027,7 hPa 0,0 l/m 0,8 km/h (0 Bft) S 190 0 min 0,000 mm 0,0 UV-I 0 W/m 1,6 C 2,2 C 3,2 km/h (1 Bft) 94,00 %
23.01.2018 23:02 2,2 C 3,3 C 96 % 1027,7 hPa 0,0 l/m 0,0 km/h (0 Bft) S 190 0 min 0,000 mm 0,0 UV-I 0 W/m 1,6 C 2,2 C 1,6 km/h (1 Bft) 95,12 %
23.01.2018 23:04 2,1 C 3,3 C 96 % 1027,7 hPa 0,0 l/m 0,0 km/h (0 Bft) S 190 0 min 0,000 mm 0,0 UV-I 0 W/m 1,5 C 2,1 C 0,0 km/h (0 Bft) 92,00 %
23.01.2018 23:06 2,1 C 3,3 C 96 % 1027,7 hPa 0,0 l/m 0,0 km/h (0 Bft) S 190 0 min 0,000 mm 0,0 UV-I 0 W/m 1,5 C 2,1 C 0,0 km/h (0 Bft) 96,23 %
23.01.2018 23:08 2,1 C 3,3 C 96 % 1027,7 hPa 0,0 l/m 0,4 km/h (0 Bft) S 190 0 min 0,000 mm 0,0 UV-I 0 W/m 1,5 C 2,1 C 1,6 km/h (1 Bft) 94,74 %
23.01.2018 23:10 2,1 C 3,3 C 96 % 1027,7 hPa 0,0 l/m 0,0 km/h (0 Bft) S 190 0 min 0,000 mm 0,0 UV-I 0 W/m 1,5 C 2,1 C 0,0 km/h (0 Bft) 96,00 %
23.01.2018 23:12 2,1 C 3,3 C 96 % 1027,7 hPa 0,0 l/m 0,1 km/h (0 Bft) S 190 0 min 0,000 mm 0,0 UV-I 0 W/m 1,5 C 2,1 C 1,6 km/h (1 Bft) 95,74 %
23.01.2018 23:14 1,9 C 3,3 C 96 % 1027,7 hPa 0,0 l/m 0,2 km/h (0 Bft) S 190 0 min 0,000 mm 0,0 UV-I 0 W/m 1,3 C 1,9 C 1,6 km/h (1 Bft) 96,00 %
23.01.2018 23:16 1,8 C 3,3 C 96 % 1027,7 hPa 0,0 l/m 0,0 km/h (0 Bft) S 190 0 min 0,000 mm 0,0 UV-I 0 W/m 1,2 C 1,8 C 0,0 km/h (0 Bft) 92,11 %
23.01.2018 23:18 1,8 C 3,9 C 96 % 1027,7 hPa 0,0 l/m 0,0 km/h (0 Bft) S 190 0 min 0,000 mm 0,0 UV-I 0 W/m 1,2 C 1,8 C 0,0 km/h (0 Bft) 95,74 %
23.01.2018 23:20 1,8 C 3,3 C 97 % 1027,7 hPa 0,0 l/m 0,1 km/h (0 Bft) S 190 0 min 0,000 mm 0,0 UV-I 0 W/m 1,4 C 1,8 C 1,6 km/h (1 Bft) 92,45 %
23.01.2018 23:22 1,9 C 3,3 C 97 % 1027,6 hPa 0,0 l/m 0,3 km/h (0 Bft) S 190 0 min 0,000 mm 0,0 UV-I 0 W/m 1,5 C 1,9 C 1,6 km/h (1 Bft) 96,00 %
23.01.2018 23:24 1,9 C 3,3 C 97 % 1027,6 hPa 0,0 l/m 0,1 km/h (0 Bft) S 190 0 min 0,000 mm 0,0 UV-I 0 W/m 1,5 C 1,9 C 1,6 km/h (1 Bft) 97,44 %
23.01.2018 23:26 1,9 C 3,3 C 97 % 1027,7 hPa 0,0 l/m 0,0 km/h (0 Bft) S 190 0 min 0,000 mm 0,0 UV-I 0 W/m 1,5 C 1,9 C 0,0 km/h (0 Bft) 97,87 %
23.01.2018 23:28 1,9 C 3,3 C 97 % 1027,7 hPa 0,0 l/m 0,0 km/h (0 Bft) S 190 0 min 0,000 mm 0,0 UV-I 0 W/m 1,5 C 1,9 C 0,0 km/h (0 Bft) 97,87 %
23.01.2018 23:30 1,9 C 3,3 C 97 % 1027,7 hPa 0,0 l/m 0,1 km/h (0 Bft) S 190 0 min 0,000 mm 0,0 UV-I 0 W/m 1,5 C 1,9 C 1,6 km/h (1 Bft) 96,23 %
23.01.2018 23:32 1,9 C 3,3 C 97 % 1027,7 hPa 0,0 l/m 0,6 km/h (0 Bft) S 190 0 min 0,000 mm 0,0 UV-I 0 W/m 1,5 C 1,9 C 3,2 km/h (1 Bft) 97,87 %
23.01.2018 23:34 1,9 C 3,3 C 97 % 1027,7 hPa 0,0 l/m 0,5 km/h (0 Bft) S 190 0 min 0,000 mm 0,0 UV-I 0 W/m 1,5 C 1,9 C 3,2 km/h (1 Bft) 97,87 %
23.01.2018 23:36 1,9 C 3,3 C 97 % 1027,7 hPa 0,0 l/m 0,0 km/h (0 Bft) S 190 0 min 0,000 mm 0,0 UV-I 0 W/m 1,5 C 1,9 C 0,0 km/h (0 Bft) 100,00 %
23.01.2018 23:38 1,9 C 3,3 C 97 % 1027,7 hPa 0,0 l/m 0,0 km/h (0 Bft) S 190 0 min 0,000 mm 0,0 UV-I 0 W/m 1,5 C 1,9 C 0,0 km/h (0 Bft) 96,00 %
23.01.2018 23:40 1,9 C 3,9 C 97 % 1027,7 hPa 0,0 l/m 0,9 km/h (0 Bft) S 190 0 min 0,000 mm 0,0 UV-I 0 W/m 1,5 C 1,9 C 3,2 km/h (1 Bft) 98,11 %
23.01.2018 23:42 1,9 C 3,9 C 97 % 1027,7 hPa 0,0 l/m 2,5 km/h (1 Bft) S 190 0 min 0,000 mm 0,0 UV-I 0 W/m 1,5 C 1,9 C 4,8 km/h (1 Bft) 98,00 %
23.01.2018 23:44 1,9 C 3,3 C 97 % 1027,7 hPa 0,0 l/m 0,3 km/h (0 Bft) S 190 0 min 0,000 mm 0,0 UV-I 0 W/m 1,5 C 1,9 C 3,2 km/h (1 Bft) 100,00 %
23.01.2018 23:46 1,9 C 3,3 C 97 % 1027,7 hPa 0,0 l/m 1,1 km/h (1 Bft) S 190 0 min 0,000 mm 0,0 UV-I 0 W/m 1,5 C 1,9 C 3,2 km/h (1 Bft) 97,87 %
23.01.2018 23:48 1,9 C 3,3 C 97 % 1027,7 hPa 0,0 l/m 0,4 km/h (0 Bft) S 190 0 min 0,000 mm 0,0 UV-I 0 W/m 1,5 C 1,9 C 1,6 km/h (1 Bft) 100,00 %
23.01.2018 23:50 1,9 C 3,3 C 96 % 1027,7 hPa 0,0 l/m 1,4 km/h (1 Bft) S 190 0 min 0,000 mm 0,0 UV-I 0 W/m 1,3 C 1,9 C 3,2 km/h (1 Bft) 100,00 %
23.01.2018 23:52 1,9 C 3,3 C 96 % 1027,6 hPa 0,0 l/m 0,1 km/h (0 Bft) S 190 0 min 0,000 mm 0,0 UV-I 0 W/m 1,3 C 1,9 C 1,6 km/h (1 Bft) 98,00 %
23.01.2018 23:54 1,9 C 3,3 C 96 % 1027,7 hPa 0,0 l/m 0,1 km/h (0 Bft) S 191 0 min 0,000 mm 0,0 UV-I 0 W/m 1,3 C 1,9 C 1,6 km/h (1 Bft) 97,87 %
23.01.2018 23:56 2,0 C 3,3 C 96 % 1027,7 hPa 0,0 l/m 1,6 km/h (1 Bft) S-SW 202 0 min 0,000 mm 0,0 UV-I 0 W/m 1,4 C 2,0 C 4,8 km/h (1 Bft) 100,00 %
23.01.2018 23:58 1,9 C 3,9 C 96 % 1027,7 hPa 0,0 l/m 0,9 km/h (0 Bft) S-SW 202 0 min 0,000 mm 0,0 UV-I 0 W/m 1,3 C 1,9 C 3,2 km/h (1 Bft) 100,00 %
_ Min-Zeit 00:00 00:00 14:32 00:00 - 00:00 - - - - - - 00:00 02:30 00:00 00:02
Minimum _ -0,1 C 3,3 C 90 % 1016,1 hPa - 0,0 km/h (0 Bft) - - - - - - -0,4 C -4,7 C 0,0 km/h (0 Bft) 10,53 %
_ Max-Zeit 15:24 18:58 00:00 19:06 05:58 07:40 - - 00:00 12:00 10:52 11:06 13:42 14:52 07:16 00:00
Maximum _ 4,3 C 3,9 C 98 % 1028,2 hPa 1,0 l/m 16,1 km/h
SW (3 Bft)
- - 0 min 0,051 mm 0,5 UV-I 171 W/m 2,9 C 4,2 C 25,7 km/h
W-SW (4 Bft)
100,00 %
Durchschnitt _ 2,8 C 3,3 C 94 % 1024,8 hPa #15,4 l/m 7,4 km/h (2 Bft) SW - #0 min. #0,254 mm 0,4 UV-I 64 W/m 1,9 C 0,8 C 11,2 km/h (2 Bft) 97,77 %